[[[{"header":{"parameterUnit":"kt","parameterCategory":2,"dx":1,"dy":1,"la1":29.285339999999998,"la2":30.599998999999997,"lo1":-89.70041500000002,"lo2":-87.6738589999976,"nx":112,"ny":82,"refTime":"2022-09-20T18:00:00:Z","depth":0,"parameterNumber":1,"parameterNumberName":"U-component_of_WINDS"},"data":[-0.3353,-0.1883,-0.0116,0.0514,0.2384,0.4469,0.5943,0.7711,0.9209,0.9797,1.0461,1.0656,0.9736,0.8871,0.8004,0.6965,0.6648,0.6581,0.0,0.7445,0.0,0.0,0.0,0.4751,0.4179,0.0,0.0,0.0,0.0,0.0,0.0,-0.4945,-0.5205,-0.5205,-0.4553,-0.4296,-0.4296,-0.3648,-0.339,-0.339,-0.339,-0.339,-0.339,-0.339,-0.339,-0.339,-0.339,-0.339,-0.339,-0.339,-0.2739,-0.1566,-0.1566,-0.1566,-0.1827,-0.3646,-0.4296,-0.4166,-0.3648,-0.339,-0.339,-0.339,-0.339,-0.3129,-0.1958,-0.1566,-0.1437,-0.0262,0.0393,0.0915,0.0915,0.1438,0.1828,0.1828,0.1567,0.1176,0.0915,0.0392,0.0,0.0,0.0,0.0,0.0,0.0,-0.0785,-0.2999,-0.339,-0.2999,-0.1827,-0.1672,-0.1154,-0.0131,0.0,0.0,0.0,0.0,-0.0591,-0.1828,-0.0676,-0.0555,-0.1846,-0.0651,-0.0873,-0.2763,-0.273,-0.273,-0.2763,-0.273,-0.2281,-0.1414,-0.1414,-0.2173,-0.4737,-0.3725,-0.2358,-0.1269,-0.0186,0.1236,0.367,0.5387,0.6742,0.7435,0.8952,0.9773,0.8336,0.8094,0.7783,0.6587,0.6426,0.6138,0.0,0.5938,0.0,0.0,0.0,0.3102,0.0,0.0,0.0,0.0,-0.2695,0.0,-0.596,-0.6635,-0.7024,-0.7024,-0.6372,-0.6113,-0.6113,-0.5594,-0.5205,-0.5205,-0.5205,-0.5205,-0.5205,-0.5205,-0.5205,-0.5205,-0.5205,-0.5205,-0.5205,-0.5205,-0.4556,-0.3386,-0.3386,-0.3386,-0.3646,-0.5464,-0.6113,-0.6113,-0.6113,-0.5724,-0.5205,-0.5205,-0.5205,-0.5075,-0.3773,-0.3386,-0.3125,-0.1306,-0.0915,-0.0785,-0.0131,0.0,0.0,0.0,0.0,0.0,0.0,0.0,-0.0131,-0.0785,-0.0915,-0.1046,-0.1699,-0.183,-0.261,-0.4945,-0.5165,-0.4623,-0.3467,-0.3261,-0.2732,-0.1522,-0.0982,-0.0967,-0.1356,-0.0959,-0.1858,-0.4718,-0.3695,-0.3103,-0.3361,-0.2164,-0.2381,-0.4227,-0.4227,-0.4227,-0.4227,-0.4227,-0.3794,-0.2822,-0.3364,-0.4122,-0.6695,-0.5585,-0.4091,-0.2724,-0.1602,-0.0478,0.0943,0.3085,0.4775,0.4786,0.6742,0.8087,0.7107,0.7518,0.7608,0.6587,0.6365,0.0,0.0,0.5089,0.0,0.0,0.0,0.0,0.0,0.0,0.0,0.0,0.0,0.0,-0.776,-0.963,-1.0552,-1.0552,-0.8844,-0.7934,-0.7934,-0.6242,-0.5464,-0.5464,-0.5464,-0.5464,-0.5464,-0.5464,-0.5464,-0.5464,-0.5464,-0.5464,-0.5464,-0.5464,-0.5335,-0.5335,-0.5335,-0.5335,-0.5594,-0.7283,-0.7805,-0.7805,-0.7805,-0.6765,-0.5464,-0.5464,-0.5464,-0.5464,-0.5335,-0.5335,-0.4945,-0.3125,-0.2605,-0.2216,-0.0654,-0.0131,-0.0131,-0.0131,-0.0131,-0.0131,0.0,0.0,-0.0523,-0.2216,-0.2605,-0.3125,-0.4945,-0.5335,-0.5461,-0.5458,-0.5209,-0.4996,-0.4993,-0.4618,-0.4295,-0.4298,-0.2982,-0.2744,-0.4173,-0.3015,-0.416,-0.8424,-0.8735,-0.7407,-0.4554,-0.4443,-0.4443,-0.4443,-0.4443,-0.4443,-0.4443,-0.4443,-0.4443,-0.4338,-0.5742,-0.6502,-0.8858,-0.7801,-0.6562,-0.6711,-0.4218,-0.1474,-0.0459,0.124,0.2763,0.3473,0.4258,0.0,0.0,0.0,0.4698,0.543,0.0,0.4191,0.0,0.431,0.0,0.0,0.0,0.0,0.0,0.0,0.0,0.0,0.0,-0.7818,-0.96,-1.1424,-1.2305,-1.2305,-1.1786,-1.1523,-1.1523,-0.9875,-0.9108,-0.9108,-0.9108,-0.9108,-0.9108,-0.9108,-0.9108,-0.9108,-0.9108,-0.9108,-0.9108,-0.9108,-0.8327,-0.7024,-0.7024,-0.7934,-0.9108,-0.963,-0.9765,-0.9765,-0.9765,-0.9501,-0.9108,-0.9108,-0.9108,-0.885,-0.7546,-0.7024,-0.6765,-0.4945,-0.4556,-0.4426,-0.3908,-0.3778,-0.3518,-0.2087,-0.1826,-0.1436,-0.0262,-0.0915,-0.1956,-0.2476,-0.3646,-0.4686,-0.5205,-0.7417,-0.8916,-0.8728,-0.8519,-0.8043,-0.6546,-0.6354,-0.5704,-0.4408,-0.3897,-0.3826,-0.4261,-0.4815,-0.6244,-0.8608,-0.8702,-0.836,-0.7583,-0.7476,-0.7476,-0.7476,-0.7476,-0.7476,-0.7476,-0.7476,-0.6932,-0.585,-0.6286,-0.6502,-0.9921,-0.8981,-0.7986,-0.8358,-0.5648,-0.2741,-0.1493,0.0222,0.1751,0.2431,0.0,0.0,0.0,0.0,0.0,0.0,0.3759,0.0,0.0,0.0,0.1201,0.0,0.0,0.0,0.0,0.0,0.0,0.0,-0.8855,-0.9998,-1.2536,-1.2815,-1.3316,-1.4077,-1.4077,-1.4077,-1.4077,-1.3078,-1.2576,-1.2576,-1.2576,-1.2576,-1.2576,-1.2576,-1.2576,-1.2576,-1.2576,-1.2576,-1.2576,-1.2576,-1.1538,-1.0114,-1.0748,-1.1658,-1.2576,-1.2576,-1.2192,-1.1552,-1.1552,-1.1053,-1.0552,-1.0552,-1.0552,-1.0288,-0.9243,-0.8979,-0.8586,-0.6765,-0.6372,-0.6113,-0.5464,-0.5205,-0.4945,-0.3906,-0.3646,-0.3386,-0.2479,-0.2997,-0.3906,-0.4553,-0.5594,-0.6477,-0.704,-0.8865,-1.0001,-0.9823,-0.9691,-0.9198,-0.8096,-0.7857,-0.7303,-0.6299,-0.5653,-0.546,-0.6122,-0.6353,-0.7045,-0.8689,-0.879,-0.8783,-0.8783,-0.8783,-0.8783,-0.8783,-0.8783,-0.8783,-0.8783,-0.8783,-0.824,-0.7368,-0.7476,-0.7476,-1.0071,-0.9408,-0.8806,-0.8337,-0.623,-0.3846,-0.2181,0.0,0.1291,0.1471,0.0,0.2572,0.2847,0.0,0.0,0.0,0.0,0.0,0.1381,0.095,-0.0892,-0.5302,-0.732,-0.7844,-0.6516,-0.7783,-0.9286,-1.0821,-1.0852,-1.2236,-1.5427,-1.433,-1.433,-1.5728,-1.5854,-1.5854,-1.5854,-1.5602,-1.5602,-1.5602,-1.5602,-1.5602,-1.5602,-1.5602,-1.5602,-1.5602,-1.5602,-1.5602,-1.5602,-1.5602,-1.471,-1.3443,-1.5214,-1.5728,-1.5602,-1.5602,-1.4583,-1.3316,-1.3316,-1.2312,-1.106,-1.106,-1.0932,-1.0803,-1.0803,-1.0681,-1.0159,-0.8586,-0.8069,-0.7676,-0.6242,-0.5854,-0.5854,-0.5594,-0.5594,-0.5464,-0.5335,-0.5464,-0.5983,-0.7546,-0.7914,-0.8466,-0.9598,-0.9724,-0.9553,-0.952,-0.9282,-0.9104,-0.9072,-0.8841,-0.8783,-0.8783,-0.7583,-0.7368,-0.8676,-0.7476,-0.7255,-0.8669,-0.8783,-0.8783,-0.8783,-0.8783,-0.8783,-0.8783,-0.8783,-0.8783,-0.8783,-0.8783,-0.8783,-0.8783,-0.8783,-0.8783,-1.0129,-0.9828,-0.9499,-0.8652,-0.6326,-0.3891,0.0,0.0,0.0,0.035,-0.043,-0.1104,-0.1062,0.0,0.0,0.0,0.0,0.0,0.0,-0.4003,0.0,-0.9069,-1.0857,-1.233,-1.3432,-1.3871,-1.4139,-1.4555,-1.456,-1.4791,-1.5466,-1.6492,-1.7255,-1.7641,-1.7641,-1.7641,-1.7641,-1.6241,-1.5602,-1.5602,-1.5602,-1.5602,-1.5602,-1.5602,-1.5602,-1.5602,-1.5602,-1.5602,-1.5602,-1.5602,-1.535,-1.5224,-1.6879,-1.6754,-1.5602,-1.5602,-1.5341,-1.5098,-1.5098,-1.4845,-1.4592,-1.4592,-1.3705,-1.256,-1.256,-1.156,-1.0423,-1.003,-1.0023,-0.9894,-0.9636,-0.9501,-0.9108,-0.7676,-0.7283,-0.6894,-0.5594,-0.6376,-0.7417,-0.7676,-0.8681,-0.9468,-0.9565,-0.9599,-0.948,-0.9243,-0.9157,-0.9032,-0.8897,-0.8817,-0.8783,-0.8783,-0.8455,-0.8455,-0.8676,-0.8455,-0.8455,-0.8783,-0.8783,-0.8783,-0.8783,-0.8783,-0.8783,-0.8783,-0.8783,-0.8783,-0.8783,-0.8783,-0.8783,-0.8783,-0.8783,-0.8783,-0.9856,-0.9322,-0.8864,-0.8969,-0.6521,0.0,0.0,-0.2226,-0.1104,-0.1819,-0.2477,-0.3068,-0.3202,-0.3828,-0.4086,-0.3307,-0.3952,-0.5322,-0.7699,-0.977,-1.1307,-1.2365,-1.354,-1.4546,-1.5466,-1.528,-1.5489,-1.6733,-1.6869,-1.7244,-1.8004,-1.814,-1.8525,-1.927,-1.9393,-1.9393,-1.9393,-1.8501,-1.8117,-1.8117,-1.8117,-1.8117,-1.8117,-1.8117,-1.8117,-1.8117,-1.8117,-1.8117,-1.8117,-1.8117,-1.8117,-1.8128,-1.9022,-1.8886,-1.8117,-1.8117,-1.7494,-1.6869,-1.6869,-1.6241,-1.5602,-1.5602,-1.4962,-1.433,-1.433,-1.307,-1.156,-1.0674,-1.0552,-1.0552,-1.0552,-1.0552,-1.0288,-0.9372,-0.9114,-0.8816,-0.7793,-0.8371,-0.9033,-0.866,-0.9134,-0.95,-0.9362,-0.9217,-0.9065,-0.8913,-0.8894,-0.8841,-0.8803,-0.8783,-0.8783,-0.8783,-0.8783,-0.8783,-0.8783,-0.8783,-0.8783,-0.8783,-0.8783,-0.8783,-0.8783,-0.8783,-0.8783,-0.8783,-0.8783,-0.8783,-0.8783,-1.0159,-1.0797,-1.0797,-1.0797,-1.0797,-0.922,-0.8417,-0.7945,-0.8691,-0.6525,0.0,-0.4895,-0.3585,-0.2482,-0.3738,-0.4155,-0.446,-0.4616,-0.5135,-0.5524,-0.5524,-0.5872,-0.7905,-1.3013,-1.4569,-1.5293,-1.5613,-1.6433,-1.6959,-1.6687,-1.6587,-1.706,-1.8478,-1.8886,-1.9505,-2.0529,-1.9628,-1.9628,-2.0994,-2.0994,-2.0994,-2.0994,-2.0762,-2.0652,-2.0652,-2.0652,-2.0652,-2.0652,-2.0652,-2.0652,-2.0652,-2.0652,-2.0652,-2.0652,-2.0652,-2.1007,-2.1483,-2.1483,-2.1483,-2.1483,-2.1483,-2.06,-1.948,-1.9121,-1.8105,-1.6961,-1.6607,-1.6357,-1.598,-1.598,-1.4836,-1.3197,-1.1816,-1.1439,-1.131,-1.0681,-1.0803,-1.0911,-1.0472,-1.0383,-1.0324,-0.9968,-1.0126,-1.0146,-0.9513,-0.9243,-0.9098,-0.9045,-0.8834,-0.8783,-0.8783,-0.8783,-0.8783,-0.8783,-0.8783,-0.8783,-0.8783,-0.8783,-0.8783,-0.8783,-0.8783,-0.8783,-0.8783,-0.8783,-0.8777,-0.8763,-0.8763,-0.8757,-0.875,-0.9298,-0.9526,-0.9526,-1.1743,-1.2807,-1.2807,-1.2807,-1.2807,-0.7839,-0.7682,-0.7516,-0.6605,-0.5883,0.0,-0.4572,-0.4036,-0.3735,0.0,-0.5266,-0.6114,-0.6142,-0.8262,-0.9958,-0.9958,-1.1384,-1.2994,-1.486,-1.6504,-1.8083,-1.944,-2.0927,-2.1694,-2.1025,-2.2184,-2.2317,-2.0477,-2.1564,-2.1929,-2.0639,-2.17,-2.2521,-2.2642,-2.2642,-2.2642,-2.2642,-2.1361,-2.0652,-2.0652,-2.0652,-2.0652,-2.0652,-2.0652,-2.0652,-2.0652,-2.0652,-2.0652,-2.0652,-2.0652,-2.22,-2.4694,-2.4694,-2.4694,-2.4694,-2.4694,-2.4678,-2.4321,-2.2868,-2.2265,-2.1901,-2.049,-1.9022,-1.7766,-1.7766,-1.6618,-1.5224,-1.5098,-1.4972,-1.4339,-1.131,-1.1552,-1.2227,-1.0454,-1.0225,-1.0271,-0.9724,-0.9823,-0.9777,-0.8933,-0.8959,-0.9032,-0.8877,-0.8803,-0.8783,-0.8783,-0.8783,-0.8783,-0.8783,-0.8783,-0.8783,-0.8783,-0.8783,-0.8783,-0.8783,-0.8783,-0.8783,-0.8783,-0.8783,-0.8757,-0.8803,-0.8796,-0.8782,-0.8742,-1.1154,-1.2385,-1.2385,-1.2701,-1.2807,-1.2807,-1.2807,-1.2807,-0.5204,-0.5659,-0.6201,-0.5657,0.0,0.0,-0.725,-0.7522,-0.7858,-0.8887,-0.951,-0.9992,-1.0089,-1.1091,-1.1945,-1.1945,-1.5301,-1.8033,-1.852,-1.9597,-2.0486,-2.1164,-2.2595,-2.3459,-2.3058,-2.3789,-2.4073,-2.3334,-2.3613,-2.3685,-2.3364,-2.3978,-2.4321,-2.4321,-2.4321,-2.4321,-2.4321,-2.3619,-2.3273,-2.3273,-2.3273,-2.3273,-2.3273,-2.3273,-2.3273,-2.3273,-2.3273,-2.3273,-2.3273,-2.3273,-2.4098,-2.5287,-2.5287,-2.5287,-2.5287,-2.5287,-2.5287,-2.5168,-2.4559,-2.4321,-2.4202,-2.3499,-2.2883,-2.2144,-2.1185,-2.0386,-1.9356,-1.7596,-1.6951,-1.6409,-1.4077,-1.3959,-1.4294,-1.3423,-1.2607,-1.1732,-1.1108,-1.0438,-0.9718,-0.895,-0.8883,-0.893,-0.8803,-0.8783,-0.8783,-0.8783,-0.8783,-0.8783,-0.8783,-0.8783,-0.8783,-0.8783,-0.8783,-0.8783,-0.8783,-0.8783,-0.8783,-0.8783,-0.8783,-0.9191,-1.0333,-0.9999,-1.0528,-1.2023,-1.2577,-1.3142,-1.3708,-1.4827,-1.5324,-1.5324,-1.5324,-1.5324,-0.3945,0.0,0.0,0.0,0.0,0.0,-1.012,-1.0666,-1.128,-1.2813,-1.3106,-1.3311,-1.3832,-1.4208,-1.4726,-1.5413,-1.8846,-2.1769,-2.2431,-2.2731,-2.287,-2.3289,-2.3987,-2.4415,-2.437,-2.4959,-2.5344,0.0,-2.5285,-2.5335,-2.5255,-2.5287,-2.5523,-2.5877,-2.586,-2.586,-2.586,-2.5523,-2.5287,-2.5287,-2.5287,-2.5287,-2.5287,-2.5287,-2.5287,-2.5287,-2.5287,-2.5743,-2.6564,-2.6564,-2.6564,-2.6564,-2.6564,-2.6564,-2.6564,-2.6564,-2.6564,-2.6447,-2.6112,-2.586,-2.5877,-2.5405,-2.5287,-2.505,-2.3963,-2.3544,-2.3006,-2.067,-1.9639,-1.8952,-1.7924,-1.6972,-1.6075,-1.5558,-1.4481,-1.3516,-1.2603,-1.0922,-0.9441,-0.889,-0.9177,-0.9504,-0.9504,-0.9725,-0.9732,-0.9305,-0.9305,-0.9205,-0.8777,-0.8783,-0.8884,-0.9198,-0.9305,-0.9412,-0.9839,-0.9839,-0.9839,-0.9839,-0.9839,-1.0585,-1.2165,-1.205,-1.2912,-1.5104,-1.441,-1.441,-1.5104,-1.6407,-1.7114,-1.7114,-1.7114,-1.7114,0.0,0.0,0.0,-0.9401,-0.9775,-1.0363,-1.2244,-1.2528,-1.2843,-1.4363,-1.4658,-1.5161,-1.6551,-1.7788,-1.9498,-2.2056,-2.2555,-2.3605,-2.6051,-2.5483,-2.5262,-2.6508,-2.5717,-2.5075,-2.5015,-2.6442,-2.6757,-2.541,-2.6664,-2.6897,-2.5405,-2.5287,-2.5995,-2.7495,-2.7512,-2.7512,-2.7512,-2.5978,-2.5287,-2.5287,-2.5287,-2.5287,-2.5287,-2.5287,-2.5287,-2.5287,-2.5287,-2.7048,-2.9842,-2.9842,-2.9842,-2.9842,-2.9842,-2.9842,-2.9842,-2.9842,-2.9842,-2.9615,-2.809,-2.7512,-2.7263,-2.5743,-2.5287,-2.5287,-2.5168,-2.5168,-2.5153,-2.505,-2.3872,-2.2618,-2.2719,-2.0329,-1.7462,-1.5417,-1.5219,-1.5097,-1.3521,-1.0885,-0.8823,-0.8723,-1.0141,-1.1356,-1.1356,-1.2137,-1.227,-1.0879,-1.0667,-1.0144,-0.8884,-0.8783,-0.9198,-1.0455,-1.0667,-1.1205,-1.2596,-1.2701,-1.2701,-1.2701,-1.2701,-1.3207,-1.4229,-1.4678,-1.5543,-1.7012,-1.7012,-1.7012,-1.7025,-1.7127,-1.7114,-1.7114,-1.7114,-1.7114,-0.4997,-0.6518,-0.8044,-0.9761,-1.223,-1.4492,-1.5143,-1.6741,-1.8233,-1.8831,-1.886,-1.906,-1.9558,-2.2712,-2.5571,-2.6458,-2.6661,-2.6935,-2.779,-2.7631,-2.7472,-2.7944,-2.8791,-2.9295,-2.9354,-3.0913,-3.1347,-2.9935,-3.0329,0.0,-2.8435,-2.8321,-2.8665,-2.9141,-2.9141,-2.9141,-2.9141,-2.8683,-2.8321,-2.8321,-2.8321,-2.8321,-2.8321,-2.8321,-2.8321,-2.8321,-2.8321,-2.8912,-2.9955,-2.9955,-2.9955,-2.9955,-2.9955,-2.9955,-2.9955,-2.9955,-2.9955,-2.9842,-2.9369,-2.9141,-2.9026,-2.855,-2.8321,-2.8205,-2.7147,-2.7495,-2.7957,-2.5877,-2.5592,-2.5795,-2.4781,-2.2868,-2.0861,-1.9159,-1.7652,-1.6147,-1.448,-1.4831,-1.4826,-1.2855,-1.2462,-1.2357,-1.2357,-1.2128,-1.1918,-1.205,-1.1302,-1.0879,-1.1425,-1.0577,-1.0569,-1.1945,-1.2165,-1.227,-1.2807,-1.2807,-1.2807,-1.2807,-1.2807,-1.3437,-1.4678,-1.4897,-1.5647,-1.7114,-1.7114,-1.7742,-1.8875,-1.8875,-1.8251,-1.7114,-1.7114,-1.7114,-0.6487,-0.8462,-1.0379,-1.2641,-1.5358,-1.7477,-1.7991,-1.9956,-2.1752,-2.2255,-2.272,-2.3182,-2.3659,-2.6407,-2.8748,-2.9102,-2.9519,-2.9931,-3.0363,-3.0018,-2.9758,-2.9758,-3.0522,-3.1171,-3.1423,-3.286,-3.3503,-3.2874,-3.2786,-3.2458,-3.1465,-3.1465,-3.1263,-3.0724,-3.0724,-3.0519,-2.9955,-2.9955,-3.0181,-3.0724,-3.0181,-3.0181,-3.0724,-3.0181,-2.9955,-2.9955,-3.05,-3.0387,-2.9955,-2.9955,-2.9955,-2.9955,-2.9955,-2.9955,-2.9955,-2.9955,-3.0294,-3.0724,-3.0724,-3.104,-3.1465,-3.1465,-3.1152,-3.05,-2.9558,-2.9577,-2.9482,-2.7495,-2.7611,-2.809,-2.6564,-2.5373,-2.4187,-2.267,-2.0657,-1.8648,-1.6534,-1.7589,-1.8175,-1.5825,-1.4839,-1.4388,-1.4388,-1.3824,-1.349,-1.3416,-1.2682,-1.2366,-1.2807,-1.206,-1.205,-1.3437,-1.3646,-1.3855,-1.4273,-1.4388,-1.4388,-1.4388,-1.4388,-1.5001,-1.6332,-1.6435,-1.7049,-1.8486,-1.8486,-1.8817,-1.9552,-1.9552,-1.8745,-1.7114,-1.7114,-1.7114,-0.9459,-1.1888,-1.4659,-1.79,-1.8996,-1.9588,-2.1,-2.2306,-2.3487,-2.4867,-2.6039,-2.7186,-2.8549,-2.8837,-2.9168,-3.0363,-3.1444,-3.244,-3.3546,-3.2768,-3.2086,-3.2086,-3.1112,-3.0821,-3.165,-3.2661,-3.3628,-3.4295,-3.4382,-3.4276,-3.4169,-3.4169,-3.3632,-3.2259,-3.2169,-3.1485,-3.0181,-3.0162,-3.0836,-3.2149,-3.0836,-3.0836,-3.2059,-3.0724,-3.0162,-3.0181,-3.1505,-3.1283,-3.0068,-2.9955,-2.9955,-2.9955,-2.9974,-3.0106,-3.0106,-3.0125,-3.1007,-3.223,-3.2189,-3.3025,-3.4191,-3.4169,-3.3329,-3.2169,-3.2169,-3.1283,-3.0162,-3.0162,-3.0068,-2.9709,-2.8188,-2.7744,-2.728,-2.5759,-2.4125,-2.2225,-1.9686,-1.908,-1.8699,-1.7426,-1.7217,-1.7217,-1.7217,-1.7114,-1.6472,-1.4771,-1.4782,-1.4492,-1.3227,-1.3017,-1.3541,-1.4909,-1.5117,-1.5647,-1.7012,-1.7114,-1.7114,-1.7114,-1.7217,-1.7803,-1.8976,-1.9076,-1.9762,-2.0921,-2.1117,-2.0542,-1.9277,-1.9277,-1.8587,-1.7319,-1.7319,-1.7319,-1.3175,-1.5874,-1.7906,-2.0683,-2.3001,-2.4754,-2.5677,-2.714,-2.8342,-2.8758,-2.8391,-2.8947,-3.1778,-3.2383,-3.2686,-3.3788,-3.4209,-3.4444,-3.4731,-3.4549,-3.4366,-3.4366,-3.4837,-3.5284,-3.558,-3.6441,-3.6737,-3.5836,-3.5836,-3.5335,-3.4276,-3.4169,-3.4062,-3.3632,-3.3632,-3.3524,-3.3091,-3.3091,-3.3308,-3.3632,-3.3308,-3.2786,-3.2039,-3.2786,-3.3091,-3.3091,-3.2369,-3.1838,-3.1505,-3.0407,-2.9955,-2.9974,-3.1169,-3.1513,-3.1646,-3.2739,-3.3313,-3.3702,-3.3685,-3.3865,-3.4257,-3.4234,-3.3955,-3.3632,-3.3632,-3.3416,-3.3091,-3.3091,-3.2348,-3.1374,-3.102,-2.9313,-2.7512,-2.7147,-2.5168,-2.332,-2.2682,-2.199,-2.1146,-1.9481,-1.9162,-1.9178,-1.9178,-1.8048,-1.6909,-1.6472,-1.5301,-1.4875,-1.5853,-1.5117,-1.5013,-1.6382,-1.6588,-1.6703,-1.7114,-1.7114,-1.7114,-1.7114,-1.8007,-1.8688,-1.9076,-1.9946,-2.064,-2.1019,-2.3018,-2.3324,-2.1997,-2.1997,-2.1313,-2.0046,-2.0046,-2.0046,-1.4856,-1.7997,-2.081,-2.367,-2.5817,-2.759,-2.8444,-3.0256,-3.1568,-3.1003,-3.1648,-3.2769,-3.4102,-3.434,-3.4497,-3.5118,-3.5577,-3.5879,-3.5879,-3.5879,-3.5879,-3.5879,-3.6962,-3.7737,-3.7737,-3.9131,-3.9572,-3.8187,-3.8087,-3.7482,-3.6171,-3.6067,-3.58,-3.513,-3.5147,-3.4914,-3.4169,-3.4169,-3.4169,-3.4169,-3.4169,-3.4169,-3.3955,-3.4169,-3.4169,-3.4169,-3.4062,-3.3632,-3.2895,-3.2128,-3.1798,-3.1928,-3.2705,-3.3056,-3.3083,-3.3883,-3.4645,-3.5103,-3.5187,-3.5544,-3.6087,-3.6113,-3.5695,-3.5108,-3.5147,-3.468,-3.4169,-3.4169,-3.3632,-3.2895,-3.2259,-3.0797,-2.9445,-2.8779,-2.6948,-2.5357,-2.4934,-2.3795,-2.2416,-2.1223,-2.0299,-1.9533,-1.8818,-1.827,-1.7803,-1.7217,-1.6266,-1.5945,-1.7012,-1.6382,-1.6163,-1.7012,-1.7613,-1.8007,-1.8007,-1.85,-1.8789,-1.8789,-1.9463,-2.0145,-2.0739,-2.1509,-2.2094,-2.2824,-2.4318,-2.4413,-2.2965,-2.2965,-2.2289,-2.1019,-2.1019,-2.1019,-1.619,-1.9602,-2.3302,-2.6681,-2.8269,-2.9489,-3.0865,-3.2839,-3.4033,-3.3013,-3.5066,-3.675,-3.5641,-3.5424,-3.5424,-3.5577,-3.6476,-3.7133,-3.7133,-3.7162,-3.7262,-3.7133,-3.8255,-3.9015,-3.8853,-4.0894,-4.1739,-4.0781,-4.0711,-4.0108,-3.8784,-3.876,-3.8131,-3.6933,-3.6701,-3.609,-3.5086,-3.483,-3.4808,-3.4808,-3.4808,-3.5335,-3.6275,-3.523,-3.4808,-3.4786,-3.5859,-3.5627,-3.4489,-3.4276,-3.4169,-3.4276,-3.4404,-3.4631,-3.4783,-3.4976,-3.5964,-3.7098,-3.7104,-3.7846,-3.8783,-3.8833,-3.7876,-3.6609,-3.6655,-3.5755,-3.4808,-3.4808,-3.4573,-3.4147,-3.2895,-3.2478,-3.2039,-3.05,-2.935,-2.8315,-2.7644,-2.591,-2.4258,-2.3528,-2.1985,-2.0224,-1.8119,-1.8646,-1.889,-1.7844,-1.7537,-1.7435,-1.7114,-1.7114,-1.7114,-1.7114,-1.8297,-1.9076,-1.9076,-2.0244,-2.1019,-2.1019,-2.1117,-2.1802,-2.2869,-2.3079,-2.3786,-2.5038,-2.5038,-2.4508,-2.3271,-2.3271,-2.2693,-2.1526,-2.1705,-2.1705,-2.1193,-2.3411,-2.5452,-2.9626,-3.1749,-3.344,-3.6219,-3.7475,-3.7907,-3.758,-3.7089,-3.6723,-3.6474,-3.6476,-3.6724,-3.765,-3.8435,-3.899,-3.899,-3.9662,-3.9819,-3.9088,-4.0235,-4.076,-4.0041,-4.1336,-4.2109,-4.1924,-4.1924,-4.1391,-4.0134,-4.0103,-4.0016,-3.9776,-3.8729,-3.8479,-3.9322,-3.8276,-3.7756,-3.7756,-3.7756,-3.7224,-3.6378,-3.7326,-3.7756,-3.7655,-3.6791,-3.6171,-3.5836,-3.4702,-3.4169,-3.4276,-3.5493,-3.6608,-3.7717,-3.8903,-4.0159,-4.1214,-4.1161,-4.0694,-4.0102,-4.0465,-3.9478,-3.8107,-3.8083,-3.7958,-3.7756,-3.7756,-3.6618,-3.5492,-3.5605,-3.4702,-3.3416,-3.2039,-3.2437,-3.3007,-3.286,-3.2286,-3.1075,-2.8749,-2.7117,-2.5149,-2.1943,-2.1053,-2.0604,-2.0306,-1.9756,-1.8773,-1.7319,-1.7114,-1.7114,-1.7114,-1.8297,-1.9076,-1.9076,-2.0244,-2.1019,-2.1019,-2.1997,-2.2676,-2.2965,-2.4109,-2.483,-2.5038,-2.5038,-2.4925,-2.4716,-2.4716,-2.4622,-2.4431,-2.5375,-2.5281,-2.3411,-2.5538,-2.7274,-2.9446,-3.1759,-3.4431,-3.775,-3.8618,-3.903,-4.0287,-3.944,-3.836,-3.7663,-3.7877,-3.8337,-3.8779,-3.965,-4.0142,-4.0148,-4.0554,-4.0678,-4.0203,-4.1359,-4.2103,-4.1926,-4.299,-4.3647,-4.3202,-4.314,-4.2605,-4.1381,-4.135,-4.1396,-4.1335,-4.0788,-4.0685,-4.1307,-4.0077,-3.9528,-3.9528,-3.8832,-3.816,-3.7529,-3.9474,-4.0442,-4.0321,-3.9691,-3.9374,-3.9374,-3.8637,-3.834,-3.8439,-3.918,-3.9808,-4.0435,-4.1082,-4.1723,-4.2201,-4.217,-4.1831,-4.1405,-4.1602,-4.0832,-3.9914,-4.025,-4.0097,-3.9853,-4.0286,-3.9403,-3.8087,-3.7522,-3.6319,-3.5019,-3.3545,-3.4098,-3.4752,-3.3788,-3.3423,-3.2828,-3.1065,-3.0175,-2.8867,-2.6099,-2.4114,-2.2465,-2.1179,-2.1112,-2.0468,-1.8703,-1.8832,-1.8947,-1.8588,-1.987,-2.0889,-2.1019,-2.2323,-2.3114,-2.3114,-2.3708,-2.3995,-2.3995,-2.4716,-2.5038,-2.5038,-2.5038,-2.5397,-2.5993,-2.5993,-2.6271,-2.6916,-2.7513,-2.7423,-2.4833,-2.7352,-2.9344,-2.9583,-3.193,-3.5099,-3.8627,-3.908,-3.9265,-4.137,-4.0865,-3.9711,-3.8518,-3.8965,-3.9445,-3.9468,-4.0335,-4.1072,-4.1058,-4.1361,-4.1438,-4.1145,-4.2612,-4.3664,-4.363,-4.4906,-4.5526,-4.4871,-4.4639,-4.3946,-4.2673,-4.2622,-4.2639,-4.265,-4.2307,-4.2309,-4.2575,-4.1414,-4.0821,-4.0824,-3.9775,-3.9328,-3.9303,-4.126,-4.2159,-4.2159,-4.2148,-4.2136,-4.2151,-4.2151,-4.219,-4.2175,-4.2175,-4.2379,-4.2584,-4.2584,-4.292,-4.3312,-4.305,-4.2912,-4.292,-4.2968,-4.2243,-4.1417,-4.2017,-4.2148,-4.2109,-4.2137,-4.156,-4.0526,-3.9451,-3.8223,-3.716,-3.6458,-3.626,-3.5948,-3.4538,-3.3932,-3.3346,-3.2162,-3.187,-3.1164,-2.8989,-2.6732,-2.4622,-2.2668,-2.2648,-2.2408,-2.1134,-2.1117,-2.1003,-2.0193,-2.1783,-2.3096,-2.3342,-2.4431,-2.5038,-2.5038,-2.5038,-2.5038,-2.5038,-2.5302,-2.5565,-2.5846,-2.5846,-2.6271,-2.722,-2.722,-2.7673,-2.857,-2.8837,-2.8837,-2.6559,-2.933,-3.1861,-3.2899,-3.4855,-3.7422,-4.1037,-4.0601,-3.9597,-4.0311,-3.9931,-3.9266,-3.8483,-3.8945,-3.9437,-3.9463,-4.0804,-4.187,-4.1893,-4.2984,-4.338,-4.2019,-4.4683,-4.6122,-4.4878,-4.6273,-4.7249,-4.712,-4.6223,-4.5157,-4.4058,-4.3901,-4.396,-4.3931,-4.2773,-4.2716,-4.3903,-4.2678,-4.2031,-4.2049,-4.1951,-4.1805,-4.1898,-4.2099,-4.2179,-4.2234,-4.2197,-4.2138,-4.216,-4.216,-4.2178,-4.2175,-4.2175,-4.2932,-4.397,-4.397,-4.5184,-4.6846,-4.5926,-4.5467,-4.5415,-4.5481,-4.3968,-4.2109,-4.2175,-4.3696,-4.5028,-4.2828,-4.2136,-4.2017,-4.1885,-4.1221,-4.0903,-4.2391,-4.0455,-3.8224,-3.8016,-3.6964,-3.5234,-3.2419,-3.1896,-3.1188,-2.8923,-2.7752,-2.7047,-2.6867,-2.5551,-2.466,-2.4617,-2.3228,-2.1869,-2.0923,-2.321,-2.4843,-2.4843,-2.4962,-2.5038,-2.5038,-2.5038,-2.5038,-2.5038,-2.6086,-2.715,-2.8235,-2.8235,-2.8324,-2.8392,-2.8392,-2.8503,-2.857,-2.9693,-2.9606,-2.7482,-3.0015,-3.2309,-3.3392,-3.5232,-3.7172,-3.8557,-4.022,-4.1517,-4.1691,-4.2337,-4.2197,-4.0187,-4.0438,-4.0958,-4.0984,-4.2292,-4.3247,-4.3247,-4.4939,-4.593,-4.5296,-4.726,-4.8407,-4.7707,-4.8222,-4.8253,-4.7495,-4.7005,-4.6305,-4.5243,-4.5183,-4.5207,-4.5207,-4.4666,-4.4666,-4.5207,-4.3987,-4.3299,-4.3314,-4.2502,-4.2986,-4.4381,-4.4413,-4.4442,-4.4414,-4.5127,-4.5327,-4.5414,-4.6015,-4.6248,-4.6277,-4.6327,-4.657,-4.7042,-4.7039,-4.7586,-4.8345,-4.7881,-4.773,-4.7581,-4.7248,-4.6759,-4.6005,-4.4783,-4.5121,-4.5828,-4.5746,-4.4433,-4.3244,-4.4098,-4.3471,-4.2913,-4.4318,-4.2658,-4.057,-4.0139,-3.9523,-3.8745,-3.738,-3.6022,-3.4682,-3.3681,-3.1127,-2.9077,-2.8814,-2.7863,-2.7262,-2.7807,-2.7234,-2.6496,-2.5657,-2.656,-2.66,-2.5191,-2.5084,-2.505,-2.505,-2.5093,-2.5752,-2.7079,-2.7604,-2.8124,-2.857,-2.857,-2.8925,-2.9606,-2.9606,-2.9977,-3.069,-3.114,-3.1117,-2.8069,-3.0549,-3.2824,-3.4208,-3.6049,-3.7564,-3.7564,-3.9948,-4.2233,-4.249,-4.3749,-4.413,-4.1895,-4.2097,-4.2615,-4.2635,-4.3466,-4.4125,-4.4125,-4.6225,-4.7653,-4.745,-4.937,-5.0525,-5.0226,-5.003,-4.9599,-4.8716,-4.788,-4.7094,-4.6379,-4.6065,-4.5864,-4.5864,-4.5864,-4.5864,-4.5864,-4.5065,-4.4671,-4.464,-4.3703,-4.4496,-4.6755,-4.6755,-4.6771,-4.6878,-4.7567,-4.787,-4.7913,-4.8712,-4.9004,-4.8978,-4.9004,-4.8991,-4.896,-4.9,-4.9165,-4.9371,-4.9112,-4.9155,-4.9328,-4.8814,-4.8795,-4.869,-4.7253,-4.7222,-4.7753,-4.8195,-4.6801,-4.5365,-4.6131,-4.5748,-4.5214,-4.554,-4.5293,-4.4613,-4.2822,-4.1863,-4.1567,-4.2058,-4.0491,-3.8565,-3.6979,-3.4205,-3.1877,-3.1011,-3.0441,-3.0127,-3.038,-3.0403,-2.9939,-2.8683,-3.03,-3.0257,-2.7383,-2.6466,-2.5772,-2.5139,-2.5756,-2.6988,-2.8992,-2.9102,-2.9278,-2.9629,-2.9629,-2.9977,-3.0838,-3.0838,-3.1286,-3.2115,-3.2115,-3.2115,-2.8473,-3.1169,-3.4084,-3.6197,-3.8099,-3.9421,-3.9421,-4.0139,-4.1082,-4.1866,-4.3122,-4.3927,-4.3115,-4.3565,-4.4125,-4.4092,-4.4125,-4.4125,-4.4125,-4.66,-4.815,-4.7519,-5.0645,-5.2612,-5.2077,-5.1763,-5.1498,-5.1518,-4.8968,-4.7473,-4.736,-4.6466,-4.5864,-4.5864,-4.5864,-4.5864,-4.5864,-4.5864,-4.5864,-4.5894,-4.5864,-4.6927,-4.8981,-4.8981,-4.8968,-4.8951,-4.8951,-4.9,-4.8976,-4.8959,-4.9019,-4.8951,-4.8951,-4.8951,-4.8951,-4.9025,-4.9626,-5.0356,-4.9342,-4.9657,-5.0451,-5.0066,-4.9518,-4.9025,-4.892,-5.0274,-5.1435,-4.9518,-4.892,-4.8752,-4.8168,-4.846,-4.8389,-4.6361,-4.8904,-5.0702,-4.6682,-4.3914,-4.2857,-4.5319,-4.4543,-4.2001,-3.7505,-3.6725,-3.5977,-3.386,-3.3469,-3.2991,-3.2003,-3.1861,-3.1024,-2.8762,-3.4359,-3.6534,-3.2379,-2.9903,-2.7557,-2.5252,-2.7273,-2.9102,-3.03,-3.03,-3.0838,-3.2008,-3.2008,-3.2032,-3.2032,-3.2032,-3.2008,-3.2115,-3.2115,-3.2115,-2.8725,-3.1669,-3.4274,-3.6979,-3.8554,-3.9816,-4.0926,-4.1866,-4.35,-4.663,-4.6111,-4.4972,-4.4724,-4.407,-4.3686,-4.4059,-4.4498,-4.5038,-4.5766,-4.8865,-5.098,-5.078,-5.373,-5.5388,-5.4347,-5.3714,-5.2887,-5.1567,-5.0285,-4.8965,-4.7473,-4.7129,-4.6638,-4.5894,-4.5864,-4.5864,-4.5864,-4.5864,-4.6236,-4.6898,-4.6922,-4.77,-4.9011,-4.9011,-4.8998,-4.9025,-4.973,-5.0038,-5.0079,-5.069,-5.0955,-5.1017,-5.1017,-5.1017,-5.1017,-5.1017,-5.1185,-5.1418,-5.1117,-5.1218,-5.145,-5.1347,-5.1114,-5.1017,-5.1017,-5.1377,-5.1773,-5.1114,-4.8997,-4.7473,-5.0025,-5.0207,-4.9705,-4.9908,-4.8858,-4.7425,-4.6168,-4.5244,-4.4968,-4.5727,-4.4244,-4.2407,-4.0983,-3.8617,-3.6752,-3.611,-3.5181,-3.4496,-3.4209,-3.455,-3.4209,-3.2587,-3.3421,-3.3524,-3.2211,-3.1375,-3.0631,-2.9753,-3.1807,-3.3283,-3.3629,-3.3629,-3.3814,-3.4183,-3.4183,-3.4183,-3.4183,-3.4183,-3.4183,-3.4183,-3.4183,-3.4183,-2.8564,-3.1741,-3.4418,-3.7819,-3.9325,-4.0394,-4.21,-4.2971,-4.4124,-4.682,-4.5907,-4.4838,-4.5373,-4.5907,-4.652,-4.7052,-4.719,-4.7325,-4.7581,-5.0297,-5.2582,-5.3382,-5.5668,-5.6841,-5.6023,-5.5118,-5.4008,-5.2617,-5.1534,-5.0233,-4.8714,-4.821,-4.7748,-4.707,-4.6667,-4.6466,-4.6466,-4.6065,-4.6755,-4.8658,-4.8637,-4.9136,-5.0118,-5.0118,-5.0105,-5.0149,-5.0764,-5.1037,-5.1106,-5.1949,-5.2365,-5.2365,-5.2645,-5.2769,-5.2769,-5.2769,-5.2769,-5.2769,-5.2769,-5.2769,-5.2769,-5.2769,-5.2769,-5.2802,-5.2964,-5.2998,-5.307,-5.348,-5.1227,-4.9236,-5.1321,-5.1555,-5.1355,-5.1826,-4.9975,-4.7975,-4.7212,-4.7088,-4.6837,-4.5998,-4.4783,-4.3684,-4.3266,-4.0849,-3.878,-3.7819,-3.6951,-3.6179,-3.5804,-3.6119,-3.6167,-3.5782,-3.4453,-3.3839,-3.4411,-3.3713,-3.3293,-3.3542,-3.4913,-3.5577,-3.5195,-3.5195,-3.5195,-3.5195,-3.5195,-3.5195,-3.5195,-3.5195,-3.5195,-3.5195,-3.5195,-3.5195,-2.7848,-3.1483,-3.4573,-3.8462,-4.0075,-4.1173,-4.2915,-4.3368,-4.3401,-4.3444,-4.3518,-4.3925,-4.5246,-4.8395,-5.1014,-5.1591,-5.1229,-5.0564,-4.9566,-5.1421,-5.3565,-5.5404,-5.6689,-5.7345,-5.7169,-5.5987,-5.4964,-5.4368,-5.2636,-5.1313,-5.0669,-4.9633,-4.9037,-4.9014,-4.8032,-4.7493,-4.7532,-4.6525,-4.7641,-5.0558,-5.0514,-5.1031,-5.1883,-5.1883,-5.1916,-5.1949,-5.1949,-5.2014,-5.2111,-5.283,-5.316,-5.3219,-5.3915,-5.4228,-5.4228,-5.4228,-5.4228,-5.4228,-5.4228,-5.4228,-5.4228,-5.4228,-5.4228,-5.4262,-5.4682,-5.4786,-5.4985,-5.5978,-5.4974,-5.3388,-5.2475,-5.2905,-5.3328,-5.2303,-5.2057,-5.1515,-4.9584,-4.9131,-4.8478,-4.654,-4.6109,-4.5755,-4.47,-4.3372,-4.1641,-3.9371,-3.8567,-3.7921,-3.6944,-3.6871,-3.7262,-3.8175,-3.7124,-3.6869,-3.8152,-3.6606,-3.5761,-3.6366,-3.6717,-3.6476,-3.5501,-3.5424,-3.5424,-3.5424,-3.5424,-3.5424,-3.5424,-3.5424,-3.5424,-3.5424,-3.5424,-3.5424,-2.5263,-3.0145,-3.443,-3.8318,-3.9468,-4.024,-4.277,-4.3368,-4.3641,-4.4767,-4.4979,-4.5092,-4.5463,-4.6633,-4.7509,-4.7511,-5.0285,-5.2452,-5.2191,-5.5723,-5.8181,-5.7689,-5.9007,-5.9214,-5.732,-5.6343,-5.5558,-5.4992,-5.3601,-5.2255,-5.1361,-5.0601,-4.9772,-4.8965,-4.8736,-4.8609,-4.8604,-4.8371,-4.9044,-5.0539,-5.057,-5.1031,-5.1883,-5.1883,-5.2212,-5.2837,-5.2837,-5.312,-5.3692,-5.3881,-5.3949,-5.4005,-5.4173,-5.4228,-5.4228,-5.4228,-5.4228,-5.4228,-5.4228,-5.4228,-5.4228,-5.4228,-5.4228,-5.4228,-5.4386,-5.4558,-5.4889,-5.5122,-5.5013,-5.4861,-5.5192,-5.4948,-5.4371,-5.3859,-5.3673,-5.3259,-5.1553,-5.0428,-4.9551,-4.9144,-4.8619,-4.8172,-4.7864,-4.6101,-4.4158,-4.2607,-4.0019,-3.8194,-3.795,-3.7963,-3.8034,-3.8274,-3.7994,-3.7925,-3.831,-3.8659,-3.8858,-3.8701,-3.8779,-3.8475,-3.755,-3.7579,-3.7579,-3.7579,-3.7579,-3.7579,-3.7579,-3.7579,-3.7579,-3.7579,-3.7579,-3.7579,-2.1556,-2.7483,-3.2553,-3.5461,-3.7742,-3.9891,-4.2217,-4.3059,-4.3543,-4.4307,-4.4498,-4.4719,-4.538,-4.6809,-4.8204,-4.878,-5.1467,-5.3659,-5.4085,-5.6362,-5.8462,-5.969,-5.9753,-5.9455,-5.8906,-5.7428,-5.6268,-5.561,-5.4633,-5.3545,-5.2279,-5.1892,-5.1251,-5.0312,-4.9888,-4.9736,-4.9724,-5.008,-5.0818,-5.1687,-5.1326,-5.181,-5.2952,-5.26,-5.2865,-5.3601,-5.3625,-5.3844,-5.4257,-5.457,-5.4679,-5.4732,-5.5077,-5.5214,-5.5214,-5.5214,-5.5214,-5.5214,-5.5214,-5.5214,-5.5214,-5.5214,-5.5214,-5.5214,-5.5214,-5.5369,-5.5564,-5.5515,-5.5618,-5.573,-5.5647,-5.5324,-5.4882,-5.4348,-5.3964,-5.3484,-5.2766,-5.1717,-5.0618,-4.97,-4.9206,-4.8987,-4.8982,-4.6908,-4.4752,-4.3144,-4.0735,-3.9123,-3.9072,-3.9311,-3.9481,-3.9481,-3.9473,-3.9538,-3.9795,-4.0189,-4.0231,-3.9732,-3.9919,-3.9538,-3.8329,-3.8299,-3.8284,-3.8279,-3.8279,-3.8289,-3.8274,-3.8274,-3.8274,-3.8274,-3.8274,-3.8523,-1.7379,-2.3612,-2.8821,-3.1449,-3.5441,-3.9317,-4.1533,-4.2681,-4.3368,-4.3368,-4.3368,-4.3686,-4.4972,-4.7198,-4.9435,-5.1136,-5.2368,-5.3802,-5.555,-5.6208,-5.7765,-6.1208,-5.9955,-5.9241,-6.0362,-5.8582,-5.7025,-5.6223,-5.5624,-5.4697,-5.3333,-5.3125,-5.269,-5.1949,-5.1129,-5.0769,-5.0769,-5.1522,-5.231,-5.31,-5.2372,-5.2824,-5.422,-5.3591,-5.3691,-5.4394,-5.44,-5.4454,-5.4608,-5.5179,-5.5343,-5.5477,-5.6105,-5.6359,-5.6359,-5.6359,-5.6359,-5.6404,-5.6493,-5.6457,-5.6457,-5.6457,-5.6413,-5.6359,-5.6359,-5.6359,-5.6375,-5.6357,-5.6403,-5.6187,-5.5294,-5.5198,-5.5166,-5.4397,-5.379,-5.3304,-5.3236,-5.2679,-5.1588,-4.9791,-4.94,-4.9429,-4.9449,-4.7578,-4.5368,-4.2944,-4.0987,-3.9876,-4.0037,-4.0425,-4.0741,-4.0803,-4.0958,-4.1145,-4.1551,-4.1176,-4.0833,-4.0583,-4.0801,-4.0274,-3.8823,-3.8638,-3.8568,-3.8659,-3.8629,-3.8507,-3.8454,-3.8534,-3.8534,-3.8454,-3.8661,-3.9012,-1.3741,-1.763,-2.1676,-2.785,-3.2931,-3.7459,-4.1167,-4.2681,-4.3368,-4.3368,-4.3368,-4.3401,-4.3653,-4.4391,-4.5666,-4.7793,-4.8772,-5.1164,-5.6743,-5.9847,-6.1534,-6.1617,-6.1345,-6.0471,-5.8869,-5.8365,-5.7798,-5.7022,-5.6259,-5.5314,-5.4104,-5.3421,-5.2735,-5.1949,-5.1785,-5.1654,-5.1654,-5.1818,-5.231,-5.3067,-5.2957,-5.338,-5.4232,-5.41,-5.4416,-5.5061,-5.5023,-5.5442,-5.6095,-5.6187,-5.6187,-5.6233,-5.6359,-5.6359,-5.6359,-5.6359,-5.6359,-5.6413,-5.685,-5.7014,-5.7014,-5.7014,-5.676,-5.6359,-5.6359,-5.6359,-5.6359,-5.6375,-5.6385,-5.6359,-5.6187,-5.6141,-5.586,-5.4584,-5.4402,-5.4096,-5.2485,-5.2687,-5.287,-5.1654,-5.1424,-5.1457,-5.1456,-5.115,-4.9434,-4.5248,-4.1176,-3.8931,-3.9876,-4.0146,-4.0305,-4.0803,-4.1416,-4.1755,-4.1645,-4.154,-4.1882,-4.2761,-4.1998,-4.1339,-4.1121,-4.0242,-3.9995,-4.0428,-4.0025,-3.961,-3.9318,-3.9607,-3.9637,-3.9318,-4.0105,-4.0489,-0.867,-1.4186,-2.0266,-2.7177,-3.2421,-3.7028,-4.1075,-4.2919,-4.3789,-4.3789,-4.4403,-4.5002,-4.5002,-4.5237,-4.6389,-4.9429,-5.0492,-5.236,-5.652,-5.872,-6.0253,-6.1077,-6.0635,-6.0213,-6.0099,-5.9009,-5.8162,-5.7834,-5.7067,-5.6207,-5.5252,-5.4234,-5.3338,-5.2554,-5.211,-5.2113,-5.254,-5.254,-5.309,-5.4244,-5.3858,-5.4293,-5.5392,-5.4954,-5.5167,-5.5848,-5.6136,-5.6481,-5.6808,-5.7022,-5.6982,-5.6802,-5.6802,-5.6632,-5.6404,-5.6718,-5.6802,-5.685,-5.7332,-5.7443,-5.7443,-5.7443,-5.7295,-5.7101,-5.685,-5.6802,-5.6808,-5.6783,-5.6603,-5.6359,-5.6359,-5.6359,-5.6207,-5.5565,-5.5062,-5.4642,-5.3863,-5.3114,-5.2737,-5.3059,-5.2506,-5.1896,-5.1883,-5.1915,-5.119,-4.9106,-4.4354,-4.1208,-4.1739,-4.1834,-4.192,-4.2191,-4.2511,-4.2665,-4.2564,-4.2543,-4.2817,-4.3313,-4.2817,-4.2584,-4.2584,-4.2056,-4.1946,-4.2165,-4.1315,-4.0801,-4.0608,-4.0242,-4.0086,-4.0203,-4.0366,-4.0709,-0.6047,0.0,-2.1738,-2.8399,-3.3733,-3.8299,0.0,-4.3511,-4.4223,-4.3997,-4.4766,-4.5347,-4.5149,-4.5292,-4.6532,-4.9885,-5.1493,-5.3056,-5.5209,-5.6716,-5.8423,-6.0569,-6.0178,-6.0196,-6.1514,-5.9738,-5.847,-5.8315,-5.7659,-5.6901,-5.6048,-5.4906,-5.3904,-5.3093,-5.2624,-5.2766,-5.3364,-5.3338,-5.3994,-5.5202,-5.4679,-5.5124,-5.6359,-5.5751,-5.586,-5.656,-5.6978,-5.7176,-5.7294,-5.7623,-5.7552,-5.7292,-5.7292,-5.7058,-5.673,-5.7101,-5.7292,-5.7332,-5.7724,-5.7854,-5.7854,-5.7854,-5.7825,-5.7656,-5.7369,-5.7332,-5.7407,-5.7334,-5.7028,-5.6724,-5.676,-5.6796,-5.6753,-5.6696,-5.6019,-5.5412,-5.5481,-5.4143,-5.3272,-5.4497,-5.3159,-5.1918,-5.1907,-5.1911,-5.1911,-5.1911,-4.8151,-4.5209,-4.4889,-4.4882,-4.4684,-4.4155,-4.3651,-4.3366,-4.3368,-4.3572,-4.3698,-4.3572,-4.3765,-4.3904,-4.3904,-4.3718,-4.3599,-4.3599,-4.2832,-4.2349,-4.2308,-4.129,-4.0985,-4.1393,-4.0985,-4.122,0.0,-1.7684,-2.583,-3.1854,-3.7374,-4.196,-4.4308,-4.4874,0.0,-4.3739,-4.294,-4.2111,-4.1391,-4.1815,-4.3028,-4.5242,-4.8093,-5.0707,-5.2846,-5.5471,-5.8099,-6.0548,-6.12,-6.1481,-6.1593,-6.0037,-5.8858,-5.8345,-5.7928,-5.7198,-5.6018,-5.4875,-5.3844,-5.3066,-5.3713,-5.4077,-5.419,-5.4175,-5.4492,-5.5207,-5.5172,-5.5582,-5.6359,-5.6314,-5.6567,-5.7112,-5.714,-5.7369,-5.769,-5.7724,-5.7724,-5.769,-5.769,-5.7656,-5.7656,-5.769,-5.769,-5.7758,-5.8137,-5.8284,-5.8284,-5.8284,-5.8014,-5.7724,-5.769,-5.7951,-5.8167,-5.7789,-5.7654,-5.7692,-5.7912,-5.7985,-5.7916,-5.7686,-5.7433,-5.6978,-5.6438,-5.6156,-5.6056,-5.6202,-5.3868,-5.1892,-5.1898,-5.1932,-5.1932,-5.1932,-5.152,-5.0818,-4.9441,-4.9342,-4.855,-4.663,-4.4552,-4.3323,-4.3356,-4.4366,-4.4701,-4.4115,-4.4974,-4.5476,-4.5476,-4.4834,-4.4432,-4.4432,-4.4719,-4.4674,-4.4317,-4.3518,-4.3119,-4.3144,-4.3143,-4.3137,-1.3505,-2.1808,-2.8896,-3.5015,-3.9811,-4.3509,-4.5473,-4.6223,-4.602,-4.4594,-4.2984,-4.1551,-4.0616,-4.0478,-4.1974,-4.6323,-4.8546,-5.1178,-5.5233,-5.6708,-5.7751,-5.8783,-5.9594,-6.0061,-6.0061,-5.9463,-5.9005,-5.8833,-5.835,-5.7795,-5.7143,-5.5953,-5.5034,-5.4436,-5.4312,-5.4417,-5.4836,-5.4846,-5.5191,-5.5922,-5.5922,-5.6109,-5.6359,-5.6689,-5.6939,-5.7174,-5.7662,-5.7961,0.0,-5.8444,-5.8387,-5.8107,-5.8107,-5.7951,-5.7758,-5.8014,-5.8107,-5.8167,-5.8606,-5.8809,-5.8809,-5.8809,-5.8707,-5.8563,-5.8563,-5.867,-5.8696,-5.8263,-5.7919,-5.7724,-5.7868,-5.7905,-5.7837,-5.777,-5.7807,-5.7662,-5.6982,-5.7054,-5.7072,-5.6472,-5.548,-5.4668,-5.4713,-5.3119,-5.2528,-5.4428,-5.4658,-5.4505,-5.3967,-5.2324,-4.9497,-4.5072,-4.4524,-4.4436,-4.4431,-4.4578,-4.4731,-4.4715,-4.5086,-4.5442,-4.5649,-4.519,-4.5006,-4.5224,-4.519,-4.483,-4.43,-4.4148,-4.3811,-4.3353,-4.334,-4.3338,-2.0281,-2.7799,-3.3899,-3.9336,-4.3132,-4.586,-4.7093,-4.7364,-4.6618,-4.4251,-4.1906,-3.9802,-3.8199,-3.7489,-3.898,-4.4763,-4.7327,-5.034,-5.531,-5.6877,-5.7811,-5.8427,-5.9077,-5.9578,-5.9874,-5.9388,-5.9089,-5.9089,-5.8598,-5.8147,-5.7775,-5.6641,-5.5898,-5.5807,-5.5218,-5.512,-5.5556,-5.5556,-5.5851,-5.6359,-5.6359,-5.6359,-5.6359,-5.6913,-5.7205,-5.737,-5.8042,-5.8387,-5.858,-5.8944,-5.8896,-5.858,-5.858,-5.8378,-5.8211,-5.8471,-5.858,-5.8606,-5.8981,-5.9089,-5.9089,-5.9089,-5.9089,-5.9089,-5.9089,-5.9089,-5.9028,-5.867,-5.8387,-5.8144,-5.8144,-5.8144,-5.8113,-5.7988,-5.803,-5.7975,-5.729,-5.739,-5.7365,-5.6498,-5.6371,-5.6382,-5.6352,-5.4712,-5.4051,-5.6071,-5.6382,-5.6399,-5.6378,-5.4646,-5.1323,-4.5704,-4.4789,-4.457,-4.457,-4.501,-4.5314,-4.5277,-4.5523,-4.5827,-4.608,-4.5827,-4.5827,-4.608,-4.5827,-4.5381,-4.4749,-4.4933,-4.4699,-4.406,-4.3963,-4.4092,-2.9095,-3.5949,-4.135,-4.4997,-4.765,-4.9373,-4.9408,-4.817,-4.6051,-4.2575,-3.9161,-3.6049,-3.3336,-3.2198,-3.3551,-3.923,-4.3608,-4.7745,-5.2032,-5.5441,-5.8189,-5.9999,-6.0214,-6.0617,-6.1507,-6.0084,-5.9089,-5.9089,-5.8603,-5.8169,-5.7735,-5.6674,-5.6383,-5.7151,-5.6688,-5.6439,-5.6395,-5.6395,-5.6359,-5.6395,-5.6404,-5.6404,-5.6359,-5.6913,-5.7375,-5.7755,-5.8167,-5.8606,-5.9089,-5.9089,-5.9089,-5.9089,-5.9089,-5.9089,-5.9089,-5.9089,-5.9089,-5.9089,-5.9089,-5.9089,-5.9089,-5.9089,-5.9089,-5.9089,-5.9089,-5.9089,-5.9089,-5.9089,-5.9089,-5.9089,-5.9089,-5.9089,-5.8944,-5.8462,-5.8313,-5.8107,-5.7332,-5.7246,-5.7158,-5.6493,-5.6379,-5.6378,-5.6378,-5.6378,-5.6378,-5.6378,-5.6356,-5.6359,-5.6359,-5.6322,-5.447,-4.9587,-4.5713,-4.3443,-4.3408,-4.563,-4.6651,-4.5774,-4.6538,-4.7021,-4.7021,-4.7021,-4.7021,-4.7021,-4.7021,-4.6757,-4.6054,-4.6054,-4.594,-4.5649,-4.5259,-4.5799,-3.3514,-3.9504,-4.3882,-4.6383,-4.8856,-5.0821,-5.1213,-4.9074,-4.667,-4.5463,-3.9794,-3.457,-3.2875,-3.0826,-3.1076,-3.6251,-4.0014,-4.4394,-5.0472,-5.3537,-5.6005,-5.8209,-5.8455,-5.882,-5.9752,-5.9388,-5.9089,-5.9089,-5.8939,-5.8659,-5.8145,-5.8951,-5.9214,-5.881,-5.9692,-6.0002,-5.965,-5.858,-5.7999,-5.7999,-5.7246,-5.6922,-5.6913,-5.7644,-5.8042,-5.816,-5.866,-5.8944,-5.9089,-5.9089,-5.9089,-5.9089,-5.9089,-5.986,-6.0719,-5.956,-5.986,-6.0719,-5.95,-5.9089,-5.9089,-5.9089,-5.9089,-5.9089,-5.9089,-5.9089,-5.9089,-5.9089,-5.9089,-5.9089,-5.9089,-5.9089,-5.9028,-5.8896,-5.8834,-5.8696,-5.8076,-5.802,-5.7829,-5.7058,-5.6988,-5.6919,-5.6436,-5.639,-5.639,-5.639,-5.6375,-5.6359,-5.6359,-5.4426,-5.3393,-5.4105,-5.3186,-5.1179,-4.788,-4.7261,-4.691,-4.6651,-4.691,-4.7021,-4.7021,-4.7021,-4.7021,-4.7021,-4.7021,-4.6757,-4.6054,-4.6054,-4.5801,-4.5259,-4.5442,-4.5737,-3.8422,-4.254,-4.5499,-4.7407,-4.9211,-5.0683,-5.1522,-4.9405,-4.7057,-4.6394,-4.0955,-3.5727,-3.3778,-3.1568,-3.1575,-3.6226,-3.9818,-4.408,-5.0084,-5.3287,-5.5755,-5.7515,-5.7724,-5.8082,-5.9005,-5.9089,-5.9089,-5.9089,-5.9089,-5.9504,-6.0493,-6.1413,-6.1677,-6.106,-6.1553,-6.1686,-6.1358,-6.0184,-5.965,-5.965,-5.918,-5.869,-5.8132,-5.8938,-5.8966,-5.8361,-5.9578,-5.9747,-5.9224,-5.986,-6.0137,-6.0151,-6.0114,-6.117,-6.2556,-6.1576,-6.1863,-6.2541,-6.0849,-6.0267,-6.0154,-5.94,-5.9665,-6.0116,-5.944,-5.9214,-5.9172,-5.9172,-5.9126,-5.9089,-5.9089,-5.9089,-5.9089,-5.9089,-5.9089,-5.8981,-5.8434,-5.8313,-5.8137,-5.7516,-5.7362,-5.7198,-5.6832,-5.6537,-5.6359,-5.6359,-5.6359,-5.6359,-5.6359,-5.4702,-5.3963,-5.5035,-5.6187,-5.5295,-5.1164,-4.943,-4.8238,-4.7409,-4.731,-4.7277,-4.7277,-4.7132,-4.7021,-4.7021,-4.7021,-4.6834,-4.6451,-4.6451,-4.6254,-4.5851,-4.6103,-4.6236,-4.3265,-4.5132,-4.6492,-4.8211,-4.8887,-4.9592,-5.1071,-4.9446,-4.7341,-4.6344,-4.284,-3.8928,-3.5643,-3.3915,-3.4218,-3.8131,-4.1741,-4.5618,-5.0309,-5.397,-5.6544,-5.7625,-5.7724,-5.8082,-5.9005,-5.9089,-5.9126,-5.9313,-5.9313,-6.063,-6.3619,-6.3829,-6.3773,-6.3614,-6.2819,-6.2339,-6.2213,-6.1646,-6.1317,-6.1317,-6.1715,-6.1172,-5.987,-6.0701,-6.0306,-5.8922,-6.0972,-6.1065,-5.9868,-6.1148,-6.1807,-6.2021,-6.1743,-6.2839,-6.4525,-6.44,-6.4551,-6.4497,-6.2833,-6.2228,-6.1939,-6.0113,-6.0677,-6.172,-5.9984,-5.9417,-5.9318,-5.9318,-5.9233,-5.9141,-5.9119,-5.9097,-5.9097,-5.9112,-5.9089,-5.8944,-5.8489,-5.8407,-5.8255,-5.7891,-5.7625,-5.7399,-5.7396,-5.688,-5.6501,-5.6448,-5.6448,-5.6448,-5.6404,-5.6368,-5.5663,-5.3849,-5.6132,-5.6526,-5.3536,-5.1884,-5.016,-4.8187,-4.7973,-4.7824,-4.7679,-4.7311,-4.7169,-4.7169,-4.7169,-4.7132,-4.7095,-4.7132,-4.7132,-4.7021,-4.7058,-4.7058,-4.5665,-4.7035,-4.8152,-4.8642,-4.9048,-5.008,-5.3028,-5.0477,-4.7851,-4.9346,-4.5661,-4.1229,-3.7722,-3.6584,-3.6561,-3.7774,-4.0734,-4.4536,-4.9136,-5.2623,-5.5404,-5.7515,-5.7724,-5.8082,-5.9005,-5.9089,-5.9635,-6.0981,-6.1093,-6.1443,-6.2361,-6.4703,-6.5779,-6.5365,-6.6311,-6.6417,-6.5465,-6.4136,-6.3477,-6.3477,-6.2765,-6.2451,-6.2532,-6.305,-6.3125,-6.2789,-6.3478,-6.3575,-6.3181,-6.2304,-6.2682,-6.3666,-6.2408,-6.3645,-6.6026,-6.4892,-6.5366,-6.6265,-6.4561,-6.3979,-6.3715,-6.2002,-6.1752,-6.183,-6.0017,-5.9469,-5.9432,-5.9432,-5.9406,-5.9388,-5.925,-5.9252,-5.9233,-5.9119,-5.9089,-5.9052,-5.8944,-5.892,-5.8784,-5.8321,-5.8137,-5.7988,-5.7692,-5.7552,-5.7333,-5.7054,-5.7045,-5.6958,-5.6448,-5.6395,-5.6479,-5.6751,-5.7535,-5.7183,-5.5072,-5.2838,-5.1077,-5.0013,-4.9925,-4.9383,-4.8109,-4.8014,-4.7954,-4.7954,-4.7954,-4.7801,-4.7517,-4.7801,-4.7647,-4.7021,-4.7346,-4.7311,-4.7344,-4.8068,-4.8648,-4.8922,-4.9108,-4.991,-5.2215,-5.0085,-4.8317,-5.0786,-4.8352,-4.5117,-4.3139,-4.2599,-4.2427,-4.2201,-4.431,-4.7173,-5.0508,-5.3106,-5.5481,-5.7514,-5.7724,-5.8082,-5.9005,-5.9089,-5.9493,-6.043,-6.0468,-6.1691,-6.4394,-6.6034,-6.7057,-6.7468,-6.8015,-6.8016,-6.7327,-6.628,-6.5754,-6.5717,-6.5426,-6.5041,-6.4488,-6.5007,-6.4841,-6.4187,-6.5204,-6.5203,-6.4509,-6.444,-6.447,-6.4498,-6.4475,-6.5463,-6.6955,-6.7027,-6.766,-6.819,-6.6522,-6.5928,-6.5776,-6.4903,-6.409,-6.3195,-6.1495,-6.0313,-5.9592,-5.9592,-5.9508,-5.9469,-5.9417,-5.9403,-5.9344,-5.9233,-5.9192,-5.9172,-5.9097,-5.9089,-5.9005,-5.8721,-5.8489,-5.8255,-5.8045,-5.7854,-5.7656,-5.7443,-5.748,-5.7405,-5.7061,-5.7188,-5.7498,-5.7946,-5.833,-5.7878,-5.6107,-5.4783,-5.356,-5.2374,-5.1367,-5.0449,-4.9637,-4.8702,-4.8215,-4.8215,-4.8215,-4.8101,-4.7894,-4.8101,-4.7984,-4.7614,-4.7838,-4.7711,-4.8458,-4.8693,-4.8795,-4.9109,-4.9185,-4.9499,-5.0802,-4.957,-4.8861,-5.1218,-5.0575,-4.9282,-4.854,-4.8748,-4.9015,-4.8621,-5.022,-5.1981,-5.3471,-5.5261,-5.6769,-5.7516,-5.769,-5.8051,-5.8896,-5.9037,-5.9285,-5.9681,-5.9781,-6.1863,-6.661,-6.7036,-6.7813,-6.9239,-6.8876,-6.8548,-6.8261,-6.7818,-6.7557,-6.7595,-6.8032,-6.7529,-6.6288,-6.6845,-6.6417,-6.5286,-6.6842,-6.6799,-6.57,-6.6695,-6.6522,-6.5708,-6.6738,-6.7358,-6.7877,-6.9287,-6.9895,-6.9781,-6.8376,-6.7883,-6.7845,-6.7541,-6.6288,-6.4617,-6.3061,-6.1269,-5.9721,-5.9721,-5.9676,-5.9594,-5.9536,-5.9525,-5.9493,-5.9359,-5.935,-5.9284,-5.9168,-5.9141,-5.9119,-5.9112,-5.8721,-5.8462,-5.8462,-5.8204,-5.7956,-5.7858,-5.7822,-5.7825,-5.7758,-5.8174,-5.8462,-5.8462,-5.8834,-5.8551,-5.713,-5.7018,-5.6308,-5.4737,-5.3024,-5.1805,-5.1248,-4.9667,-4.87,-4.8379,-4.8379,-4.8315,-4.8261,-4.8315,-4.8325,-4.8215,-4.8234,-4.8065,-4.8755,-4.9013,-4.9264,-4.9204,-4.9185,-4.9596,-5.1237,-5.0576,-4.9951,-5.0874,-5.1819,-5.1822,-4.9605,-5.1062,-5.3058,-5.4418,-5.672,-5.8245,-5.7791,-5.9872,-6.0381,-5.7568,-5.7516,-5.7887,-5.8369,-5.8938,-5.9852,-6.1355,-6.1709,-6.2823,-6.5109,-6.6626,-6.8125,-6.9677,-6.966,-6.9203,-6.8406,-6.8219,-6.8137,-6.8137,-6.8205,-6.8356,-6.8592,-6.8774,-6.877,-6.8583,-6.9184,-6.9283,-6.9038,-6.7869,-6.8087,-6.9018,-6.7821,-6.8241,-6.9497,-6.9808,-6.9971,-6.9933,-6.9743,-6.9629,-6.9401,-6.7921,-6.6288,-6.4617,-6.3061,-6.139,-6.0022,-6.0022,-6.0021,-5.9939,-5.9707,-5.9651,-5.9624,-5.9493,-5.9457,-5.9406,-5.9284,-5.927,-5.9215,-5.9119,-5.9028,-5.9005,-5.9005,-5.892,-5.8759,-5.8321,-5.8255,-5.8107,-5.7792,-5.8481,-5.9005,-5.9005,-5.9028,-5.8977,-5.8775,-5.8775,-5.8065,-5.6345,-5.5987,-5.4583,-5.1723,-5.1366,-5.0561,-4.9086,-4.9049,-4.8907,-4.8546,-4.8907,-4.8774,-4.8215,-4.846,-4.8409,-4.8795,-4.9026,-4.9341,-4.9222,-4.9185,-4.9372,-5.0138,-4.9725,-4.9537,-5.0753,-5.2875,-5.4347,-5.3814,-5.5312,-5.6689,-5.6789,-5.7258,-5.7239,-5.6256,-5.6999,-5.6928,-5.5173,-5.5494,-5.6143,-5.6853,-5.8137,-5.9384,-6.0422,-6.1492,-6.288,-6.4716,-6.6421,-6.8144,-6.9843,-6.9814,-6.9603,-6.9203,-6.8924,-6.8742,-6.8656,-6.8656,-6.8817,-6.9104,-6.9241,-6.9407,-6.9554,-6.9771,-6.9919,-6.9846,-6.9172,-6.8714,-6.8508,-6.8754,-6.871,-6.86,-6.9626,-6.9971,-6.9971,-6.9971,-6.9971,-6.9857,-6.9097,-6.7085,-6.4769,-6.4124,-6.2112,-6.0062,-6.0062,-6.0062,-6.0061,-5.9941,-5.9901,-5.9851,-5.9631,-5.96,-5.9556,-5.9328,-5.9284,-5.9252,-5.9119,-5.9089,-5.9089,-5.9089,-5.9089,-5.9005,-5.8784,-5.8747,-5.8709,-5.861,-5.8976,-5.9195,-5.9195,-5.9195,-5.9172,-5.9074,-5.9089,-5.8775,-5.8027,-5.7093,-5.5934,-5.4476,-5.2681,-5.1372,-5.0624,-4.9671,-4.9109,-4.8912,-4.9109,-4.9028,-4.8774,-4.8848,-4.876,-4.8275,-4.9005,-4.9225,-4.9231,-4.9258,-4.9238,-4.929,-4.9072,-4.9203,-5.0457,-5.317,-5.5554,-5.6121,-5.7874,-5.9109,-5.8824,-5.826,-5.7242,-5.5686,-5.4805,-5.3921,-5.2823,-5.3131,-5.4011,-5.5511,-5.7476,-5.907,-6.0003,-6.142,-6.3162,-6.5204,-6.6762,-6.8274,-6.9799,-6.9817,-6.9757,-6.9706,-6.9465,-6.9241,-6.9074,-6.9074,-6.9119,-6.9184,-6.9398,-6.9613,-6.9781,-6.993,-6.9971,-6.9971,-6.9971,-6.9249,-6.8224,-6.9477,-6.9211,-6.8262,-6.9515,-6.9971,-6.9971,-6.993,-6.9887,-6.984,-6.984,-6.7866,-6.5472,-6.5472,-6.3201,-6.0626,-6.0626,-6.0364,-6.0062,-6.0062,-6.0062,-6.0023,-5.9813,-5.9768,-5.9695,-5.9445,-5.9374,-5.9301,-5.9152,-5.9119,-5.9089,-5.9089,-5.9089,-5.9089,-5.9089,-5.9089,-5.9168,-5.9296,-5.9366,-5.935,-5.9339,-5.9247,-5.9196,-5.9097,-5.9089,-5.9089,-5.9089,-5.7915,-5.7018,-5.6569,-5.384,-5.2157,-5.1709,-5.0083,-4.9222,-4.9185,-4.9222,-4.9222,-4.9185,-4.9185,-4.9011,-4.6958,-4.9174,-4.8921,-4.9277,-4.9347,-4.9389,-4.9544,-4.9526,-4.9564,-4.964,-5.2313,-5.4506,-5.3939,-5.6629,-5.9608,-6.179,-6.2526,-6.1887,-5.9208,-5.7037,-5.4569,-5.1554,-5.0986,-5.1917,-5.4923,-5.7335,-5.9524,-6.1538,-6.2478,-6.4099,-6.6779,-6.7953,-6.8821,-6.9428,-6.9677,-6.9681,-6.9401,-6.9668,-6.9577,-6.9201,-6.9201,-6.9201,-6.9241,-6.96,-6.9748,-6.9781,-6.9933,-6.9971,-6.9971,-6.9971,-6.9933,-6.9857,-6.9933,-6.9933,-6.9857,-6.9933,-6.9971,-6.997,-6.9857,-6.9622,-6.9428,-6.9428,-6.8293,-6.6956,-6.6956,-6.4659,-6.2078,-6.2078,-6.1107,-6.0062,-6.0062,-6.0062,-6.0062,-6.0061,-6.0061,-5.9982,-5.9712,-5.9574,-5.9432,-5.9318,-5.9172,-5.9089,-5.9089,-5.9089,-5.9089,-5.9089,-5.9089,-5.9192,-5.9432,-5.9595,-5.9608,-5.9468,-5.9247,-5.9102,-5.9097,-5.9089,-5.9089,-5.9089,-5.9014,-5.8252,-5.6607,-5.4962,-5.3354,-5.1746,-5.0181,-4.928,-4.9185,-4.928,-4.9317,-4.9185,-4.9185,-4.9147,-4.5331,-4.7296,-4.6075,-4.8788,-4.9474,-4.9495,-4.9536,-4.9555,-4.9573,-4.968,-5.3182,-5.6214,-5.6075,-5.8675,-6.104,-6.1562,-6.0244,-5.8014,-5.4688,-5.1518,-4.9049,-4.7824,-4.8302,-5.0021,-5.3124,-5.6264,-5.8944,-6.1051,-6.2148,-6.3629,-6.5692,-6.75,-6.8608,-6.89,-6.9326,-6.9593,-6.9639,-6.9553,-6.9543,-6.9577,-6.9398,-6.9428,-6.9594,-6.9708,-6.9829,-6.9933,-6.9971,-6.9971,-6.9971,-6.9971,-6.9971,-6.9971,-6.9971,-6.9971,-6.9971,-6.9971,-6.9927,-6.9819,-6.9613,-6.9452,-6.9402,-6.9402,-6.8343,-6.7068,-6.7058,-6.4749,-6.2083,-6.2201,-6.1072,-5.9855,-6.0023,-6.0062,-6.0062,-6.0062,-6.0062,-5.9983,-5.9717,-5.9645,-5.9546,-5.9432,-5.9388,-5.9328,-5.9328,-5.9328,-5.9328,-5.9328,-5.9328,-5.9468,-5.9828,-5.9882,-5.979,-5.9527,-5.9243,-5.9095,-5.9102,-5.9083,-5.9083,-5.9083,-5.9083,-5.882,-5.8219,-5.6304,-5.4258,-5.2233,-5.0433,-4.9489,-4.9428,-4.9489,-4.9489,-4.9428,-4.9326,-4.9301,-3.8357,-4.2733,-4.4805,-4.869,-4.9606,-4.9628,-4.964,-4.9612,-4.9629,-4.9696,-5.3218,-5.6331,-5.6355,-5.9029,-6.1087,-6.0599,-5.8333,-5.5358,-5.1778,-4.7709,-4.5276,-4.5657,-4.6582,-4.8727,-5.2635,-5.5881,-5.8812,-6.1402,-6.1903,-6.3217,-6.5785,-6.7064,-6.791,-6.8235,-6.8747,-6.9156,-6.9326,-6.9461,-6.9553,-6.9634,-6.9584,-6.9609,-6.9773,-6.9833,-6.9881,-6.9971,-6.9971,-6.9971,-6.9971,-6.9971,-6.9971,-6.9971,-6.9971,-6.9971,-6.997,-6.9929,-6.9803,-6.9577,-6.9384,-6.9291,-6.9277,-6.9277,-6.8543,-6.7716,-6.7714,-6.5362,-6.2757,-6.2838,-6.1332,-5.9717,-5.9898,-6.0022,-6.0062,-6.0062,-6.0062,-6.0023,-5.9855,-6.0177,-6.0334,-5.9697,-5.998,-6.0136,-5.9568,-5.9493,-5.9493,-5.9493,-5.9493,-5.9631,-5.9992,-6.0075,-5.9958,-5.9707,-5.9533,-5.9315,-5.911,-5.9095,-5.9133,-5.9208,-5.9246,-5.9246,-5.9246,-5.7096,-5.5083,-5.3246,-5.1427,-5.0196,-4.9555,-4.959,-4.959,-4.9584,-4.9489,-4.9428,-2.6459,-3.5977,-4.5273,-4.8862,-4.9759,-4.975,-4.9756,-4.9772,-4.9716,-4.9619,-5.2231,-5.4521,-5.4444,-5.7245,-5.9494,-5.915,-5.7336,-5.478,-5.1233,-4.6367,-4.3818,-4.549,-4.5966,-4.8248,-5.3612,-5.6318,-5.9226,-6.2894,-6.182,-6.2898,-6.7174,-6.6827,-6.6784,-6.74,-6.8065,-6.8422,-6.8422,-6.9313,-6.963,-6.9401,-6.9677,-6.9797,-6.9797,-6.9927,-6.9971,-6.9971,-6.9971,-6.9971,-6.9971,-6.9971,-6.9971,-6.9971,-6.9971,-6.9971,-6.997,-6.9814,-6.9541,-6.9221,-6.9201,-6.9104,-6.8993,-6.8993,-6.8993,-6.8993,-6.8993,-6.6761,-6.4196,-6.4178,-6.2028,-5.9739,-5.9701,-5.9858,-6.0062,-6.0138,-6.01,-6.01,-6.0176,-6.1262,-6.1722,-6.0124,-6.104,-6.1558,-5.9882,-5.958,-5.9542,-5.9504,-5.9504,-5.963,-6.0022,-6.0062,-6.0058,-6.0058,-6.0048,-5.9821,-5.9163,-5.9114,-5.9228,-5.9493,-5.9493,-5.9493,-5.9493,-5.7423,-5.5759,-5.4689,-5.3142,-5.1405,-4.9602,-4.9699,-4.9693,-4.9602,-4.9555,-4.9555,-3.1033,-3.8662,-4.3414,-4.8131,-4.9271,-4.9204,-4.9308,-4.9553,-4.9734,-4.9726,-5.1378,-5.3111,-5.4256,-5.6139,-5.7898,-5.8919,-5.7268,-5.464,-5.1233,-4.7137,-4.488,-4.6202,-4.73,-4.9979,-5.533,-5.6985,-5.9082,-6.2369,-6.1643,-6.2557,-6.6018,-6.6376,-6.657,-6.674,-6.7743,-6.8328,-6.8422,-6.9053,-6.9465,-6.9668,-6.9761,-6.9854,-6.9929,-6.997,-6.9971,-6.9971,-6.9971,-6.9971,-6.9971,-6.9971,-6.9971,-6.9971,-6.9971,-6.9927,-6.9814,-6.9594,-6.9369,-6.9181,-6.9095,-6.9061,-6.8993,-6.8993,-6.8993,-6.8993,-6.8993,-6.7538,-6.5622,-6.4441,-6.2715,-6.0981,-5.9934,-5.9717,-6.0155,-6.158,-6.0973,-6.0707,-6.3061,-6.2984,-6.2678,-6.3361,-6.381,-6.3615,-6.2018,-6.1752,-6.1297,-6.0082,-5.9893,-5.9939,-6.0061,-6.0062,-6.0061,-6.0058,-6.0072,-5.9999,-5.9821,-5.9783,-5.9821,-5.9896,-5.9631,-5.9479,-5.9479,-5.8987,-5.7811,-5.5909,-5.3969,-5.1969,-4.9835,-4.9881,-4.9881,-4.9835,-4.9759,-4.9699,-3.1068,-3.6963,-3.9674,-4.3399,-4.409,-4.439,-4.6302,-4.7692,-4.8724,-4.9384,-5.0869,-5.2293,-5.3111,-5.5191,-5.704,-5.7894,-5.6772,-5.4633,-5.1233,-4.8242,-4.6638,-4.7258,-4.9431,-5.2466,-5.6654,-5.7478,-5.8876,-6.1676,-6.1065,-6.1764,-6.4467,-6.5291,-6.5656,-6.5656,-6.6841,-6.767,-6.8001,-6.8586,-6.911,-6.9554,-6.9706,-6.9814,-6.9884,-6.9969,-6.9971,-6.9971,-6.9971,-6.9971,-6.9971,-6.9971,-6.9971,-6.9971,-6.9971,-6.9884,-6.9738,-6.9502,-6.9295,-6.9081,-6.9035,-6.8993,-6.8993,-6.8993,-6.8993,-6.8993,-6.8993,-6.7823,-6.6154,-6.4509,-6.2955,-6.1444,-5.9897,-5.9609,-5.9982,-6.111,-6.0705,-6.0783,-6.3403,-6.3744,-6.382,-6.4731,-6.5491,-6.5453,-6.3858,-6.3023,-6.2264,-6.1277,-6.0517,-6.0062,-6.0062,-6.0062,-6.0062,-6.0062,-6.0055,-6.0082,-6.0082,-6.0082,-6.0082,-6.0082,-5.9855,-5.9741,-5.9741,-5.9779,-5.8561,-5.5828,-5.4592,-5.2658,-4.9963,-4.9883,-4.9879,-4.9879,-4.9811,-4.9772,-2.8824,-3.2994,-3.5111,-3.5868,-3.5932,-3.6945,0.0,-4.4315,-4.6711,-4.8528,-5.0348,-5.1568,-5.1693,-5.4183,-5.6284,-5.6564,-5.6072,-5.4555,-5.1523,-4.9854,-4.881,-4.8591,-5.1819,-5.4956,-5.7351,-5.7661,-5.8705,-6.1047,-6.0397,-6.0825,-6.3036,-6.3932,-6.4446,-6.4562,-6.5757,-6.6659,-6.736,-6.8033,-6.8637,-6.9106,-6.9516,-6.9731,-6.979,-6.9884,-6.997,-6.9971,-6.9971,-6.9971,-6.9971,-6.9971,-6.9971,-6.9971,-6.9971,-6.9881,-6.9723,-6.9464,-6.9242,-6.8993,-6.8993,-6.8993,-6.8993,-6.8993,-6.8966,-6.8939,-6.8939,-6.7818,-6.6223,-6.4383,-6.2953,-6.1563,-5.9756,-5.9469,-5.9683,-5.9891,-5.9968,-6.0555,-6.2453,-6.3934,-6.4997,-6.5187,-6.6592,-6.7199,-6.5491,-6.3896,-6.2833,-6.2833,-6.1428,-6.0289,-6.01,-6.0062,-6.0062,-6.0062,-6.0062,-6.0062,-6.0062,-6.0062,-6.0062,-6.0062,-6.0062,-6.0062,-6.0062,-6.0062,-5.8467,-5.505,-5.5012,-5.3342,-4.9924,-4.9826,-4.9763,-4.9754,-4.9754,-4.971,0.0,0.0,0.0,0.0,0.0,0.0,0.0,-3.8942,-4.3016,-4.6563,-4.8433,-4.9894,-5.1545,-5.2387,-5.3704,-5.6298,-5.5564,-5.4415,-5.3698,-5.2061,-5.0897,-5.0865,-5.272,-5.4762,-5.662,-5.7365,-5.8705,-6.1047,-6.0397,-6.0825,-6.3036,-6.3336,-6.3775,-6.4504,-6.522,-6.5862,-6.6659,-6.7707,-6.8366,-6.8562,-6.9071,-6.9464,-6.979,-6.9803,-6.9878,-6.9971,-6.9971,-6.9971,-6.9971,-6.9971,-6.9971,-6.9971,-6.9971,-6.9781,-6.949,-6.9415,-6.9242,-6.8993,-6.8993,-6.8993,-6.8993,-6.8993,-6.8722,-6.8404,-6.8404,-6.7844,-6.6712,-6.4087,-6.3109,-6.2353,-5.9909,-5.9306,-5.9772,-6.1313,-6.0703,-6.0607,-6.3782,-6.4693,-6.5339,-6.6706,-6.8338,-6.8946,-6.7275,-6.5567,-6.4466,-6.4466,-6.3099,-6.1618,-6.0251,-6.0062,-6.0062,-6.0062,-6.0062,-6.0062,-6.0062,-6.0062,-6.0062,-6.0062,-6.0062,-6.0062,-6.0062,-6.0062,-5.8467,-5.505,-5.5012,-5.3301,-4.9819,-4.9772,-4.9699,-4.9619,-4.9619,-4.9536,0.0,0.0,0.0,0.0,0.0,0.0,0.0,0.0,0.0,0.0,0.0,-4.8934,-5.0355,0.0,-5.2513,-5.4158,-5.4407,-5.4073,-5.3104,-5.2119,-5.1522,-5.1522,-5.299,-5.4686,-5.6416,-5.7252,-5.8705,-6.1047,-5.993,-6.0164,-6.238,-6.2449,-6.2717,-6.3174,-6.4329,-6.5237,-6.5898,-6.721,-6.8026,-6.8328,-6.8931,-6.9315,-6.9477,-6.9679,-6.9814,-6.9873,-6.9965,-6.9971,-6.9971,-6.9971,-6.9971,-6.9895,-6.9059,-6.8524,-6.8129,-6.7284,-6.6775,-6.6601,-6.7449,-6.7722,-6.7845,-6.8432,-6.8447,-6.8026,-6.6912,-6.6417,-6.5572,-6.2551,-6.1868,-6.1536,-5.9356,-5.9045,-5.9539,-6.0525,-6.0133,-6.0291,-6.2887,-6.4145,-6.5251,-6.6993,-6.8705,-6.9618,-6.8869,-6.7313,-6.6174,-6.6174,-6.4807,-6.3441,-6.2605,-6.1808,-6.1011,-6.0176,-5.9302,-5.8809,-5.8809,-5.8809,-5.9188,-6.0024,-6.0062,-6.0062,-6.0062,-6.0062,-5.8467,-5.505,-5.5012,-5.3299,-4.9763,-4.9693,-4.9611,-4.9477,-4.9426,-4.9385,0.0,0.0,0.0,0.0,0.0,0.0,0.0,0.0,0.0,0.0,0.0,0.0,0.0,0.0,0.0,-5.2051,-5.3289,-5.3629,-5.2,-5.1573,-5.1456,-5.1522,-5.2853,-5.4474,-5.6281,-5.7249,-5.8548,-6.0523,-5.9291,-5.9311,-6.129,-6.1516,-6.1684,-6.1792,-6.3429,-6.4572,-6.5148,-6.6667,-6.767,-6.8066,-6.8799,0.0,-6.9241,-6.9528,-6.9724,-6.9778,-6.9916,-6.9971,-6.9971,-6.9971,-6.9971,-6.9781,-6.7731,-6.6831,-6.6467,-6.5039,-6.4289,-6.4147,-6.5505,-6.5914,-6.602,-6.698,-6.7148,-6.664,-6.487,-6.425,0.0,-6.0914,-6.0359,-6.023,-5.8697,-5.8733,-5.9137,-5.9253,-5.9379,-5.9835,-6.1195,-6.3135,-6.4948,-6.6425,-6.838,-6.9809,-6.9927,-6.8788,-6.7493,-6.6546,-6.5784,-6.499,-6.4085,-6.34,-6.249,-6.1163,-5.9758,-5.8847,-5.8543,-5.8201,-5.8619,-5.9986,-5.9758,-5.9568,-5.9568,-5.9264,-5.767,-5.4595,-5.4177,-5.2616,-4.9763,-4.9644,-4.9512,-4.937,-4.8601,-4.8471,0.0,0.0,0.0,0.0,0.0,0.0,0.0,0.0,0.0,0.0,0.0,0.0,0.0,0.0,0.0,0.0,-5.2836,-5.3026,-5.1995,-5.1488,-5.1259,-5.1489,-5.2285,-5.3654,-5.5842,-5.7165,-5.8088,-5.8442,-5.8457,-5.8868,-5.9707,-6.0401,0.0,0.0,0.0,-6.3775,-6.4642,-6.6524,-6.7516,-6.7557,-6.8559,-6.9072,-6.9184,-6.9369,-6.9562,-6.9776,-6.9925,-6.9971,-6.9971,-6.9971,-6.9971,-6.9667,-6.6478,-6.5186,-6.5103,-6.4697,-6.4269,-6.3972,-6.4159,0.0,0.0,-6.3874,-6.3292,-6.253,-6.2239,-6.1816,-6.1194,-5.9956,-5.9607,-5.942,-5.8549,-5.8374,-5.8569,-5.9154,-5.9312,-5.9381,-5.9684,-6.2291,-6.4611,-6.4812,-6.7491,-6.979,-6.9803,-6.9461,-6.7685,-6.3304,-6.5024,-6.5255,-6.1012,-6.2785,-6.4469,-6.439,-6.42,0.0,-6.215,-6.0631,-5.9872,-6.0062,-5.8657,-5.7822,-5.7822,-5.6379,-5.4708,-5.281,-5.1292,-5.0262,-4.9763,-4.9644,-4.9512,-4.9295,-4.6294,-4.5669,0.0,0.0,0.0,0.0,0.0,0.0,0.0,0.0,0.0,0.0,0.0,0.0,0.0,0.0,0.0,0.0,-5.1963,-5.2297,-4.9887,-4.9857,-5.0278,-5.0631,-5.2415,-5.4277,-5.6138,-5.7289,-5.8295,-5.9183,-5.8752,-5.9049,-6.0167,-6.0519,-6.0824,-6.1131,-6.2483,-6.3336,-6.3713,-6.5835,-6.7078,-6.744,-6.8205,-6.8734,-6.9072,-6.9223,-6.9384,-6.9583,-6.9791,-6.99,-6.9895,-6.8908,-6.849,-6.8262,0.0,0.0,0.0,0.0,-6.2252,-6.1233,-6.1924,-6.2035,-6.1971,-6.2341,-6.2193,-6.1611,-6.0378,-5.9867,-5.9412,-5.803,-5.7869,-5.8012,-5.7713,-5.7961,-5.8398,-5.8672,-5.897,-5.9213,-5.9233,-6.115,-6.286,-6.292,-6.569,0.0,-6.7962,-6.8027,-6.7637,-6.6464,-6.7511,-6.7687,-6.5672,-6.5886,-6.5852,-6.4895,-6.4082,-6.3327,-6.2643,-6.1049,0.0,0.0,0.0,-5.8999,-5.8999,-5.8315,0.0,0.0,0.0,-4.897,-4.6952,-4.6804,0.0,0.0,-4.465,-4.4254,0.0,0.0,0.0,0.0,0.0,0.0,0.0,0.0,0.0,0.0,0.0,0.0,0.0,0.0,0.0,0.0,-5.0463,-5.1221,-4.8986,-4.9414,-5.0342,-5.132,-5.3135,-5.4923,-5.6562,-5.7495,-5.8333,-5.9194,-5.8415,-5.8615,-6.0126,-6.0132,-6.0235,-6.0629,-6.2313,-6.3144,-6.3144,-6.5394,-6.6827,-6.744,-6.7962,-6.8498,-6.902,-6.9134,-6.9277,-6.9364,-6.9187,-6.9177,-6.9173,-6.7465,-6.6744,-6.6554,-6.4428,-6.2833,-6.1761,-6.1427,-6.0392,-5.9232,-5.99,-6.0058,-6.0049,-6.0422,-6.0433,-6.0016,-5.8549,-5.8065,-5.7831,-5.6644,-5.6654,-5.6984,-5.7091,-5.766,-5.8182,-5.83,-5.8718,-5.9089,-5.9089,-6.042,-6.1649,-6.1732,-6.3688,-6.5284,-6.5284,-6.5794,-6.6422,-6.7177,-6.8007,-6.8439,-6.8047,-6.7923,-6.7403,-6.625,-6.5212,-6.4428,-6.3972,-6.1998,-6.1277,-6.2529,-6.0555,-5.9568,-6.0062,-5.9606,-5.8011,-5.505,-5.1671,-4.8289,0.0,0.0,0.0,0.0,0.0,0.0,0.0,0.0,0.0,0.0,0.0,0.0,0.0,0.0,0.0,0.0,0.0,0.0,0.0,0.0,0.0,0.0,0.0,0.0,-5.0693,-5.1163,-5.2273,-5.4402,-5.4539,-5.5124,-5.6948,-5.7742,-5.7868,-5.729,-5.6749,-5.7036,-5.8521,-5.8591,-5.9215,-6.0596,-6.2313,-6.3144,-6.3144,-6.5394,-6.6827,-6.744,-6.7962,-6.8498,-6.902,-6.9134,-6.9277,-6.9301,-6.7954,-6.74,-6.7389,-6.5718,-6.4997,-6.4693,-6.1466,-6.0015,-5.9744,-5.9631,-5.9443,-5.9214,-5.8621,-5.815,-5.7764,-5.7401,-5.6946,-5.6546,-5.6475,-5.643,-5.6395,-5.6359,-5.6359,-5.6511,-5.702,-5.7466,-5.7858,-5.8224,-5.8718,-5.9089,-5.9089,-6.042,-6.1617,-6.1617,-6.1715,-6.179,-6.179,-6.3024,-6.3548,-6.2089,-6.4582,0.0,-6.4685,-6.7352,-6.94,-6.9625,-6.9694,-6.9097,-6.7427,-6.4352,-6.2529,-6.2605,-5.9454,-5.8353,-6.0024,-5.8505,-5.6797,-5.505,-5.1671,-4.8292,-4.4913,0.0,0.0,0.0,0.0,0.0,0.0,0.0,0.0,0.0,0.0,0.0,0.0,0.0,0.0,0.0,0.0,0.0,0.0,0.0,0.0,0.0,0.0,0.0,0.0,-4.9279,-5.0692,-5.3448,-5.4225,-5.5024,-5.6266,-5.6725,-5.6681,-5.5941,-5.645,-5.6881,-5.7094,-5.7122,-5.7736,-5.9183,-6.0922,-6.2211,-6.3144,-6.502,-6.6459,-6.744,-6.7633,-6.7579,-6.7337,-6.7388,-6.6905,-6.6019,-6.5533,-6.5443,-6.5527,-6.3814,-6.2552,-6.1618,-6.0479,-5.9901,-5.9657,-5.9537,-5.9419,-5.9176,-5.8547,-5.8076,-5.7621,-5.6855,-5.6501,-5.6359,-5.6359,-5.6359,-5.6359,-5.6359,-5.6359,-5.6395,-5.6582,-5.6973,-5.744,-5.783,-5.8267,-5.8659,-5.9005,-5.9537,-5.9972,-5.9972,-5.9972,-5.9972,-5.9972,-6.1318,-6.2215,-6.1692,-6.4384,-6.6303,-6.5824,-6.7809,-6.9323,-6.9502,-6.9746,-6.965,-6.9173,-6.7085,-6.5339,-6.42,-6.2074,-6.0631,-6.01,-5.953,-5.8429,-5.6721,-5.4481,-5.057,-4.5027,0.0,0.0,0.0,0.0,0.0,0.0,0.0,0.0,0.0,0.0,0.0,0.0,0.0,0.0,0.0,0.0,0.0,0.0,0.0,0.0,0.0,0.0,0.0,0.0,0.0,0.0,-5.2483,-5.3826,0.0,-5.4906,-5.5282,-5.5232,-5.4721,-5.5338,-5.5864,-5.609,-5.5995,-5.6646,-5.8035,-5.9456,-6.0689,-6.1591,-6.3755,-6.5142,-6.5716,-6.6303,-6.6189,-6.558,-6.558,-6.5093,-6.4294,-6.3709,-6.3583,-6.3702,-6.1958,-6.0769,-6.0062,-6.0062,-5.9855,-5.9609,-5.9525,-5.9374,-5.9137,-5.8532,-5.8076,-5.7621,-5.6896,-5.6108,-5.5548,-5.5548,-5.5155,-5.4834,-5.5369,-5.5548,-5.5655,-5.6261,-5.6747,-5.7188,-5.7462,-5.7929,-5.8434,-5.8721,-5.8944,-5.9028,-5.8871,-5.8944,-5.8842,-5.8125,-5.9005,-6.0009,-6.0645,-6.3038,-6.5169,-6.6328,-6.8076,-6.9242,-6.9323,-6.9621,-6.9809,-6.9884,-6.8413,-6.6971,-6.5825,-6.3699,-6.1948,-6.0788,-6.0181,-5.8781,-5.6549,-5.4234,-5.0103,0.0,0.0,0.0,0.0,0.0,0.0,0.0,0.0,0.0,0.0,0.0,0.0,0.0,0.0,0.0,0.0,0.0,0.0,0.0,0.0,0.0,0.0,0.0,0.0,0.0,0.0,0.0,-5.1641,-5.3298,0.0,0.0,0.0,0.0,-5.352,-5.3551,-5.4138,-5.5466,-5.5204,-5.5734,-5.7283,-5.8201,-5.8692,-5.8795,-6.1764,-6.3052,-6.2599,-6.4102,-6.449,-6.3823,-6.3823,-6.3934,-6.4008,-6.2371,-6.185,-6.1933,-6.0114,-5.9593,-5.991,-5.9834,-5.957,-5.9266,-5.9341,-5.9146,-5.8781,-5.8425,-5.7972,-5.7546,-5.7109,-5.558,-5.3906,-5.3799,-5.2765,0.0,0.0,-5.3962,-5.427,-5.5869,-5.6634,-5.7041,-5.7151,-5.7748,-5.8284,-5.8313,-5.8721,-5.8944,-5.8351,-5.8635,-5.8272,-5.6012,0.0,-5.6831,-5.8401,-6.0233,-6.2664,-6.5804,-6.7941,-6.9201,-6.9221,-6.9541,-6.9776,-6.9783,-6.8398,-6.7455,-6.7242,-6.4133,-6.2239,-6.2015,-6.0313,-5.7839,-5.4578,-5.1171,0.0,0.0,0.0,0.0,0.0,0.0,0.0,0.0,0.0,0.0,0.0,0.0,0.0,0.0,0.0,0.0,0.0,0.0,0.0,0.0,0.0,0.0,0.0,0.0,0.0,0.0,-4.6721,-4.932,-5.0602,-5.2321,-5.2967,0.0,0.0,0.0,0.0,0.0,0.0,-5.4546,-5.3574,-5.4277,-5.6964,-5.7517,-5.8413,-5.9579,-6.0912,-6.198,-6.2562,-6.3002,-6.286,-6.2215,-6.2215,-6.1551,-6.0442,-5.9971,-5.9924,-6.0038,-5.832,-5.7765,-5.7909,-5.6756,-5.6113,-5.6002,-5.7175,-5.6681,-5.5696,-5.7295,-5.6981,-5.5721,-5.5054,-5.3676,-5.2087,-5.091,0.0,0.0,0.0,0.0,-5.2652,-5.4267,-5.4735,-5.5225,-5.6784,-5.7511,-5.7951,-5.8255,-5.8721,-5.8678,-5.7301,-5.7123,-5.5875,-5.1644,-5.2059,0.0,-5.1838,-5.6286,-6.0495,-6.2589,-6.6478,-6.9095,-6.9201,-6.9297,-6.9392,-6.949,-6.9118,-6.8361,-6.7181,-6.5111,-6.3348,-6.2053,-5.9266,-5.6185,-5.2808,0.0,0.0,0.0,0.0,0.0,0.0,0.0,0.0,0.0,0.0,0.0,0.0,0.0,0.0,0.0,0.0,0.0,0.0,0.0,0.0,0.0,0.0,0.0,0.0,0.0,0.0,0.0,-4.4049,-4.7208,-4.7956,-5.0333,-5.1422,0.0,0.0,0.0,0.0,0.0,0.0,0.0,0.0,0.0,-5.5669,-5.5963,-5.6758,-5.8128,-5.9796,-6.056,-6.0472,-6.1381,-6.1388,-6.0533,-6.0533,-6.0009,-5.9089,-5.9089,-5.8782,-5.8185,-5.651,-5.6412,-5.7203,0.0,0.0,0.0,0.0,-5.5213,-5.4374,-5.5498,-5.5134,-5.4072,-5.3473,0.0,0.0,0.0,0.0,0.0,0.0,0.0,-5.0438,-5.2036,-5.3478,-5.4805,-5.6021,-5.7177,-5.8045,-5.8284,-5.7009,-5.527,-5.3265,-5.3061,-5.1989,-4.8291,-4.8588,0.0,0.0,0.0,-5.885,-6.1318,-6.5954,-6.8997,-6.9119,-6.9139,-6.9242,-6.9307,-6.9361,-6.8997,-6.8061,-6.5774,-6.3652,-6.1916,-5.8016,-5.3599,0.0,0.0,0.0,0.0,0.0,0.0,0.0,0.0,0.0,0.0,0.0,0.0,0.0,0.0,0.0,0.0,0.0,0.0,0.0,0.0,0.0,0.0,0.0,0.0,0.0,0.0,0.0,0.0,0.0,-4.3751,-4.483,0.0,0.0,0.0,0.0,0.0,0.0,0.0,0.0,0.0,0.0,0.0,0.0,0.0,-5.4561,-5.5599,-5.7952,-5.8457,-5.7201,-5.8987,-5.9371,-5.8476,-5.8476,-5.8476,-5.8476,-5.8461,0.0,-5.6311,-5.4745,0.0,0.0,0.0,0.0,0.0,0.0,0.0,0.0,0.0,0.0,0.0,0.0,0.0,0.0,0.0,0.0,0.0,0.0,0.0,0.0,0.0,0.0,-5.4385,-5.4785,-5.6311,-5.7563,-5.72,-5.3904,-5.0424,-4.842,-4.8275,-4.7741,0.0,0.0,0.0,0.0,0.0,0.0,-6.0869,-6.5804,-6.8993,-6.8993,-6.9119,-6.916,-6.916,-6.9295,-6.9215,-6.888,-6.5777,-6.3085,-6.1019,-5.6425,0.0,0.0,0.0,0.0,0.0,0.0,0.0,0.0,0.0,0.0,0.0,0.0,0.0,0.0,0.0,0.0,0.0,0.0,0.0,0.0,0.0,0.0,0.0,0.0,0.0,0.0,0.0,0.0,0.0,0.0,0.0,0.0,0.0,0.0,0.0,0.0,0.0,0.0,0.0,0.0,0.0,0.0,0.0,0.0,0.0,0.0,0.0,0.0,0.0,0.0,-5.4554,-5.4863,-5.5074,-5.5074,-5.5074,-5.5095,-5.516,-5.5078,-5.4714,-5.3021,0.0,0.0,0.0,0.0,0.0,0.0,0.0,0.0,0.0,0.0,0.0,0.0,0.0,0.0,0.0,0.0,0.0,0.0,0.0,0.0,0.0,0.0,-4.9945,-5.265,-5.3791,-5.3699,-5.1412,0.0,0.0,0.0,0.0,0.0,0.0,0.0,0.0,0.0,0.0,0.0,-5.9112,-6.5094,-6.8993,-6.8993,-6.9035,-6.9061,-6.9061,-6.9074,-6.8461,-6.7026,-6.3881,-6.0713,0.0,0.0,0.0,0.0,0.0,0.0,0.0,0.0,0.0,0.0,0.0,0.0,0.0,0.0,0.0,0.0,0.0,0.0,0.0,0.0,0.0,0.0,0.0,0.0,0.0,0.0,0.0,0.0,0.0,0.0,0.0,0.0,0.0,0.0,0.0,0.0,0.0,0.0,0.0,0.0,0.0,0.0,0.0,0.0,0.0,0.0,0.0,0.0,0.0,0.0,0.0,0.0,0.0,0.0,0.0,0.0,0.0,0.0,-5.1714,-5.155,0.0,0.0,0.0,0.0,0.0,0.0,0.0,0.0,0.0,0.0,0.0,0.0,0.0,0.0,0.0,0.0,0.0,0.0,0.0,0.0,0.0,0.0,0.0,0.0,0.0,0.0,0.0,0.0,0.0,0.0,0.0,0.0,0.0,0.0,0.0,0.0,0.0,0.0,0.0,0.0,-5.864,-6.4882,-6.8993,-6.8993,-6.8993,-6.8993,-6.8993,-6.8993,-6.7898,-6.5318,-6.2103,0.0,0.0,0.0,0.0,0.0,0.0,0.0,0.0,0.0,0.0,0.0,0.0,0.0,0.0,0.0,0.0,0.0,0.0,0.0,0.0,0.0,0.0,0.0,0.0,0.0,0.0,0.0,0.0,0.0,0.0,0.0,0.0,0.0,0.0,0.0,0.0,0.0,0.0,0.0,0.0,0.0,0.0,0.0,0.0,0.0,0.0,0.0,0.0,0.0,0.0,0.0,0.0,0.0,0.0,0.0,0.0,0.0,0.0,0.0,-4.8789,-4.8707,0.0,0.0,0.0,0.0,0.0,0.0,0.0,0.0,0.0,0.0,0.0,0.0,0.0,0.0,0.0,0.0,0.0,0.0,0.0,0.0,0.0,0.0,0.0,0.0,0.0,0.0,0.0,0.0,0.0,0.0,0.0,0.0,0.0,0.0,0.0,0.0,0.0,0.0,0.0,0.0,-5.8678,-6.4919,-6.8993,-6.8993,-6.8993,-6.8993,-6.8993,-6.8993,-6.7263,-6.3187,-6.0159,0.0,0.0,0.0,0.0,0.0,0.0,0.0,0.0,0.0,0.0,0.0,0.0,0.0,0.0,0.0,0.0,0.0,0.0,0.0,0.0,0.0,0.0,0.0,0.0,0.0,0.0,0.0,0.0,0.0,0.0,0.0,0.0,0.0,0.0,0.0,0.0,0.0,0.0,0.0,0.0,0.0,0.0,0.0,0.0,0.0,0.0,0.0,0.0,0.0,0.0,0.0,0.0,0.0,0.0,0.0,0.0,0.0,0.0,0.0,0.0,0.0,0.0,0.0,0.0,0.0,0.0,0.0,0.0,0.0,0.0,0.0,0.0,0.0,0.0,0.0,0.0,0.0,0.0,0.0,0.0,0.0,0.0,0.0,0.0,0.0,0.0,0.0,0.0,0.0,0.0,0.0,0.0,0.0,0.0,0.0,0.0,0.0,0.0,0.0,0.0,0.0,-5.8683,-6.4894,-6.8993,-6.8993,-6.8993,-6.8993,-6.8993,-6.8993,-6.6302,-5.9948,0.0,0.0,0.0,0.0,0.0,0.0,0.0,0.0,0.0,0.0,0.0,0.0,0.0,0.0,0.0,0.0,0.0,0.0,0.0,0.0,0.0,0.0,0.0,0.0,0.0,0.0,0.0,0.0,0.0,0.0,0.0,0.0,0.0,0.0,0.0,0.0,0.0,0.0,0.0,0.0,0.0,0.0,0.0,0.0,0.0,0.0,0.0,0.0,0.0,0.0,0.0,0.0,0.0,0.0,0.0,0.0,0.0,0.0,0.0,0.0,0.0,0.0,0.0,0.0,0.0,0.0,0.0,0.0,0.0,0.0,0.0,0.0,0.0,0.0,0.0,0.0,0.0,0.0,0.0,0.0,0.0,0.0,0.0,0.0,0.0,0.0,0.0,0.0,0.0,0.0,0.0,0.0,0.0,0.0,0.0,0.0,0.0,0.0,0.0,0.0,0.0,0.0,-5.8797,-6.4045,-6.7898,-6.8908,-6.8993,-6.8993,-6.8993,-6.8993,-6.619,-5.9528,0.0,0.0,0.0,0.0,0.0,0.0,0.0,0.0,0.0,0.0,0.0,0.0,0.0,0.0,0.0,0.0,0.0,0.0,0.0,0.0,0.0,0.0,0.0,0.0,0.0,0.0,0.0,0.0,0.0,0.0,0.0,0.0,0.0,0.0,0.0,0.0,0.0,0.0,0.0,0.0,0.0,0.0,0.0,0.0,0.0,0.0,0.0,0.0,0.0,0.0,0.0,0.0,0.0,0.0,0.0,0.0,0.0,0.0,0.0,0.0,0.0,0.0,0.0,0.0,0.0,0.0,0.0,0.0,0.0,0.0,0.0,0.0,0.0,0.0,0.0,0.0,0.0,0.0,0.0,0.0,0.0,0.0,0.0,0.0,0.0,0.0,0.0,0.0,0.0,0.0,0.0,0.0,0.0,0.0,0.0,0.0,0.0,0.0,0.0,0.0,0.0,0.0,-5.8906,-6.3555,-6.7187,-6.8898,-6.9023,-6.8993,-6.8993,-6.8993,-6.5966,-5.8818,0.0,0.0,0.0,0.0,0.0,0.0,0.0,0.0,0.0,0.0,0.0,0.0,0.0,0.0,0.0,0.0,0.0,0.0,0.0,0.0,0.0,0.0,0.0,0.0,0.0,0.0,0.0,0.0,0.0,0.0,0.0,0.0,0.0,0.0,0.0,0.0,0.0,0.0,0.0,0.0,0.0,0.0,0.0,0.0,0.0,0.0,0.0,0.0,0.0,0.0,0.0,0.0,0.0,0.0,0.0,0.0,0.0,0.0,0.0,0.0,0.0,0.0,0.0,0.0,0.0,0.0,0.0,0.0,0.0,0.0,0.0,0.0,0.0,0.0,0.0,0.0,0.0,0.0,0.0,0.0,0.0,0.0,0.0,0.0,0.0,0.0,0.0,0.0,0.0,0.0,0.0,0.0,0.0,0.0,0.0,0.0,0.0,0.0,0.0,0.0,0.0,0.0,-5.9017,-6.3674,-6.7339,-6.9015,-6.9081,-6.8993,-6.8993,-6.8993,-6.5468,0.0,0.0,0.0,0.0,0.0,0.0,0.0,0.0,0.0,0.0,0.0,0.0,0.0,0.0,0.0,0.0,0.0,0.0,0.0,0.0,0.0,0.0,0.0,0.0,0.0,0.0,0.0,0.0,0.0,0.0,0.0,0.0,0.0,0.0,0.0,0.0,0.0,0.0,0.0,0.0,0.0,0.0,0.0,0.0,0.0,0.0,0.0,0.0,0.0,0.0,0.0,0.0,0.0,0.0,0.0,0.0,0.0,0.0,0.0,0.0,0.0,0.0,0.0,0.0,0.0,0.0,0.0,0.0,0.0,0.0,0.0,0.0,0.0,0.0,0.0,0.0,0.0,0.0,0.0,0.0,0.0,0.0,0.0,0.0,0.0,0.0,0.0,0.0,0.0,0.0,0.0,0.0,0.0,0.0,0.0,0.0,0.0,0.0,0.0,0.0,0.0,0.0,0.0,-5.9017,-6.1809,-6.4855,-6.8752,-6.9072,-6.8993,-6.8993,-6.8993,-6.5928,-5.8744,0.0,0.0,0.0,0.0,0.0,0.0,0.0,0.0,0.0,0.0,0.0,0.0,0.0,0.0,0.0,0.0,0.0,0.0,0.0,0.0,0.0,0.0,0.0,0.0,0.0,0.0,0.0,0.0,0.0,0.0,0.0,0.0,0.0,0.0,0.0,0.0,0.0,0.0,0.0,0.0,0.0,0.0,0.0,0.0,0.0,0.0,0.0,0.0,0.0,0.0,0.0,0.0,0.0,0.0,0.0,0.0,0.0,0.0,0.0,0.0,0.0,0.0,0.0,0.0,0.0,0.0,0.0,0.0,0.0,0.0,0.0,0.0,0.0,0.0,0.0,0.0,0.0,0.0,0.0,0.0,0.0,0.0,0.0,0.0,0.0,0.0,0.0,0.0,0.0,0.0,0.0,0.0,0.0,0.0,0.0,0.0,0.0,0.0,0.0,0.0,0.0,0.0,0.0,-6.1628,-6.4551,-6.8804,-6.9156,-6.9074,-6.902,-6.8432,-6.5492,-5.949,0.0,0.0,0.0,0.0,0.0,0.0,0.0,0.0,0.0,0.0,0.0,0.0,0.0,0.0,0.0,0.0,0.0,0.0,0.0,0.0,0.0,0.0,0.0,0.0,0.0,0.0,0.0,0.0,0.0,0.0,0.0,0.0,0.0,0.0,0.0,0.0,0.0,0.0,0.0,0.0,0.0,0.0,0.0,0.0,0.0,0.0,0.0,0.0,0.0,0.0,0.0,0.0,0.0,0.0,0.0,0.0,0.0,0.0,0.0,0.0,0.0,0.0,0.0,0.0,0.0,0.0,0.0,0.0,0.0,0.0,0.0,0.0,0.0,0.0,0.0,0.0,0.0,0.0,0.0,0.0,0.0,0.0,0.0,0.0,0.0,0.0,0.0,0.0,0.0,0.0,0.0,0.0,0.0,0.0,0.0,0.0,0.0,0.0,0.0,0.0,0.0,0.0,0.0,-6.269,-6.5785,-6.9024,-6.9277,-6.9149,-6.9046,-6.7472,-6.4345,-5.9351,-5.5883,0.0,0.0,0.0,0.0,0.0,0.0,0.0,0.0,0.0,0.0,0.0,0.0,0.0,0.0,0.0,0.0,0.0,0.0,0.0,0.0,0.0,0.0,0.0,0.0,0.0,0.0,0.0,0.0,0.0,0.0,0.0,0.0,0.0,0.0,0.0,0.0,0.0,0.0,0.0,0.0,0.0,0.0,0.0,0.0,0.0,0.0,0.0,0.0,0.0,0.0,0.0,0.0,0.0,0.0,0.0,0.0,0.0,0.0,0.0,0.0,0.0,0.0,0.0,0.0,0.0,0.0,0.0,0.0,0.0,0.0,0.0,0.0,0.0,0.0,0.0,0.0,0.0,0.0,0.0,0.0,0.0,0.0,0.0,0.0,0.0,0.0,0.0,0.0,0.0,0.0,0.0,0.0,0.0,0.0,0.0,0.0,0.0,0.0,0.0,0.0,0.0,0.0,-6.1579,-6.4384,-6.8913,-6.9284,-6.9135,-6.902,-6.7423,-6.4247,-5.8977,-5.4476,0.0,0.0,0.0,0.0,0.0,0.0,0.0,0.0,0.0,0.0,0.0,0.0,0.0,0.0,0.0,0.0,0.0,0.0,0.0,0.0,0.0,0.0,0.0,0.0,0.0,0.0,0.0,0.0,0.0,0.0,0.0,0.0,0.0,0.0,0.0,0.0,0.0,0.0,0.0,0.0,0.0,0.0,0.0,0.0,0.0,0.0,0.0,0.0,0.0,0.0,0.0,0.0,0.0,0.0,0.0,0.0,0.0,0.0,0.0,0.0,0.0,0.0,0.0,0.0,0.0,0.0,0.0,0.0,0.0,0.0,0.0,0.0,0.0,0.0,0.0,0.0,0.0,0.0,0.0,0.0,0.0,0.0,0.0,0.0,0.0,0.0,0.0,0.0,0.0,0.0,0.0,0.0,0.0,0.0,0.0,0.0,0.0,0.0,0.0,0.0,0.0,0.0,-5.8304,-6.2036,-6.7715,-6.8922,-6.8886,-6.7924,-6.6302,-6.3038,-5.7691,-5.2726,0.0,0.0,0.0,0.0,0.0,0.0,0.0,0.0,0.0,0.0,0.0,0.0,0.0,0.0,0.0,0.0,0.0,0.0,0.0,0.0,0.0,0.0,0.0,0.0,0.0,0.0,0.0,0.0,0.0,0.0,0.0,0.0,0.0,0.0,0.0,0.0,0.0,0.0,0.0,0.0,0.0,0.0,0.0,0.0,0.0,0.0,0.0,0.0,0.0,0.0,0.0,0.0,0.0,0.0,0.0,0.0,0.0,0.0,0.0,0.0,0.0,0.0,0.0,0.0,0.0,0.0,0.0,0.0,0.0,0.0,0.0,0.0,0.0,0.0,0.0,0.0,0.0,0.0,0.0,0.0,0.0,0.0,0.0,0.0,0.0,0.0,0.0,0.0,0.0,0.0,0.0,0.0,0.0,0.0,0.0,0.0,0.0,0.0,0.0,0.0,0.0,0.0,0.0,-5.9566,-6.5634,-6.8141,-6.8632,-6.6676,-6.4944,-6.163,-5.6245,0.0,0.0,0.0,0.0,0.0,0.0,0.0,0.0,0.0,0.0,0.0,0.0,0.0,0.0,0.0,0.0,0.0,0.0,0.0,0.0,0.0,0.0,0.0,0.0,0.0,0.0,0.0,0.0,0.0,0.0,0.0,0.0,0.0,0.0,0.0,0.0,0.0,0.0,0.0,0.0,0.0,0.0,0.0,0.0,0.0,0.0,0.0,0.0,0.0,0.0,0.0,0.0,0.0,0.0,0.0,0.0,0.0,0.0,0.0,0.0,0.0,0.0,0.0,0.0,0.0,0.0,0.0,0.0,0.0,0.0,0.0,0.0,0.0,0.0,0.0,0.0,0.0,0.0,0.0,0.0,0.0,0.0,0.0,0.0,0.0,0.0,0.0,0.0,0.0,0.0,0.0,0.0,0.0,0.0,0.0,0.0,0.0,0.0,0.0,0.0,0.0,0.0,0.0,0.0,-5.8391,-6.235,-6.6758,-6.8638,-6.6811,-6.4976,-6.1518,-5.5831,0.0,0.0,0.0,0.0,0.0,0.0,0.0,0.0,0.0,0.0,0.0,0.0,0.0,0.0]}],[{"header":{"parameterUnit":"kt","parameterCategory":2,"dx":1,"dy":1,"la1":29.285339999999998,"la2":30.599998999999997,"lo1":-89.70041500000002,"lo2":-87.6738589999976,"nx":112,"ny":82,"refTime":"2022-09-20T18:00:00:Z","depth":0,"parameterNumber":2,"parameterNumberName":"V-component_of_WINDS"},"data":[5.2932,5.3916,5.3342,4.7151,4.5496,4.3431,3.5998,3.667,3.8356,3.6562,3.8703,4.1204,4.2172,3.9604,3.7656,3.8518,3.8189,3.6851,0.0,3.3931,0.0,0.0,0.0,4.2523,4.4413,0.0,0.0,0.0,0.0,0.0,0.0,5.9515,5.9493,5.9493,5.9508,5.9565,5.9565,5.9646,5.97,5.97,5.97,5.97,5.97,5.97,5.97,5.97,5.97,5.97,5.97,5.97,5.9733,5.9813,5.9813,5.9813,5.9806,5.9609,5.9565,5.9574,5.9646,5.97,5.97,5.97,5.97,5.9714,5.9802,5.9813,5.9855,6.0023,6.0022,5.9941,5.9941,5.9893,5.9844,5.9844,5.9851,5.986,5.9903,5.9946,5.9948,6.0062,6.0062,6.0062,6.0062,6.0062,5.9981,5.9721,5.97,5.9721,5.9806,5.8937,5.8759,5.9948,5.8087,5.7024,5.748,5.5923,5.4136,5.2361,5.1667,5.0833,4.9739,4.9693,4.9993,5.0609,5.0002,5.0002,5.0609,5.0002,4.9759,4.9829,4.9829,4.9763,5.0348,5.1651,5.1427,4.4743,4.2673,4.0452,3.3513,3.4011,3.5509,3.4244,3.7286,3.9938,3.9216,3.7675,3.6616,3.6889,3.6917,3.6196,0.0,3.4112,0.0,0.0,0.0,4.5796,0.0,0.0,0.0,0.0,5.3654,0.0,5.9193,5.9388,5.9344,5.9344,5.9379,5.9406,5.9406,5.9457,5.9493,5.9493,5.9493,5.9493,5.9493,5.9493,5.9493,5.9493,5.9493,5.9493,5.9493,5.9493,5.9546,5.9624,5.9624,5.9624,5.9609,5.9469,5.9406,5.9406,5.9406,5.9445,5.9493,5.9493,5.9493,5.9504,5.9563,5.9624,5.9638,5.9858,5.9941,5.9943,6.0061,6.0062,6.0062,6.0062,6.0062,6.0062,6.0062,6.0062,6.0061,5.9943,5.9941,5.9939,5.9886,5.9882,5.9777,5.9515,5.9039,5.8741,5.8783,5.7425,5.6883,5.8105,5.6256,5.5383,5.6477,5.4966,5.3195,5.1341,5.1234,5.0741,4.9621,4.9574,4.9564,4.9555,4.9555,4.9555,4.9555,4.9555,4.959,4.9693,4.9659,4.9602,4.7634,4.8083,4.7966,4.1559,3.8616,3.6482,3.3245,3.3572,3.4524,3.4599,3.6822,3.888,3.9302,3.7795,3.6575,3.6889,3.7043,0.0,0.0,3.8657,0.0,0.0,0.0,0.0,0.0,0.0,0.0,0.0,0.0,0.0,5.8946,5.9131,5.9089,5.9089,5.9177,5.9267,5.9267,5.9393,5.9469,5.9469,5.9469,5.9469,5.9469,5.9469,5.9469,5.9469,5.9469,5.9469,5.9469,5.9469,5.9481,5.9481,5.9481,5.9481,5.9457,5.9312,5.9284,5.9284,5.9284,5.9374,5.9469,5.9469,5.9469,5.9469,5.9481,5.9481,5.9515,5.9638,5.9663,5.9717,5.9982,6.0061,6.0061,6.0061,6.0061,6.0061,6.0062,6.0062,5.9983,5.9717,5.9663,5.9638,5.9515,5.9481,5.9432,5.9394,5.8082,5.711,5.7072,5.558,5.4578,5.4616,5.4627,5.464,5.4549,5.3104,5.1427,4.9671,4.954,4.9564,4.9564,4.9536,4.9536,4.9536,4.9536,4.9536,4.9536,4.9536,4.9536,4.9584,4.9441,4.9385,4.4534,4.6003,4.6694,4.3603,4.1892,3.9723,3.5077,3.3425,3.3257,3.4488,3.5318,0.0,0.0,0.0,3.5684,3.6885,0.0,3.9872,0.0,4.2799,0.0,0.0,0.0,0.0,0.0,0.0,0.0,0.0,0.0,5.4761,5.8943,5.8772,5.8516,5.8516,5.8584,5.8598,5.8598,5.9013,5.9175,5.9175,5.9175,5.9175,5.9175,5.9175,5.9175,5.9175,5.9175,5.9175,5.9175,5.9175,5.9252,5.9344,5.9344,5.9267,5.9175,5.9131,5.9147,5.9147,5.9147,5.9152,5.9175,5.9175,5.9175,5.9214,5.9318,5.9344,5.9374,5.9515,5.9546,5.9556,5.963,5.9638,5.9654,5.9759,5.9768,5.9817,6.0023,5.9903,5.9764,5.9707,5.9609,5.9536,5.9493,5.9334,5.8782,5.7543,5.6999,5.6339,5.531,5.3688,5.315,5.4492,5.2438,5.1491,5.2676,5.1179,4.9954,4.9447,4.9353,4.9297,4.9269,4.9285,4.9285,4.9285,4.9285,4.9285,4.9285,4.9285,4.9326,4.9428,4.9413,4.9385,4.3843,4.5671,4.7088,4.4554,4.3638,4.1824,3.5998,3.3979,3.3402,3.3702,0.0,0.0,0.0,0.0,0.0,0.0,3.9953,0.0,0.0,0.0,5.0024,0.0,0.0,0.0,0.0,0.0,0.0,0.0,5.591,5.5292,5.8351,5.8407,5.8255,5.8076,5.8076,5.8076,5.8076,5.8387,5.8536,5.8536,5.8536,5.8536,5.8536,5.8536,5.8536,5.8536,5.8536,5.8536,5.8536,5.8536,5.8672,5.8857,5.8706,5.861,5.8536,5.8536,5.8617,5.8747,5.8747,5.892,5.9089,5.9089,5.9089,5.9097,5.9192,5.9195,5.9215,5.9374,5.9379,5.9406,5.9469,5.9493,5.9515,5.9592,5.9609,5.9624,5.9782,5.9683,5.9592,5.9508,5.9457,5.9139,5.8386,5.7599,5.6719,5.5709,5.4962,5.4238,5.3377,5.18,5.1153,5.2242,5.0597,4.9855,5.0772,4.994,4.9348,4.9278,4.9222,4.9185,4.9185,4.9185,4.9185,4.9185,4.9185,4.9185,4.9185,4.9185,4.924,4.9301,4.9285,4.9285,4.4509,4.6244,4.81,4.4983,4.4326,4.2881,3.699,0.0,3.4791,3.3681,0.0,3.3615,3.5193,0.0,0.0,0.0,0.0,0.0,4.5196,4.8359,5.1094,5.2658,5.6553,5.859,5.7186,5.5379,5.5493,5.8384,5.5828,5.5191,5.7575,5.8014,5.8014,5.769,5.7656,5.7656,5.7656,5.7724,5.7724,5.7724,5.7724,5.7724,5.7724,5.7724,5.7724,5.7724,5.7724,5.7724,5.7724,5.7724,5.7919,5.8226,5.7789,5.769,5.7724,5.7724,5.7951,5.8255,5.8255,5.8553,5.8957,5.8957,5.8981,5.9005,5.9005,5.9066,5.9119,5.9215,5.9287,5.9301,5.9393,5.9432,5.9432,5.9457,5.9457,5.9469,5.9481,5.9469,5.9419,5.9318,5.9117,5.8388,5.6596,5.5149,5.4176,5.3989,5.2643,5.1634,5.1447,5.0138,4.9185,4.9185,4.9269,4.9301,4.9204,4.9285,4.928,4.9166,4.9185,4.9185,4.9185,4.9185,4.9185,4.9185,4.9185,4.9185,4.9185,4.9185,4.9185,4.9185,4.9185,4.9185,4.3873,4.5263,4.669,4.6121,4.4312,4.2343,0.0,0.0,0.0,4.009,3.9406,3.8899,4.0571,0.0,0.0,0.0,0.0,0.0,0.0,5.2316,0.0,5.726,5.7875,5.8006,5.7605,5.7228,5.724,5.7841,5.733,5.7193,5.7722,5.7516,5.7332,5.7254,5.7254,5.7254,5.7254,5.7587,5.7724,5.7724,5.7724,5.7724,5.7724,5.7724,5.7724,5.7724,5.7724,5.7724,5.7724,5.7724,5.7792,5.7825,5.7443,5.748,5.7724,5.7724,5.7755,5.7858,5.7858,5.7924,5.7988,5.7988,5.8204,5.8462,5.8462,5.8784,5.9112,5.9141,5.9104,5.9126,5.9168,5.9152,5.9175,5.9301,5.9312,5.9359,5.9457,5.9417,5.9334,5.9301,5.8088,5.6579,5.4945,5.4438,5.3765,5.2419,5.1933,5.1223,4.982,4.9372,4.9185,4.9185,4.9204,4.9204,4.9204,4.9204,4.9204,4.9185,4.9185,4.9185,4.9185,4.9185,4.9185,4.9185,4.9185,4.9185,4.9185,4.9185,4.9185,4.9185,4.9185,4.9185,4.2689,4.3858,4.5075,4.4086,4.3631,0.0,0.0,3.9193,3.8899,3.967,3.9102,3.8984,4.0687,4.1663,4.2439,4.323,4.7559,5.0633,5.0019,5.3366,5.6202,5.695,5.7502,5.7804,5.7722,5.7025,5.6811,5.7407,5.7407,5.7295,5.7101,5.7098,5.7014,5.6766,5.6724,5.6724,5.6724,5.6941,5.7025,5.7025,5.7025,5.7025,5.7025,5.7025,5.7025,5.7025,5.7025,5.7025,5.7025,5.7025,5.7025,5.7061,5.685,5.6855,5.7025,5.7025,5.7219,5.7407,5.7407,5.7587,5.7724,5.7724,5.7854,5.8014,5.8014,5.835,5.8784,5.9028,5.9089,5.9089,5.9089,5.9089,5.9097,5.9172,5.9213,5.8989,5.8213,5.8632,5.8687,5.7093,5.5326,5.3877,5.3092,5.227,5.141,5.055,5.0438,5.0138,4.9297,4.9185,4.9185,4.9185,4.9185,4.9185,4.9185,4.9185,4.9185,4.9185,4.9185,4.9185,4.9185,4.9185,4.9185,4.9185,4.9185,4.9185,4.9185,4.8841,4.8704,4.8704,4.8704,4.8704,4.1588,4.2803,4.3935,4.2244,4.3017,0.0,3.9868,3.9969,4.0585,3.9726,3.9532,3.9919,4.1315,4.2593,4.3424,4.3424,4.6978,4.991,5.0319,5.2536,5.4226,5.445,5.5477,5.635,5.6788,5.555,5.5367,5.6869,5.6855,5.6646,5.6404,5.6603,5.6603,5.6151,5.6151,5.6151,5.6151,5.6278,5.6359,5.6359,5.6359,5.6359,5.6359,5.6359,5.6359,5.6359,5.6359,5.6359,5.6359,5.6359,5.6187,5.5966,5.5966,5.5966,5.5966,5.5966,5.6216,5.6574,5.6736,5.6989,5.7261,5.7443,5.7515,5.7621,5.7621,5.7887,5.8321,5.8733,5.8846,5.8871,5.9066,5.9005,5.8869,5.864,5.8887,5.8551,5.6532,5.7429,5.7541,5.3952,5.2419,5.1597,5.1297,5.0101,4.9185,4.9185,4.9185,4.9185,4.9185,4.9185,4.9185,4.9185,4.9185,4.9185,4.9185,4.9185,4.9185,4.9185,4.9185,4.9147,4.9073,4.9073,4.9035,4.8998,4.8974,4.9008,4.9008,4.8446,4.8215,4.8215,4.8215,4.8215,4.129,4.3018,4.4319,4.4195,4.3224,0.0,4.5405,4.4998,4.4948,0.0,4.8081,4.8057,4.8283,4.8081,4.7875,4.7875,4.9311,5.0246,4.9766,4.9685,5.0022,5.0976,5.0835,5.142,5.3374,5.2903,5.3547,5.6261,5.5813,5.567,5.6323,5.5801,5.5393,5.5343,5.5343,5.5343,5.5343,5.6013,5.6359,5.6359,5.6359,5.6359,5.6359,5.6359,5.6359,5.6359,5.6359,5.6359,5.6359,5.6359,5.5645,5.45,5.45,5.45,5.45,5.45,5.4466,5.4626,5.5209,5.5455,5.56,5.6297,5.685,5.7215,5.7215,5.748,5.7825,5.7858,5.7891,5.8051,5.8871,5.8747,5.8145,5.71,5.799,5.8252,5.5149,5.5709,5.5448,5.0662,5.0811,5.1223,4.9708,4.9297,4.9185,4.9185,4.9185,4.9185,4.9185,4.9185,4.9185,4.9185,4.9185,4.9185,4.9185,4.9185,4.9185,4.9185,4.9185,4.9035,4.868,4.8642,4.8568,4.8343,4.8312,4.8325,4.8325,4.8243,4.8215,4.8215,4.8215,4.8215,3.8872,4.0265,4.1491,4.1569,0.0,0.0,4.3324,4.3778,4.4567,4.6811,4.7269,4.7519,4.8507,4.8522,4.8357,4.8357,4.7801,4.7286,4.7016,4.7605,4.8263,4.8674,5.0158,5.1475,5.2404,5.2201,5.2823,5.4972,5.3984,5.3828,5.5042,5.4819,5.4626,5.4626,5.4626,5.4626,5.4626,5.4975,5.5163,5.5163,5.5163,5.5163,5.5163,5.5163,5.5163,5.5163,5.5163,5.5163,5.5163,5.5163,5.4767,5.4228,5.4228,5.4228,5.4228,5.4228,5.4228,5.4283,5.452,5.4626,5.4679,5.5026,5.5244,5.5504,5.5917,5.6011,5.6215,5.7109,5.7224,5.7224,5.8076,5.8144,5.7867,5.7568,5.8063,5.7665,5.3995,5.4979,5.5111,5.0119,4.9745,5.0007,4.9297,4.9185,4.9185,4.9185,4.9185,4.9185,4.9185,4.9185,4.9185,4.9185,4.9185,4.9185,4.9185,4.9185,4.9185,4.9185,4.9185,4.8994,4.8611,4.8603,4.8491,4.8221,4.8197,4.8203,4.8203,4.7752,4.7515,4.7515,4.7515,4.7515,3.7531,0.0,0.0,0.0,0.0,0.0,4.2979,4.3589,4.4415,4.5813,4.6085,4.6422,4.7456,4.7583,4.7425,4.7087,4.578,4.4633,4.4262,4.5343,4.6122,4.5955,4.8111,5.0059,5.1092,5.0892,5.1676,0.0,5.3011,5.2819,5.4159,5.4228,5.4117,5.3949,5.3915,5.3915,5.3915,5.4117,5.4228,5.4228,5.4228,5.4228,5.4228,5.4228,5.4228,5.4228,5.4228,5.3971,5.3571,5.3571,5.3571,5.3571,5.3571,5.3571,5.3571,5.3571,5.3571,5.3629,5.3835,5.3915,5.3949,5.4173,5.4228,5.4338,5.4784,5.48,5.4864,5.6029,5.6238,5.6233,5.6847,5.7297,5.7476,5.7068,5.7546,5.6844,5.2495,5.3685,5.4235,4.9783,4.892,4.8896,4.8896,4.8891,4.8928,4.9011,4.9011,4.9069,4.9147,4.9185,4.9128,4.9032,4.9011,4.8991,4.8907,4.8907,4.8907,4.8907,4.8907,4.8751,4.8342,4.8331,4.8187,4.7904,4.7879,4.7879,4.7904,4.7313,4.7021,4.7021,4.7021,4.7021,0.0,0.0,0.0,4.3297,4.3642,4.4443,4.7342,4.6757,4.5923,4.6981,4.7208,4.7009,4.6417,4.6038,4.5382,4.4238,4.4028,4.3474,4.2099,4.2622,4.2886,4.2217,4.3013,4.5005,4.8569,4.8197,4.9539,5.3877,5.3479,5.3363,5.4173,5.4228,5.3892,5.31,5.3133,5.3133,5.3133,5.3858,5.4228,5.4228,5.4228,5.4228,5.4228,5.4228,5.4228,5.4228,5.4228,5.3371,5.1949,5.1949,5.1949,5.1949,5.1949,5.1949,5.1949,5.1949,5.1949,5.2078,5.283,5.3133,5.3219,5.3971,5.4228,5.4228,5.4283,5.4283,5.4248,5.4338,5.4576,5.4943,5.5189,5.6234,5.6673,5.4664,5.5822,5.5855,5.0461,5.1211,5.2029,4.8848,4.8225,4.8226,4.8226,4.8231,4.8315,4.8569,4.8617,4.8767,4.9128,4.9185,4.9032,4.8663,4.8617,4.8534,4.827,4.8243,4.8243,4.8243,4.8243,4.8028,4.7656,4.7639,4.7484,4.7058,4.7058,4.7058,4.7094,4.7057,4.7021,4.7021,4.7021,4.7021,3.7329,3.9481,4.187,4.3139,4.3729,4.4272,4.5257,4.5379,4.5414,4.5745,4.5815,4.5732,4.5522,4.3862,4.2348,4.1934,4.185,4.1675,4.1201,4.1353,4.1505,4.1234,4.3089,4.4895,4.6077,4.7602,4.9443,5.1588,5.1489,0.0,5.2645,5.2707,5.2521,5.2302,5.2302,5.2302,5.2302,5.2554,5.2707,5.2707,5.2707,5.2707,5.2707,5.2707,5.2707,5.2707,5.2707,5.2428,5.1883,5.1883,5.1883,5.1883,5.1883,5.1883,5.1883,5.1883,5.1883,5.1949,5.2174,5.2302,5.2365,5.2583,5.2707,5.2769,5.3279,5.31,5.2858,5.3949,5.3958,5.3778,5.4377,5.5209,5.5796,5.5641,5.6415,5.6312,5.3112,5.0883,4.9261,4.8398,4.8188,4.8215,4.8215,4.8194,4.8247,4.8331,4.8473,4.8569,4.8522,4.8714,4.8677,4.8357,4.8342,4.8315,4.8215,4.8215,4.8215,4.8215,4.8215,4.8043,4.7639,4.7611,4.745,4.7021,4.7021,4.6828,4.6424,4.6424,4.6632,4.7021,4.7021,4.7021,3.7754,3.981,4.2018,4.3019,4.3979,4.4652,4.4529,4.4559,4.4599,4.4393,4.4114,4.383,4.3574,4.2056,4.0678,4.0425,4.0075,3.972,3.9391,3.9655,3.985,3.985,4.2397,4.4311,4.4877,4.6929,4.8747,4.9903,5.0006,5.022,5.0848,5.0848,5.1017,5.1387,5.1387,5.1554,5.1883,5.1883,5.1752,5.1387,5.1752,5.1752,5.1387,5.1752,5.1883,5.1883,5.1521,5.1587,5.1883,5.1883,5.1883,5.1883,5.1883,5.1883,5.1883,5.1883,5.1686,5.1387,5.1387,5.1153,5.0848,5.0848,5.1085,5.1521,5.1979,5.2012,5.211,5.31,5.304,5.283,5.3571,5.4104,5.4644,5.5414,5.5993,5.5734,5.3662,5.1082,4.8937,4.799,4.7788,4.7807,4.7807,4.7815,4.7831,4.797,4.8169,4.8251,4.8215,4.8368,4.8331,4.8043,4.7984,4.7924,4.7801,4.7807,4.7807,4.7807,4.7807,4.7578,4.7098,4.7062,4.6843,4.6335,4.6335,4.6284,4.6061,4.6061,4.6395,4.7021,4.7021,4.7021,3.978,4.1458,4.2574,4.3213,4.4482,4.5591,4.5293,4.4495,4.3711,4.3072,4.2285,4.1466,4.0772,4.0615,4.0331,3.9391,3.8485,3.7649,3.677,3.7364,3.7901,3.7901,4.073,4.321,4.4577,4.6001,4.7363,4.8752,4.8876,4.8951,4.9025,4.9025,4.9395,5.0393,5.0495,5.088,5.1752,5.1719,5.132,5.0463,5.132,5.132,5.0565,5.1387,5.1719,5.1752,5.0912,5.1049,5.1818,5.1883,5.1883,5.1883,5.1916,5.1884,5.1884,5.1916,5.135,5.0591,5.0527,4.9895,4.9057,4.9025,4.9646,5.0495,5.0495,5.1049,5.1719,5.1719,5.1818,5.1981,5.2735,5.3013,5.3253,5.4005,5.4506,5.4324,5.2303,5.1719,5.0686,4.7554,4.6984,4.6984,4.6984,4.7021,4.7169,4.757,4.7607,4.7775,4.8101,4.8159,4.8014,4.7647,4.7581,4.745,4.7058,4.7021,4.7021,4.7021,4.6984,4.6683,4.6096,4.6054,4.5723,4.5121,4.5029,4.5336,4.5971,4.5971,4.6295,4.6946,4.6946,4.6946,4.0549,4.2177,4.3498,4.5648,4.5633,4.5356,4.6322,4.4726,4.3023,4.2837,4.1894,4.0396,3.8209,3.7748,3.7436,3.6392,3.6049,3.5824,3.5652,3.5776,3.5899,3.5899,3.9031,4.1312,4.1658,4.4403,4.6601,4.7773,4.7773,4.8191,4.8951,4.9025,4.91,4.9395,4.9395,4.9469,4.9759,4.9759,4.9614,4.9395,4.9614,5.0006,5.0533,5.0006,4.9759,4.9759,5.0323,5.0705,5.0912,5.162,5.1883,5.1916,5.1873,5.1932,5.1895,5.1887,5.1791,5.1403,5.0413,4.9971,4.9611,4.9119,4.9174,4.9395,4.9395,4.9542,4.9759,4.9759,5.0291,5.0948,5.112,5.2075,5.3133,5.3279,5.4283,5.4938,5.4423,5.212,4.9219,4.6173,4.5978,4.63,4.63,4.6711,4.7095,4.7169,4.7443,4.7538,4.7381,4.7581,4.7614,4.7241,4.7169,4.7169,4.7021,4.7021,4.7021,4.7021,4.6605,4.6254,4.6054,4.5601,4.5291,4.5075,4.4216,4.4098,4.4606,4.4606,4.4937,4.5558,4.5558,4.5558,4.1096,4.2143,4.2904,4.4517,4.4716,4.4584,4.508,4.4023,4.2857,4.2282,4.0508,3.8367,3.6411,3.6029,3.5879,3.5271,3.4809,3.4497,3.4497,3.4497,3.4497,3.4497,3.7613,3.9767,3.9767,4.2517,4.4728,4.5915,4.5998,4.6493,4.7567,4.7646,4.7942,4.8575,4.8376,4.8498,4.9025,4.9025,4.9025,4.9025,4.9025,4.9025,4.9174,4.9025,4.9025,4.9025,4.91,4.9395,4.9935,5.0431,5.0641,5.0603,5.0603,5.0419,5.022,5.0234,5.0174,5.0133,4.933,4.8698,4.8107,4.7707,4.802,4.8545,4.8376,4.8619,4.9025,4.9025,4.9395,4.9935,5.0393,5.1255,5.2044,5.2458,5.3464,5.4069,5.3471,5.1321,4.8905,4.657,4.5861,4.5739,4.5997,4.638,4.6683,4.6984,4.7241,4.731,4.7058,4.7241,4.7276,4.7058,4.6796,4.6605,4.6605,4.6371,4.6213,4.6213,4.5851,4.5514,4.5246,4.4843,4.4558,4.4316,4.3645,4.3592,4.4115,4.4115,4.4461,4.5075,4.5075,4.5075,4.1364,4.1798,4.2038,4.2287,4.3117,4.3719,4.3272,4.3185,4.2786,4.1317,3.8774,3.6431,3.5177,3.4964,3.4964,3.4809,3.3866,3.3143,3.3143,3.3168,3.3112,3.3143,3.6462,3.8676,3.8516,4.0716,4.2659,4.3732,4.3849,4.435,4.5612,4.5583,4.6257,4.77,4.74,4.7676,4.8514,4.8605,4.8574,4.8574,4.8574,4.8191,4.7488,4.8268,4.8574,4.8543,4.7803,4.7929,4.8801,4.8951,4.9025,4.8951,4.8907,4.8327,4.7655,4.7702,4.7295,4.6848,4.7278,4.6736,4.5812,4.5669,4.6565,4.771,4.734,4.7881,4.8574,4.8574,4.8694,4.8994,4.9935,5.0252,5.0533,5.1521,5.2141,5.2149,5.0915,4.9773,4.8655,4.7449,4.5836,4.4896,4.5705,4.5862,4.6172,4.679,4.6905,4.6944,4.7021,4.7021,4.7021,4.7021,4.6451,4.6054,4.6054,4.547,4.5075,4.5075,4.5029,4.4701,4.4165,4.4099,4.3808,4.3368,4.3368,4.3539,4.3998,4.3998,4.4299,4.4877,4.4749,4.4749,4.0929,4.1804,4.2994,4.413,4.3899,4.3777,4.4926,4.3684,4.1733,3.9602,3.8073,3.6404,3.4312,3.3866,3.3652,3.2729,3.1684,3.0876,3.0876,3.0571,3.0554,3.0814,3.5597,3.8511,3.7502,4.0268,4.2293,4.2477,4.2477,4.3049,4.4378,4.415,4.4637,4.6162,4.6155,4.6265,4.6449,4.6433,4.6417,4.6417,4.6417,4.6797,4.7409,4.6715,4.6417,4.65,4.709,4.7567,4.7773,4.865,4.9025,4.8951,4.8406,4.728,4.5959,4.6158,4.3635,4.0501,4.3374,4.4997,4.5728,4.4744,4.5214,4.6228,4.6199,4.6252,4.6417,4.6417,4.708,4.7746,4.7898,4.865,4.9542,5.0533,5.0188,4.9633,4.9411,4.7418,4.5854,4.6233,4.4251,4.2908,4.4252,4.4892,4.5475,4.6148,4.6262,4.6465,4.6946,4.7021,4.7021,4.7021,4.6451,4.6054,4.6054,4.547,4.5075,4.5075,4.4606,4.4265,4.4115,4.3718,4.3444,4.3368,4.3368,4.3389,4.3465,4.3465,4.3518,4.3625,4.2863,4.2919,4.1804,4.1879,4.1998,4.2645,4.2146,4.1583,4.1926,4.1232,3.9891,3.7405,3.614,3.4844,3.3175,3.235,3.1743,3.1262,3.015,2.9299,2.8902,2.866,2.8748,2.9344,3.2899,3.5643,3.6606,3.7868,3.93,4.1177,4.1297,4.1686,4.2478,4.3194,4.3622,4.3941,4.3932,4.4595,4.5876,4.5901,4.5874,4.5874,4.587,4.6086,4.6552,4.4814,4.3942,4.4002,4.447,4.47,4.47,4.5238,4.549,4.5406,4.5071,4.4211,4.3172,4.3292,4.2089,4.0575,4.1803,4.2941,4.3823,4.3268,4.3787,4.4524,4.4118,4.395,4.4068,4.4547,4.5129,4.5998,4.7384,4.7979,4.8422,4.95,4.8472,4.7395,4.7809,4.6857,4.5602,4.4571,4.3294,4.2397,4.2382,4.3281,4.4329,4.5419,4.5534,4.5703,4.6002,4.6032,4.6026,4.6008,4.5427,4.5052,4.5075,4.4529,4.4166,4.4166,4.3893,4.3737,4.3737,4.3465,4.3368,4.3368,4.3368,4.3115,4.2625,4.2625,4.2454,4.2048,4.1568,4.1628,4.1949,4.1129,4.0203,3.998,3.9606,3.9153,3.8796,3.7904,3.6775,3.5333,3.3987,3.2881,3.2178,3.1273,3.0542,3.0012,2.8771,2.7573,2.7047,2.686,2.7297,2.8411,3.1388,3.3961,3.5647,3.588,3.6866,3.9351,3.9842,4.0269,4.0851,4.1885,4.2084,4.1367,4.1394,4.2309,4.4281,4.4802,4.5138,4.534,4.5156,4.5043,4.5014,4.2912,4.1975,4.1975,4.2148,4.232,4.252,4.252,4.2374,4.2175,4.2175,4.1645,4.0944,4.0944,4.1087,4.1281,4.0675,4.126,4.2178,4.1857,4.2428,4.3077,4.2385,4.2148,4.2293,4.3066,4.3414,4.4226,4.6191,4.6575,4.6508,4.73,4.6203,4.5192,4.6042,4.6066,4.5271,4.3267,4.2679,4.2116,4.1019,4.176,4.2863,4.4013,4.4449,4.4699,4.4811,4.5029,4.5041,4.4827,4.4415,4.4133,4.4132,4.3625,4.3368,4.3368,4.3368,4.3368,4.3368,4.317,4.2971,4.2803,4.2803,4.2454,4.1716,4.1716,4.1416,4.0803,4.0615,4.0615,3.9375,3.8747,3.814,3.735,3.7214,3.7585,3.8604,3.483,3.1638,3.3526,3.2192,3.0955,3.1864,3.1961,3.1229,2.9068,2.688,2.5407,2.5296,2.5319,2.6065,2.8342,3.4131,3.6852,3.4126,3.6479,3.7752,3.6814,3.7934,3.9255,4.0372,3.9529,3.8892,3.8867,3.8852,3.8971,3.9185,4.1394,4.2958,4.3734,4.2876,4.2541,4.245,4.1551,4.1089,4.1142,4.183,4.2693,4.3468,4.3468,4.292,4.2175,4.2175,4.1459,4.0468,4.0468,3.98,3.8789,3.8707,4.0226,4.1981,4.0951,4.1361,4.2293,4.2175,4.2197,4.2174,4.2271,4.232,4.2385,4.2622,4.2686,4.2728,4.2763,4.2631,4.2827,4.412,4.3471,4.2742,4.3217,4.2328,4.1388,4.0926,4.0951,4.1058,4.1175,4.2315,4.3366,4.3957,4.4621,4.4838,4.4113,4.4116,4.4134,4.4134,4.3674,4.3368,4.3368,4.3368,4.3368,4.3368,4.2568,4.1807,4.1082,4.1082,4.102,4.0927,4.0927,4.0896,4.0803,3.9946,4.001,3.9987,3.8074,3.6199,3.6601,3.5853,3.5121,3.5641,3.2861,3.0441,3.1416,3.1185,3.0798,3.0698,2.9922,2.8679,2.6743,2.5663,2.5095,2.5095,2.5038,2.4165,2.197,2.6875,3.204,3.6113,3.5036,3.5058,3.7442,3.7389,3.7833,3.9156,3.876,3.844,3.844,3.8487,3.8487,3.844,3.9433,4.091,4.2751,4.0865,3.991,3.996,3.964,3.9493,3.9467,3.8884,3.8884,3.9131,3.8954,3.9325,3.9875,3.8701,3.8049,3.7586,3.6917,3.6021,3.5125,3.5755,3.6957,3.8188,3.7081,3.7027,3.7421,3.7411,3.7361,3.7277,3.6715,3.8118,3.9799,3.9706,4.0893,4.1804,4.0256,4.0481,4.1465,4.2669,4.2569,4.2098,4.1697,4.1075,4.0428,3.9435,3.9662,4.0021,4.0025,4.0922,4.1779,4.2011,4.234,4.2403,4.2074,4.2094,4.2159,4.2133,4.2373,4.2526,4.2526,4.3028,4.2859,4.1898,4.1508,4.1112,4.0803,4.0803,4.0552,4.001,4.001,3.9781,3.9281,3.8974,3.8944,3.9717,3.7058,3.4589,3.5578,3.4209,3.2654,3.2654,3.107,2.9572,2.9202,2.9648,2.9626,2.8525,2.7469,2.6371,2.5239,2.5095,2.5092,2.5092,2.368,2.1591,1.8452,2.1467,2.7006,3.5169,3.4385,3.4408,3.7044,3.7073,3.746,3.8402,3.8482,3.8485,3.8485,3.8485,3.8485,3.8485,3.8489,3.9348,4.1085,3.9351,3.851,3.8542,3.8542,3.8043,3.7122,3.6171,3.526,3.4492,3.4746,3.5767,3.7075,3.5767,3.5268,3.5246,3.447,3.3633,3.2989,3.3911,3.4579,3.4861,3.4339,3.4167,3.4251,3.4174,3.4152,3.4062,3.3434,3.5107,3.7064,3.7024,3.8387,3.9478,3.8044,3.8514,3.9644,4.1353,4.1681,4.1386,4.0615,4.0315,3.9762,3.8126,3.8323,3.867,3.8639,3.9139,3.9619,3.9952,3.9982,4.0094,4.0398,4.0393,4.052,4.0788,4.1344,4.1647,4.1633,4.2236,4.1957,4.0458,4.0425,4.0298,4.0041,4.0041,3.9781,3.9117,3.9117,3.8808,3.8274,3.8274,3.8274,3.7443,3.523,3.3348,3.3607,3.1969,3.0386,3.0386,2.9431,2.8235,2.7058,2.7208,2.6919,2.5397,2.5152,2.5092,2.5073,2.5092,2.5092,2.5092,2.0505,1.8003,2.0293,2.059,2.315,2.9464,3.5079,3.7244,3.4423,3.69,3.8443,3.8523,3.8474,3.8485,3.8485,3.8485,3.8485,3.8485,3.8485,3.8485,3.8509,3.8485,3.8512,3.844,3.844,3.69,3.4276,3.4276,3.2587,3.016,3.2099,3.3376,3.4276,3.4276,3.4276,3.4276,3.4169,3.3631,3.3015,3.3912,3.3652,3.3077,3.3929,3.4192,3.4169,3.4254,3.423,3.4205,3.4192,3.4254,3.4295,3.42,3.4248,3.4675,3.6058,3.6352,3.7176,3.987,4.0416,4.0492,4.0449,4.046,3.9684,3.7179,3.6725,3.6771,3.6791,3.6686,3.6964,3.7971,3.814,3.8483,3.9406,3.9352,3.9696,4.0706,4.0782,4.0854,4.0807,4.0816,4.0425,3.9488,3.9488,3.9117,3.8315,3.8315,3.8344,3.8344,3.8344,3.8315,3.8274,3.8274,3.8274,3.882,3.5954,3.3098,3.2573,3.136,2.9867,2.826,2.7058,2.6526,2.788,2.6891,2.6358,2.8083,2.6611,2.5095,2.5054,2.5048,2.3821,2.0138,1.8149,1.5952,1.2897,1.7328,2.14,2.3349,2.9013,3.3855,3.6953,3.62,3.6398,3.8443,3.8506,3.8445,3.8509,3.8485,3.8485,3.8485,3.8485,3.8454,3.8488,3.4562,3.4656,3.8464,3.8464,3.6923,3.4169,3.3544,3.2806,3.1904,3.1215,3.1073,3.1263,3.1263,3.1263,3.1263,3.1263,3.106,3.0895,3.1171,3.108,3.0914,3.1158,3.1323,3.1263,3.1263,3.133,3.1262,3.1323,3.1971,3.2475,3.1564,3.1986,3.2899,3.3347,3.421,3.5414,3.722,3.7629,3.79,3.8883,3.9144,3.8859,3.805,3.7292,3.6752,3.6746,3.6115,3.5722,3.6049,3.6091,3.6206,3.651,3.6473,3.6584,3.6892,3.7557,3.8166,3.895,3.7739,3.6803,3.6539,3.6539,3.642,3.6179,3.6179,3.6179,3.6179,3.6179,3.6179,3.6179,3.6179,3.6179,3.9315,3.6194,3.2948,3.1594,3.0449,2.908,2.6692,2.5565,2.5475,2.7032,2.6638,2.6808,2.9466,2.7312,2.4996,2.4886,2.4044,2.1943,1.779,1.6221,1.3966,0.9894,1.4916,1.8195,1.6861,2.269,2.8868,3.4827,3.2516,3.2156,3.5069,3.6329,3.7305,3.8458,3.847,3.8474,3.8474,3.8482,3.8542,3.8359,3.2652,3.1757,3.5256,3.5256,3.4276,3.2567,3.2029,3.1737,3.1625,2.9842,2.9026,2.9026,2.8435,2.8205,2.8205,2.8205,2.8205,2.8205,2.8205,2.8205,2.8205,2.8205,2.8205,2.8223,2.8162,2.8179,2.8367,2.8887,2.9725,3.0172,2.9333,2.9765,3.0705,3.1759,3.2765,3.3749,3.5255,3.5483,3.5939,3.7248,3.7411,3.7475,3.7611,3.662,3.5848,3.6204,3.4913,3.4183,3.4575,3.4576,3.4471,3.4104,3.4755,3.5195,3.517,3.5682,3.6333,3.6927,3.5528,3.4809,3.5195,3.5195,3.5195,3.5195,3.5195,3.5195,3.5195,3.5195,3.5195,3.5195,3.5195,3.5195,3.9222,3.6217,3.2952,3.0869,2.9519,2.8034,2.5659,2.5038,2.5057,2.5209,2.6277,2.7714,2.9243,2.7103,2.4881,2.447,2.2142,1.9663,1.7552,1.4745,1.2367,1.0644,1.3348,1.4032,1.1113,1.6584,2.2767,2.8756,2.6819,2.657,2.9401,3.2386,3.5139,3.778,3.7865,3.8117,3.8491,3.8523,3.8236,3.7754,3.2492,2.991,2.9955,2.9955,2.9974,2.9993,2.9993,2.9879,2.9633,2.809,2.7379,2.7263,2.586,2.5287,2.5287,2.5287,2.5287,2.5287,2.5287,2.5287,2.5287,2.5287,2.5287,2.5303,2.5209,2.5257,2.564,2.7001,2.7409,2.7349,2.7462,2.7541,2.8206,3.1117,3.1745,3.219,3.376,3.4083,3.442,3.539,3.5702,3.5909,3.6197,3.5122,3.4479,3.514,3.3526,3.2531,3.3411,3.3491,3.3112,3.2174,3.3721,3.4834,3.496,3.489,3.4837,3.4812,3.3941,3.3866,3.4886,3.4964,3.4964,3.4964,3.4964,3.4964,3.4964,3.4964,3.4964,3.4964,3.4964,3.4964,4.1024,3.8068,3.4884,3.1168,3.0012,2.8969,2.5826,2.5038,2.5323,2.6107,2.5968,2.5772,2.6116,2.5584,2.4338,2.1903,2.0062,1.7805,1.5089,1.4411,1.3299,1.0822,1.1604,1.2857,1.4291,1.5758,1.8455,2.2498,2.4286,2.5628,2.6311,2.9215,3.1252,3.195,3.1953,3.4036,3.8489,3.8476,3.6291,3.1888,3.0536,2.991,2.9955,2.9955,2.9993,2.9894,2.9894,2.8992,2.7505,2.6279,2.5877,2.5759,2.5405,2.5287,2.5287,2.5287,2.5287,2.5287,2.5287,2.5287,2.5287,2.5287,2.5287,2.5287,2.5216,2.5296,2.5304,2.5704,2.5216,2.5002,2.6621,2.6949,2.7257,2.8337,2.8689,2.937,3.2057,3.2905,3.3266,3.3461,3.468,3.5809,3.5905,3.5215,3.45,3.3891,3.358,3.3202,3.2556,3.2424,3.2341,3.2115,3.174,3.1823,3.2719,3.201,3.1466,3.1479,3.1262,3.1576,3.2786,3.2811,3.2811,3.2811,3.2811,3.2811,3.2811,3.2811,3.2811,3.2811,3.2811,3.2811,4.2535,3.9802,3.6794,3.3505,3.139,2.9384,2.6508,2.5491,2.5266,2.5839,2.5433,2.5044,2.5025,2.502,2.4561,2.366,2.0273,1.7176,1.5509,1.4053,1.256,1.1063,1.175,1.2637,1.3194,1.5388,1.7741,2.0378,2.277,2.4684,2.5923,2.7591,2.8996,2.9933,2.9976,3.1381,3.4495,3.458,3.3001,2.9992,2.9932,2.9164,2.7859,2.9307,2.9455,2.85,2.7471,2.6699,2.6025,2.4725,2.4202,2.4083,2.3379,2.3153,2.3153,2.3153,2.3153,2.3153,2.3153,2.3153,2.3153,2.3153,2.3153,2.3153,2.3153,2.3076,2.33,2.4283,2.3465,2.28,2.4921,2.5359,2.5592,2.6361,2.7053,2.799,2.9399,3.0616,3.1476,3.151,3.2414,3.3354,3.4297,3.3613,3.2964,3.2956,3.2402,3.1682,3.1079,3.0713,3.0432,3.0432,2.988,2.9794,3.0398,2.9874,2.9499,2.9535,2.9538,2.9794,3.0488,3.0464,3.0726,3.1275,3.1275,3.1563,3.2115,3.2115,3.2115,3.2115,3.2115,3.1756,4.412,4.1734,3.9127,3.6498,3.3194,2.9897,2.736,2.59,2.5038,2.5038,2.5038,2.5095,2.5057,2.5096,2.5324,2.5915,2.1291,1.7352,1.6851,1.3884,1.1621,1.1206,1.2471,1.2727,1.1188,1.4878,1.8117,1.991,2.1631,2.3783,2.6446,2.6777,2.7868,2.9842,2.9967,2.9906,2.9906,2.9897,2.9898,2.989,2.948,2.7939,2.5572,2.8195,2.8248,2.609,2.4363,2.396,2.4456,2.3138,2.2642,2.2414,2.1117,2.0652,2.0652,2.0652,2.0652,2.0529,2.0283,2.027,2.027,2.027,2.0393,2.0652,2.0652,2.0652,2.0938,2.277,2.1934,2.1007,2.2762,2.3288,2.3559,2.4647,2.5945,2.7013,2.6979,2.8453,2.9935,2.9917,2.9977,3.0439,3.2112,3.1641,3.1181,3.2214,3.1026,2.9913,2.9761,2.9102,2.8527,2.857,2.8414,2.8411,2.8557,2.8432,2.8195,2.8022,2.8173,2.8332,2.8336,2.846,2.9063,3.0068,3.0045,3.063,3.184,3.1624,3.1624,3.184,3.1588,3.1032,4.6019,4.4755,4.2772,3.8332,3.4854,3.1432,2.7637,2.59,2.5038,2.5038,2.5038,2.5057,2.5076,2.6148,2.5837,2.2286,2.0452,1.8496,1.5736,1.4506,1.308,1.0865,1.1093,1.2029,1.3186,1.4012,1.5622,1.8253,1.9922,2.2208,2.5373,2.678,2.8188,2.9842,2.9898,2.9973,2.9973,2.9917,2.9898,2.9871,2.7275,2.618,2.6597,2.7121,2.5955,2.3514,2.3214,2.24,2.1252,2.1007,2.1007,2.0885,2.0652,2.0652,2.0652,2.0652,2.0652,2.0393,1.9022,1.8525,1.8525,1.8525,1.9406,2.0652,2.0652,2.0652,2.0652,2.0938,2.0801,2.0652,2.1007,2.113,2.1443,2.2889,2.3796,2.4939,2.7031,2.8756,2.9912,2.9973,2.999,3.0009,3.031,3.1191,3.1645,3.0953,3.1028,3.0829,2.9913,2.9034,2.8617,2.857,2.7673,2.7506,2.8488,2.7625,2.6682,2.5694,2.6499,2.7103,2.7089,2.8047,2.866,2.8837,2.8814,2.9444,3.0581,2.9576,2.9599,3.0581,2.9541,2.9014,4.7353,4.6042,4.3709,3.8812,3.5226,3.1765,2.7705,2.5281,2.39,2.39,2.436,2.4689,2.4689,2.5205,2.5318,2.3975,2.2217,2.0493,1.9049,1.6699,1.4605,1.3401,1.1786,1.116,1.1954,1.3082,1.4367,1.5632,1.7857,2.018,2.2464,2.5002,2.703,2.8683,2.9482,2.9936,2.9877,2.9877,2.9126,2.7341,2.5978,2.46,2.3512,2.4611,2.3844,2.1578,2.071,1.9862,1.9146,1.8253,1.8377,1.9282,1.9282,1.9777,2.0529,1.9529,1.9282,1.9022,1.7255,1.6743,1.6743,1.6743,1.7244,1.8004,1.9022,1.9282,1.9146,1.8862,1.9628,2.0652,2.0652,2.0652,2.0736,2.1469,2.2527,2.3335,2.37,2.5334,2.6871,2.8064,2.8213,2.8619,2.9804,3.0428,3.0758,3.024,2.9357,2.872,2.8552,2.7038,2.6195,2.662,2.6178,2.6145,2.6597,2.6198,2.56,2.5133,2.56,2.5841,2.5841,2.6407,2.6723,2.6733,2.7346,2.8173,2.9368,2.8837,2.8858,2.9344,2.8793,2.8241,4.753,0.0,4.1758,3.635,3.2292,2.8599,0.0,2.2892,2.217,2.2781,2.3928,2.5007,2.5285,2.5106,2.5134,2.6107,2.3875,2.2112,2.2166,1.8702,1.5928,1.5382,1.2517,1.0614,1.057,1.2018,1.323,1.3731,1.6126,1.8626,2.1375,2.3874,2.6145,2.8081,2.8871,2.9399,2.9885,2.851,2.648,2.4146,2.4202,2.2974,2.0652,2.2242,2.1863,1.9752,1.8513,1.7891,1.738,1.6116,1.6367,1.7516,1.7516,1.8264,1.9257,1.8004,1.7516,1.7255,1.5602,1.4962,1.4962,1.4962,1.5224,1.5854,1.713,1.7255,1.6869,1.6711,1.7981,1.9393,1.9406,1.9418,1.9542,1.9938,2.0805,2.1548,2.1158,2.2565,2.4277,2.614,2.6794,2.746,2.9069,2.937,2.937,2.937,2.7381,2.6101,2.6574,2.475,2.3759,2.4728,2.4696,2.466,2.5038,2.4527,2.4222,2.4527,2.4259,2.4086,2.4086,2.4109,2.4167,2.4167,2.4979,2.6079,2.7213,2.7589,2.7906,2.8183,2.7906,2.7283,0.0,4.1161,3.5389,2.8681,2.3581,1.9344,1.5908,1.7113,0.0,2.2286,2.4792,2.6957,2.805,2.7415,2.6497,2.612,2.4109,2.2576,2.2025,1.9643,1.7072,1.4676,1.2451,1.0979,1.0999,1.0856,1.1574,1.3604,1.4981,1.8447,2.4648,2.5153,2.6699,2.9718,2.7961,2.8001,2.9884,2.412,2.1191,2.0916,2.0903,2.0781,2.0652,2.0775,1.9616,1.7325,1.7879,1.713,1.5728,1.5602,1.5602,1.5728,1.5728,1.5854,1.5854,1.5728,1.5728,1.5476,1.3823,1.3188,1.3188,1.3188,1.433,1.5602,1.5728,1.4583,1.3697,1.5214,1.5718,1.5864,1.5924,1.5945,1.6334,1.7912,1.7833,1.8513,2.1947,2.3261,2.4084,2.517,2.6565,2.7591,2.774,2.7758,2.7758,2.7758,2.5828,2.4239,2.4382,2.3008,2.2639,2.3888,2.344,2.3645,2.4906,2.2728,2.1802,2.2965,2.1936,2.1327,2.1327,2.1265,2.1312,2.1312,2.133,2.2031,2.3316,2.4622,2.5909,2.6959,2.5795,2.5283,4.3829,3.8742,3.2375,2.544,1.9096,1.4137,1.2185,1.3036,1.5846,2.1151,2.5319,2.8557,3.0192,3.0502,2.9939,2.8387,2.691,2.5238,2.3303,2.2195,2.0026,1.5613,1.2531,1.0725,1.0725,1.0619,1.0803,1.1703,1.307,1.5486,1.8981,2.1199,2.2796,2.4094,2.3334,2.3379,2.4128,2.1743,2.0635,2.0631,2.0631,2.0561,2.0652,2.0633,2.0163,1.913,1.6534,1.4855,0.0,1.2823,1.3078,1.395,1.395,1.4583,1.5476,1.433,1.395,1.3697,1.2057,1.1431,1.1431,1.1431,1.1944,1.2448,1.2448,1.1937,1.1808,1.3451,1.471,1.5602,1.5506,1.5516,1.5768,1.6293,1.6303,1.6807,1.9343,2.0064,2.0914,2.3391,2.4267,2.5058,2.595,2.6195,2.619,2.6107,2.4622,2.3558,2.4028,2.248,2.165,2.2595,2.2078,2.1913,2.2517,2.1622,2.1216,2.1688,2.1264,2.0949,2.1045,2.0952,2.0987,2.0968,2.0952,2.1624,2.2939,2.3474,2.441,2.5665,2.4396,2.3776,4.0456,3.4792,2.7696,1.972,1.3187,0.8396,0.6723,0.9421,1.4252,2.0988,2.7345,3.2231,3.3944,3.4503,3.4034,3.1782,3.0006,2.7904,2.5206,2.4289,2.1759,1.6341,1.3639,1.1851,1.0692,1.0605,1.0552,1.0552,1.1523,1.2758,1.387,1.7047,1.9111,1.9489,2.0234,2.0609,2.0634,2.0634,2.0604,2.0652,2.0652,2.0652,2.0652,2.0574,1.9977,1.8779,1.5146,1.3078,1.2185,1.0925,1.1182,1.2185,1.2185,1.2942,1.3841,1.2695,1.2185,1.2057,1.0932,1.0552,1.0552,1.0552,1.0552,1.0552,1.0552,1.0552,1.0674,1.1937,1.3078,1.3959,1.3959,1.3959,1.4086,1.4592,1.4738,1.5399,1.7652,1.8095,1.8916,2.1687,2.2633,2.321,2.4356,2.4502,2.449,2.4526,2.321,2.2358,2.2921,2.1526,2.0736,2.1555,2.1004,2.0665,2.0665,2.0157,1.9939,2.0396,2.0031,1.9808,1.9797,1.9808,1.9808,1.9797,1.9808,2.0443,2.1705,2.1673,2.2408,2.3798,2.2764,2.2345,3.5452,2.8723,2.0616,1.0492,0.5008,0.1401,-0.151,0.6128,1.552,2.181,3.115,3.8489,3.9728,3.9584,3.8596,3.6423,3.3161,3.0125,2.7812,2.5559,2.2046,1.6639,1.5994,1.4553,1.1261,1.0594,1.0552,1.0552,1.0465,1.0519,1.057,1.3737,1.6035,1.7065,1.9381,2.0542,2.0665,2.0665,2.0652,2.0665,2.0529,2.0529,2.0652,2.0574,1.8642,1.5341,1.3697,1.2057,1.0552,1.0552,1.0552,1.0552,1.0552,1.0552,1.0552,1.0552,1.0552,1.0552,1.0552,1.0552,1.0552,1.0552,1.0552,1.0552,1.0552,1.0552,1.0552,1.0552,1.0552,1.0552,1.0552,1.0552,1.0925,1.256,1.3061,1.395,1.7255,1.8049,1.8572,2.0283,2.1783,2.2921,2.2921,2.2921,2.2921,2.2921,2.1633,2.0652,2.0652,2.0083,1.996,2.0667,2.0353,2.0027,2.0011,1.8205,1.7674,1.896,1.7864,1.7114,1.7114,1.7114,1.7114,1.7114,1.7114,1.7715,1.9076,1.9076,1.9737,2.1045,2.0984,2.0992,3.1252,2.4327,1.6516,0.9859,0.3416,-0.122,-0.0559,0.5266,1.3272,2.2915,3.1938,3.9419,4.3825,4.4229,4.3167,4.0974,3.7641,3.3758,2.9287,2.6547,2.2627,1.6417,1.5663,1.4393,1.094,1.0605,1.0552,1.0552,1.0525,1.1004,1.2227,1.3339,1.5314,1.8261,1.9251,2.0368,2.1711,2.1321,2.1253,2.1253,1.9154,1.9046,2.0574,1.8175,1.5146,1.1965,1.1402,1.0925,1.0552,1.0552,1.0552,1.0552,1.0552,1.0555,1.0706,1.0502,1.0555,1.0706,1.0625,1.0552,1.0552,1.0552,1.0552,1.0552,1.0552,1.0552,1.0552,1.0552,1.0552,1.0552,1.0552,1.0552,1.0674,1.1182,1.1303,1.1808,1.4077,1.4466,1.536,1.8264,1.9206,1.9877,2.1101,2.1224,2.1224,2.1224,2.0938,2.0652,2.0652,2.0079,1.9698,1.996,1.949,1.9008,1.8499,1.767,1.7306,1.7674,1.7306,1.7114,1.7114,1.7114,1.7114,1.7114,1.7114,1.7715,1.9076,1.9076,1.9678,2.0984,2.0949,2.0483,2.6407,2.0863,1.4893,0.9001,0.3765,0.0332,0.1912,0.7936,1.5745,2.4668,3.376,4.1281,4.5235,4.5931,4.5094,4.2604,3.9645,3.5695,3.0093,2.7298,2.3237,1.6357,1.5602,1.4213,1.0803,1.0552,1.0552,1.0552,1.0552,1.1028,1.2307,1.2355,1.3674,1.679,1.8379,1.9746,2.0978,2.146,2.1711,2.1711,1.9229,1.8646,1.9733,1.6345,1.3613,1.1741,1.1042,1.0535,1.0443,1.0555,1.0063,0.9258,1.0195,1.0099,0.9349,0.9478,0.9107,0.8651,0.8416,0.847,0.8454,0.9143,0.8917,0.8449,0.8354,0.885,0.9372,0.9372,0.9894,1.0552,1.0552,1.0552,1.0552,1.0552,1.0552,1.0932,1.2687,1.3061,1.3823,1.6492,1.7674,1.8447,1.943,2.016,2.0652,2.0652,2.0652,2.0652,2.0652,2.0316,1.9908,1.9624,1.8121,1.6905,1.6501,1.5942,1.5557,1.5404,1.5945,1.6279,1.6279,1.6806,1.7114,1.7114,1.7114,1.7511,1.8297,1.8297,1.8688,1.9463,1.9451,1.9034,2.1454,1.812,1.4659,0.8176,0.557,0.4666,0.5143,1.2443,2.0707,2.6488,3.5472,4.2857,4.461,4.5417,4.4999,4.2349,3.9958,3.6449,3.0528,2.7796,2.3711,1.6388,1.5602,1.4213,1.0803,1.0552,1.0559,1.0592,1.0592,1.0554,1.0646,1.0538,1.1532,1.3522,1.6979,1.9059,1.9466,2.1076,2.2015,2.2015,1.9904,1.8848,1.8304,1.4853,1.3369,1.3468,1.1438,1.0493,1.0287,1.0233,0.8962,0.7341,0.9641,0.9251,0.7494,0.7907,0.6927,0.5501,0.5359,0.5307,0.5555,0.6982,0.6377,0.4993,0.5248,0.6376,0.7546,0.7546,0.872,1.003,1.0159,1.0288,1.0288,1.0423,1.0552,1.0925,1.2432,1.2815,1.3316,1.4972,1.6524,1.7686,1.7822,1.917,2.0147,2.0406,2.0406,2.0406,2.0529,2.0516,2.0122,1.9334,1.6494,1.4487,1.422,1.3781,1.3323,1.2912,1.4096,1.485,1.4805,1.606,1.6703,1.6703,1.6703,1.6806,1.6909,1.6806,1.6806,1.7114,1.7012,1.7012,1.8219,1.483,1.1338,0.8796,0.7002,0.6149,0.6746,1.2702,1.9698,2.5415,3.2419,3.8954,4.3972,4.4777,4.455,4.4228,4.1091,3.6876,3.1757,2.7833,2.3091,1.6357,1.5602,1.4213,1.0803,1.0552,1.0515,1.0753,1.0772,0.9594,0.6692,0.8231,1.0124,1.2115,1.4701,1.7486,2.0641,2.0684,2.0625,2.0625,1.8294,1.6442,1.4868,1.2685,1.1699,1.1637,0.9345,0.837,0.8458,0.6136,0.6174,0.7958,0.8216,0.9512,1.0753,0.8255,0.7159,0.6965,0.5648,0.5316,0.5294,0.5697,0.4589,0.3376,0.4855,0.5464,0.5854,0.5854,0.6113,0.6635,0.8064,0.8327,0.872,1.0159,1.0552,1.0545,1.0925,1.1053,1.156,1.3197,1.3823,1.4592,1.5864,1.6367,1.7119,1.84,1.8673,1.9058,2.0406,1.9418,1.8079,1.6541,1.5282,1.4523,1.4499,1.4035,1.3567,1.3284,1.3611,1.3579,1.3342,1.3541,1.3751,1.3751,1.3751,1.4273,1.5439,1.4273,1.4909,1.7114,1.5957,1.606,1.4474,1.2319,1.034,0.8957,0.8108,0.7905,0.9089,1.389,1.9154,2.3413,2.8624,3.3998,3.8672,3.9378,3.9564,4.0575,3.7677,3.396,3.0049,2.6477,2.1995,1.6221,1.5602,1.4213,1.0803,1.0552,1.0223,0.9436,0.9442,0.7848,0.4362,0.6213,0.8382,1.0384,1.2606,1.5079,1.8198,1.8849,1.9165,1.9155,1.7073,1.5315,1.4149,1.1316,0.998,0.9736,0.7573,0.6135,0.536,0.4789,0.4367,0.451,0.6919,0.7314,0.6152,0.4246,0.3842,0.3872,0.305,0.2734,0.2728,0.2692,0.2098,0.1517,0.2416,0.3293,0.3906,0.3906,0.4553,0.5464,0.6376,0.6506,0.7024,0.872,0.9243,0.9372,1.0288,1.0552,1.0803,1.168,1.2432,1.3316,1.4204,1.4962,1.5854,1.6743,1.689,1.7141,1.8128,1.6669,1.5272,1.4448,1.3332,1.2567,1.231,1.2145,1.1874,1.1611,1.2095,1.2345,1.2146,1.2595,1.2807,1.2807,1.2807,1.3227,1.396,1.3227,1.3646,1.5013,1.4284,1.4701,1.0854,1.0128,0.9817,0.8991,0.8783,0.9174,1.0798,1.4448,1.8268,2.0693,2.4395,2.831,3.1976,3.2418,3.2906,3.5002,3.3083,3.0467,2.7687,2.5039,2.1508,1.6628,1.5728,1.4339,1.1182,1.041,0.939,0.799,0.7208,0.5548,0.2763,0.41,0.5933,0.8042,0.968,1.1779,1.4665,1.6595,1.7629,1.7481,1.5863,1.4816,1.409,1.0438,0.8597,0.8161,0.6142,0.4232,0.2725,0.4079,0.305,0.1147,0.5106,0.4415,0.0889,0.0302,0.0,0.0,0.0,0.0,0.0,0.0,0.0,0.0,0.0,0.0936,0.2086,0.2086,0.3127,0.4429,0.4686,0.4815,0.5205,0.6894,0.7287,0.7805,0.9636,1.003,1.0159,1.0423,1.168,1.256,1.256,1.3705,1.4719,1.5098,1.5088,1.5224,1.5476,1.3832,1.256,1.256,1.1303,1.0324,1.0074,1.0054,0.9929,0.9652,1.0547,1.1011,1.0893,1.1695,1.2142,1.2174,1.2174,1.227,1.2481,1.227,1.2385,1.2807,1.2586,1.3217,0.8597,0.7982,0.7363,0.8455,0.8783,0.8857,0.9381,1.2142,1.5034,1.6899,1.9246,2.2398,2.6794,2.6723,2.7327,3.126,3.0957,2.9358,2.7256,2.5878,2.3329,1.8289,1.6492,1.4836,1.2807,0.9863,0.8145,0.8077,0.5128,0.2468,0.0568,0.0727,0.1784,0.3804,0.4108,0.6968,1.237,1.45,1.5574,1.5574,1.5277,1.4218,1.2404,1.0125,0.9054,0.8725,0.4989,0.3328,0.2863,0.1333,0.1783,0.3315,0.1776,0.283,0.486,0.1219,0.0,0.0,0.0,0.0,0.0,0.0,0.0,0.0,0.0,0.0134,0.0393,0.0393,0.0524,0.1046,0.2476,0.2865,0.3386,0.5205,0.5594,0.6113,0.7805,0.8198,0.8586,1.0159,1.0674,1.0803,1.0803,1.1053,1.1688,1.3197,1.3316,1.395,1.535,1.2831,1.0803,1.0803,1.0674,1.0532,1.0364,1.0364,1.0238,0.9935,0.9998,0.987,0.947,0.952,0.9485,0.9319,0.9312,0.9839,1.0985,0.9839,1.0478,1.2807,1.1522,1.1734,0.3733,0.5694,0.6825,0.8347,0.8783,0.8817,0.8841,1.0569,1.2236,1.2537,1.4044,1.5969,1.8399,1.918,2.0633,2.4398,2.4748,2.4888,2.5786,2.5527,2.4458,2.2152,2.0473,1.8378,1.5767,1.1696,0.8478,0.6617,0.1208,-0.1921,-0.1412,-0.1594,-0.0743,0.1372,0.2438,0.441,0.6968,1.0147,1.2431,1.3501,1.3501,1.2444,1.0482,0.8348,0.6836,0.5627,0.2589,0.1373,0.1219,0.0453,0.075,0.1644,0.045,0.1049,0.2396,0.0608,0.0,0.0,0.0,0.0,0.0,0.0,0.0,0.0,0.0,0.0,0.0,0.0,0.0,0.0131,0.0915,0.1046,0.1567,0.3256,0.3776,0.4426,0.7153,0.7805,0.8327,1.0159,1.0552,1.0552,1.0552,1.0552,1.0803,1.156,1.1552,1.1545,1.126,0.9869,0.8979,0.8979,0.8979,0.9372,1.0416,1.0552,1.0364,1.0232,1.0067,0.9863,0.9606,0.9289,0.9058,0.8926,0.887,0.8991,0.9618,0.8991,0.9419,1.0478,0.9938,1.0364,-0.2319,0.214,0.5282,0.7577,0.8133,0.8019,0.7697,0.8322,0.8897,0.833,0.9136,1.0046,1.0528,1.2038,1.4327,1.7564,1.9352,2.1545,2.4648,2.6287,2.6884,2.6193,2.4494,2.1685,1.7237,1.2086,0.7384,0.3407,-0.3219,-0.5943,-0.356,-0.423,-0.3727,-0.1675,0.0457,0.1827,0.2282,0.5772,0.8962,1.1404,1.1404,1.0638,0.9108,0.653,0.4258,0.2284,0.061,0.0,0.0,0.0,0.0,0.0,0.0,0.0,0.0,0.0,0.0,0.0,-0.061,-0.1067,-0.1524,-0.1524,-0.1481,-0.1572,-0.1572,-0.1241,-0.0794,-0.0794,-0.0395,0.0,0.0,0.0,0.0262,0.1566,0.1826,0.2737,0.5724,0.6765,0.7676,0.9501,1.0159,1.0552,1.0552,1.0552,1.0552,1.0552,1.0552,0.9636,0.7412,0.7158,0.7287,0.768,0.78,0.8451,1.0288,1.0552,1.0552,1.0552,1.0212,1.0054,0.9975,0.9493,0.9197,0.9118,0.8493,0.8347,0.8783,0.8347,0.8347,0.8783,0.8783,0.9305,-0.9128,-0.3762,0.1281,0.5505,0.6497,0.6174,0.4771,0.4551,0.4554,0.4561,0.4922,0.5128,0.5075,0.6702,0.9041,1.2011,1.69,2.1309,2.3922,2.9219,3.1983,2.9615,2.711,2.2844,1.5619,0.9081,0.312,-0.2283,-0.7671,-0.9294,-0.5989,-0.7592,-0.7689,-0.5769,-0.3804,-0.1825,0.0151,0.2281,0.5323,0.9264,0.9264,0.9264,0.8962,0.502,0.2131,0.0152,0.0,0.0,0.0,0.0,0.0,0.0,0.0,0.0,0.0,0.0,0.0,-0.0305,-0.2287,-0.4106,-0.5769,-0.5769,-0.5675,-0.5711,-0.5711,-0.438,-0.2982,-0.2982,-0.1467,0.0,0.0,0.0,0.0,0.0131,0.0131,0.0654,0.2346,0.4166,0.5854,0.7546,0.9372,1.0552,1.0552,1.0552,1.0552,1.0552,1.0552,0.9243,0.5854,0.5345,0.6002,0.7565,0.78,0.8569,1.0288,1.0552,1.0552,1.0552,1.0539,1.0271,0.9981,0.9691,0.9408,0.9124,0.7388,0.7255,0.8783,0.7255,0.7261,0.8783,0.8783,0.8777,-1.5278,-0.8979,-0.393,0.3305,0.5091,0.4875,0.4443,0.4227,0.401,0.3039,0.2206,0.1227,0.0245,0.1536,0.3867,0.7014,1.2943,1.913,2.4923,3.0802,3.4664,3.5066,3.1368,2.5762,1.8422,0.8033,-0.1415,-0.9397,-1.2927,-1.3815,-1.1583,-1.1144,-0.9948,-0.8002,-0.6065,-0.3952,-0.1976,0.0,0.258,0.5323,0.653,0.5769,0.3191,0.3196,0.1981,0.0,0.0,0.0,0.0,0.0,0.0,0.0,0.0,0.0,0.0,0.0,-0.0915,-0.2286,-0.4258,-0.5466,-0.6072,-0.6072,-0.5979,-0.6163,-0.7048,-0.6092,-0.4205,-0.1765,-0.1333,-0.1437,-0.0262,0.0,0.0,0.0,0.0,0.0523,0.2216,0.2995,0.4033,0.5854,0.6635,0.7153,0.7153,0.7153,0.7153,0.7153,0.7153,0.625,0.379,0.3531,0.3788,0.4293,0.5444,0.6864,0.8569,0.8698,0.8698,0.8698,0.8698,0.866,0.8571,0.8289,0.8109,0.8039,0.6081,0.5311,0.585,0.5311,0.5311,0.585,0.6932,0.7368,-2.0935,-1.3576,-0.7598,0.1381,0.3578,0.3253,0.2384,0.2166,0.1733,0.0325,-0.1045,-0.2336,-0.3941,-0.2319,0.0133,0.2911,1.0024,1.772,2.5394,3.2331,3.6992,3.8141,3.3999,2.7288,1.7739,0.5504,-0.5145,-1.3332,-1.6732,-1.768,-1.5794,-1.5329,-1.4125,-1.2032,-0.9509,-0.7421,-0.6065,-0.2729,0.0,0.2128,0.4104,0.3648,0.1066,0.1829,0.1372,0.0,0.0,0.0,0.0,0.0,0.0,0.0,0.0,0.0,-0.0153,-0.0763,-0.2743,-0.5323,-0.6681,-0.7589,-0.8046,-0.8046,-0.8113,-0.8314,-0.9215,-0.817,-0.6181,-0.3706,-0.2678,-0.2216,-0.1176,-0.0393,0.0,0.0,0.0,0.0262,0.1437,0.2101,0.2898,0.4044,0.4852,0.5261,0.5212,0.5205,0.5205,0.5205,0.5205,0.4431,0.1964,0.1704,0.1832,0.2476,0.3641,0.5059,0.6735,0.6864,0.6868,0.6877,0.6881,0.6881,0.6881,0.6631,0.652,0.6538,0.4612,0.384,0.4227,0.3794,0.3794,0.4338,0.5311,0.585,-2.5888,-1.7257,-0.9417,-0.0107,0.2281,0.152,-0.1303,-0.1956,-0.2388,-0.3905,-0.457,-0.537,-0.7047,-0.4757,-0.2078,-0.0258,0.8313,1.7535,2.5126,3.3842,3.9109,3.834,3.4638,2.6744,1.2995,0.1598,-0.7666,-1.3799,-1.9196,-2.1046,-1.8471,-1.9954,-2.01,-1.8218,-1.4312,-1.2065,-1.2065,-0.6216,-0.2279,0.0,0.1977,0.2895,0.2895,0.0915,0.0,0.0,0.0,0.0,0.0,0.0,0.0,0.0,0.0,0.0,-0.0305,-0.2438,-0.5778,-0.9113,-0.9264,-1.0482,-1.2321,-1.2321,-1.2321,-1.2321,-1.2321,-1.0723,-0.8879,-0.8734,-0.5836,-0.2608,-0.2607,-0.1306,0.0,0.0,0.0,0.0,0.0,0.1337,0.2425,0.2494,0.3867,0.5115,0.5107,0.5082,0.5078,0.5075,0.5075,0.3908,0.0393,0.0,0.0655,0.2228,0.2491,0.3266,0.5046,0.5172,0.5182,0.5205,0.5205,0.5205,0.5205,0.4898,0.4756,0.4785,0.3018,0.2806,0.4122,0.2713,0.2822,0.4122,0.4227,0.4227,-2.6155,-1.7518,-0.9923,0.0945,0.4419,0.4738,0.2908,0.173,0.0217,-0.2171,-0.3818,-0.5348,-0.7023,-0.6644,-0.4684,-0.0643,0.7412,1.6185,2.5126,3.3159,3.7826,3.6751,3.2055,2.3705,1.0005,0.0373,-0.8172,-1.5695,-1.988,-2.2153,-2.225,-2.1407,-2.067,-2.0245,-1.642,-1.3591,-1.2065,-0.8938,-0.5772,-0.2281,-0.1674,-0.061,0.0763,0.0305,0.0,0.0,0.0,0.0,0.0,0.0,0.0,0.0,0.0,-0.0915,-0.2438,-0.4561,-0.6832,-0.9415,-1.0789,-1.1712,-1.2321,-1.2321,-1.2321,-1.2321,-1.2321,-1.1605,-1.0393,-0.8484,-0.7284,-0.6006,-0.3272,-0.2216,-0.1575,-0.0269,0.0,0.0,0.0,0.0412,0.0684,0.0691,0.1114,0.1388,0.1489,0.1482,0.1471,0.1442,0.1438,0.1046,0.0131,0.0,0.0131,0.0655,0.1835,0.2751,0.3266,0.3264,0.3266,0.327,0.3256,0.3247,0.3247,0.322,0.3156,0.3175,0.1413,0.0794,0.1196,0.0762,0.0762,0.1196,0.2281,0.2713,-3.0133,-1.6943,-0.3471,0.8534,1.1917,1.1377,0.7852,0.5328,0.2447,-0.2156,-0.4451,-0.6189,-0.7819,-0.7757,-0.5744,-0.0632,0.7097,1.5666,2.5126,3.2082,3.5949,3.5129,2.9409,2.0535,0.771,-0.0502,-0.8799,-1.7685,-2.1475,-2.4174,-2.621,-2.4411,-2.3411,-2.3411,-1.9641,-1.6559,-1.4609,-1.1785,-0.8792,-0.5627,-0.3958,-0.2438,-0.122,-0.0458,0.0,0.0,0.0,0.0,0.0,0.0,0.0,0.0,0.0,-0.122,-0.335,-0.5317,-0.7895,-1.0633,-1.1862,-1.2321,-1.2321,-1.2321,-1.2321,-1.2321,-1.2321,-1.1959,-1.1367,-0.9641,-0.8708,-0.768,-0.5372,-0.3646,-0.2226,-0.1333,-0.053,0.0,0.0,0.0,0.0,0.0,0.0,0.0,0.0,0.0,0.0,0.0,0.0,0.0,0.0,0.0,0.0,0.0,0.0917,0.1442,0.1442,0.1442,0.1442,0.1442,0.1437,0.1434,0.1434,0.1435,0.1533,0.1462,0.0476,0.0,0.0,-0.0653,-0.0871,-0.0871,0.0,0.0326,-3.3748,-1.5123,0.5718,1.9071,2.2019,1.9955,0.0,0.9723,0.5219,-0.1695,-0.4737,-0.6789,-0.8535,-0.8098,-0.5668,-0.074,0.6885,1.5386,2.4437,3.0252,3.3546,3.3396,2.6832,1.7856,0.6408,-0.1006,-0.9167,-1.9248,-2.3184,-2.6447,-2.9394,-2.7965,-2.6859,-2.6578,-2.3125,-2.038,-1.8365,-1.4461,-1.1486,-0.9405,-0.5624,-0.3502,-0.3047,-0.122,-0.0153,0.0,0.0,0.0,0.0,0.0,0.0,0.0,0.0,-0.1372,-0.3654,-0.5314,-0.8655,-1.2321,-1.2321,-1.2321,-1.2321,-1.2321,-1.2471,-1.2622,-1.2622,-1.2416,-1.2274,-1.1787,-1.0253,-0.8789,-0.8,-0.5464,-0.2997,-0.2615,-0.1439,-0.0264,0.0,0.0,0.0,0.0,0.0,0.0,0.0,0.0,0.0,0.0,0.0,0.0,0.0,0.0,0.0,0.0,0.0,0.0,0.0,0.0,0.0,0.0,0.0,0.0,0.0,0.0,0.0,0.0,0.0,-0.0116,-0.0218,-0.1522,-0.2173,-0.239,-0.239,-0.2496,0.0,0.0,0.0,0.0,0.0,0.0,0.0,1.8888,1.3563,0.5511,0.1057,-0.2615,-0.6672,-0.7246,-0.5882,-0.2212,0.5228,1.3064,2.0077,2.6526,3.0582,3.0562,2.5713,1.8323,0.7957,-0.0375,-0.9167,-1.9248,-2.3184,-2.6447,-2.9394,-2.9199,-2.8228,-2.6718,-2.4385,-2.2357,-2.038,-1.6568,-1.3599,-1.1473,-0.9093,-0.623,-0.3047,-0.2743,-0.1525,0.0,0.0,0.0,0.0,0.0,0.0,0.0,0.0,-0.2284,-0.5469,-0.592,-0.8655,-1.2321,-1.2321,-1.2321,-1.2321,-1.2321,-1.3358,-1.454,-1.454,-1.5663,-1.6324,-1.4208,-1.3702,-1.2686,-0.882,-0.7019,-0.5492,-0.3079,-0.2252,-0.1719,-0.0278,0.0,0.0,0.0,0.0,0.0,0.0,0.0,0.0,0.0,0.0,0.0,0.0,0.0,0.0,0.0,0.0,0.0,0.0,0.0,0.0,0.0,0.0,0.0,0.0,0.0,0.0,0.0,0.0,-0.0581,-0.174,-0.1956,-0.2713,-0.3905,-0.3905,-0.4443,0.0,0.0,0.0,0.0,0.0,0.0,0.0,0.0,0.0,0.0,0.0,0.0641,-0.3742,0.0,-0.4825,-0.1418,0.5359,1.236,1.8936,2.5561,2.9746,2.9746,2.5417,1.843,0.8306,-0.0125,-0.9167,-1.9248,-2.4061,-2.7736,-3.0763,-3.0966,-3.042,-2.9459,-2.6646,-2.4229,-2.2369,-1.8481,-1.5549,-1.3591,-1.061,-0.8051,-0.6078,-0.4414,-0.3353,-0.2898,-0.0916,0.0,0.0,0.0,0.0,0.0,0.0,-0.2393,-0.5811,-0.5887,-0.8495,-1.1893,-1.1893,-1.2094,-1.2268,-1.222,-1.377,-1.5549,-1.5141,-1.6252,-1.7264,-1.5596,-1.471,-1.3783,-1.1403,-0.8956,-0.6652,-0.5162,-0.4337,-0.3688,-0.2746,-0.266,-0.2564,-0.1462,-0.1349,-0.1215,-0.015,0.0,0.0,0.0,0.0,0.0,0.0,0.0,0.0,0.0,0.0,0.0,0.0,0.0,0.0,0.0,0.0,0.0,0.0,0.0,0.0,0.0,0.0,-0.0698,-0.2173,-0.2822,-0.4013,-0.5419,-0.6178,-0.6502,0.0,0.0,0.0,0.0,0.0,0.0,0.0,0.0,0.0,0.0,0.0,0.0,0.0,0.0,0.0,-0.0114,0.5836,1.2258,1.8414,2.5293,2.9708,2.9746,2.5351,1.8227,0.791,-0.0625,-0.9666,-1.9519,-2.5015,-2.9088,-3.1906,-3.2537,-3.2626,-3.2339,-2.8906,-2.6253,-2.4358,-2.0223,-1.7343,-1.5714,-1.1667,0.0,-0.8962,-0.593,-0.4876,-0.5185,-0.1526,0.0,0.0,0.0,0.0,0.0,0.0,-0.1896,-0.4648,-0.5404,-0.8179,-1.16,-1.155,-1.2068,-1.2534,-1.2565,-1.4426,-1.6615,-1.6024,-1.6916,0.0,-1.675,-1.5891,-1.5017,-1.4092,-1.1018,-0.8048,-0.7144,-0.6372,-0.563,-0.5354,-0.5385,-0.5112,-0.3481,-0.3135,-0.259,-0.0915,-0.09,-0.1178,-0.1016,-0.1148,-0.0993,-0.0419,-0.0553,-0.0409,0.0,0.0,0.0,0.0,0.0,0.0,0.0,0.0,0.0,0.0,0.0,0.0,0.0,0.0,-0.0689,-0.2173,-0.358,-0.5095,-0.6609,-0.7915,-0.8003,0.0,0.0,0.0,0.0,0.0,0.0,0.0,0.0,0.0,0.0,0.0,0.0,0.0,0.0,0.0,0.0,0.5786,1.1999,1.6769,2.4421,2.9594,2.9727,2.5219,1.7563,0.6239,-0.2371,-1.116,-2.0695,-2.5418,-2.8871,-3.1247,-3.3481,0.0,0.0,0.0,-2.8228,-2.6281,-2.0816,-1.7933,-1.7629,-1.3793,-1.094,-0.9108,-0.6832,-0.5017,-0.3352,-0.1068,0.0,0.0,0.0,0.0,0.0,0.0,-0.0284,-0.0994,-0.4382,-0.8034,-1.128,-1.1313,0.0,0.0,-1.3577,-1.6074,-1.8819,-1.8732,-2.0085,-2.122,-1.9048,-1.9511,-1.9594,-1.5006,-1.3477,-1.2049,-0.7919,-0.7283,-0.7028,-0.5616,-0.545,-0.5511,-0.5385,-0.4128,-0.3047,-0.2743,-0.4248,-0.5178,-0.4704,-0.5117,-0.4563,-0.2131,-0.2467,-0.211,-0.014,0.0,0.0,0.0,0.0,0.0,0.0,0.0,0.0,0.0,0.0,0.0,0.0,0.0,-0.0658,-0.2173,-0.358,-0.5095,-0.6599,-0.7436,-0.795,0.0,0.0,0.0,0.0,0.0,0.0,0.0,0.0,0.0,0.0,0.0,0.0,0.0,0.0,0.0,0.0,0.7534,1.3403,1.8776,2.4994,2.9468,3.0875,2.486,1.6984,0.7266,-0.2126,-1.0673,-1.7953,-2.4336,-2.8323,-2.9671,-3.303,-3.4588,-3.3886,-3.0983,-2.9199,-2.8367,-2.2669,-1.9234,-1.807,-1.5277,-1.2894,-1.094,-0.8806,-0.6681,-0.4713,-0.381,-0.2136,0.0,0.0,0.0,0.0,0.0,0.0,0.0,0.0,-0.7644,-1.1073,-1.2317,-1.234,-1.2467,-1.6413,-1.9014,-2.0465,-2.0202,-2.076,-2.1477,-2.0265,-2.0493,-2.0543,-1.8335,-1.4855,-1.1749,-1.1139,-1.0133,-0.9114,-0.8457,-0.8458,-0.8276,-0.7169,-0.6615,0.0,-0.6394,-0.6101,-0.5769,-0.5669,-0.5906,-0.5624,-0.4592,-0.3597,-0.2731,-0.1841,-0.0699,0.0,0.0,0.0,0.0,0.0,0.0,0.0,0.0,0.0,0.0,0.0,0.0,-0.0748,-0.2153,-0.3375,0.0,0.0,-0.6375,-0.7207,0.0,0.0,0.0,0.0,0.0,0.0,0.0,0.0,0.0,0.0,0.0,0.0,0.0,0.0,0.0,0.0,1.0381,1.5294,2.092,2.586,2.9359,3.0836,2.3936,1.5619,0.6945,-0.2636,-1.068,-1.6416,-2.3453,-2.7645,-2.8357,-3.231,-3.4777,-3.5004,-3.1408,-2.9612,-2.9612,-2.3802,-1.9954,-1.807,-1.616,-1.4092,-1.217,-1.0024,-0.8046,-0.6069,-0.5445,-0.3172,0.0,0.0,0.0,0.0,0.0,-0.0274,-0.1078,-0.3757,-0.6881,-1.0178,-1.2732,-1.2903,-1.2764,-1.8185,-2.0514,-2.1253,-2.0733,-2.0847,-2.1049,-2.0757,-2.062,-2.06,-2.0639,-1.6262,-1.2234,-1.346,-1.208,-1.0552,-1.0552,-1.0654,-1.0455,-0.8951,-0.8951,-0.932,-0.932,-0.8078,-0.7274,-0.7357,-0.7448,-0.7344,-0.6702,-0.5048,-0.368,-0.3182,-0.1281,0.0,0.0,0.0,0.0,0.0,0.0,0.0,0.0,0.0,0.0,0.0,0.0,-0.0527,0.0,0.0,0.0,0.0,0.0,0.0,0.0,0.0,0.0,0.0,0.0,0.0,0.0,0.0,0.0,0.0,0.0,0.0,0.0,0.0,0.0,0.0,0.0,0.0,2.2042,2.6776,2.9424,2.8774,2.1897,1.3361,0.3608,-0.5179,-1.2432,-1.7652,-2.3217,-2.69,-2.7756,-3.1647,-3.4188,-3.4985,-3.1408,-2.9612,-2.9612,-2.3802,-1.9954,-1.807,-1.616,-1.4092,-1.217,-1.0024,-0.8046,-0.5911,-0.4007,-0.1912,0.0,0.0,0.0,0.0,0.0,-0.1048,-0.2478,-0.3256,-0.5331,-0.8322,-1.1794,-1.4095,-1.5748,-1.7549,-1.9331,-2.0581,-2.0555,-2.0678,-2.0665,-2.0652,-2.0652,-2.0568,-2.0613,-1.7981,-1.5098,-1.4113,-1.208,-1.0552,-1.0552,-1.0654,-1.0865,-1.0865,-1.0743,-1.0756,-1.0756,-1.0971,-1.1062,-1.0808,-1.1097,0.0,-0.8372,-0.6782,-0.5157,-0.3344,-0.1217,0.0,0.0,0.0,0.0,0.0,0.0,0.0,0.0,0.0,0.0,0.0,0.0,0.0,-0.0098,0.0,0.0,0.0,0.0,0.0,0.0,0.0,0.0,0.0,0.0,0.0,0.0,0.0,0.0,0.0,0.0,0.0,0.0,0.0,0.0,0.0,0.0,0.0,0.0,2.579,2.6529,2.6213,1.9069,1.1195,0.3565,-0.4091,-1.0633,-1.5645,-2.1387,-2.5325,-2.6775,-3.0693,-3.3334,-3.4169,-3.0541,-2.9009,-2.9612,-2.5122,-2.1274,-1.807,-1.7334,-1.5292,-1.1873,-1.1126,-1.0298,-0.9278,-0.8628,-0.6013,-0.2288,-0.2368,-0.1365,0.0,0.0,-0.1046,-0.2735,-0.4163,-0.5983,-0.8317,-1.1779,-1.4077,-1.598,-1.8886,-2.0147,-2.0652,-2.0652,-2.0652,-2.0652,-2.0652,-2.0652,-2.0665,-2.0594,-1.8649,-1.6065,-1.4285,-1.2918,-1.1801,-1.0803,-1.0632,-1.0575,-1.0575,-1.0575,-1.0575,-1.0575,-1.0812,-1.097,-1.0878,-1.1353,-1.1393,-1.0573,-0.9078,-0.7286,-0.5317,-0.3198,-0.152,-0.0151,0.0,0.0,0.0,0.0,0.0,0.0,0.0,0.0,0.0,0.0,0.0,0.0,0.0,0.0,0.0,0.0,0.0,0.0,0.0,0.0,0.0,0.0,0.0,0.0,0.0,0.0,0.0,0.0,0.0,0.0,0.0,0.0,0.0,0.0,0.0,0.0,0.0,0.0,2.4893,1.801,0.0,0.4924,-0.193,-0.8008,-1.2759,-1.8516,-2.2571,-2.4389,-2.8839,-3.1561,-3.2501,-2.9482,-2.8139,-2.872,-2.5436,-2.1638,-1.7609,-1.7766,-1.5738,-1.1564,-1.1564,-1.1039,-1.0039,-1.0091,-0.7385,-0.3199,-0.379,-0.252,0.0,0.0,-0.1437,-0.3646,-0.4815,-0.6765,-0.9102,-1.2042,-1.4077,-1.598,-1.8762,-2.0007,-2.0218,-2.0218,-2.0075,-1.9958,-2.0153,-2.0218,-2.0257,-2.0477,-1.885,-1.6804,-1.5263,-1.4041,-1.2687,-1.168,-1.0925,-1.0674,-1.131,-1.0925,-1.064,-1.1167,-1.0803,-1.0581,-1.0693,-1.1115,-1.1491,-1.1695,-1.0174,-0.8655,-0.7286,-0.4716,-0.259,-0.122,-0.0448,-0.0292,-0.1005,-0.0973,-0.1217,-0.199,-0.197,-0.1796,-0.1481,-0.142,-0.1093,0.0,0.0,0.0,0.0,0.0,0.0,0.0,0.0,0.0,0.0,0.0,0.0,0.0,0.0,0.0,0.0,0.0,0.0,0.0,0.0,0.0,0.0,0.0,0.0,0.0,0.0,0.0,2.4631,1.8613,0.0,0.0,0.0,0.0,-0.9557,-1.46,-1.8509,-2.0876,-2.5889,-2.9013,-2.982,-2.8073,-2.7213,-2.7261,-2.4485,-2.0944,-1.6773,-1.7326,-1.5334,-1.1254,-1.1254,-1.0126,-0.8285,-0.8211,-0.6092,-0.2839,-0.4599,-0.3254,-0.0131,0.0,-0.208,-0.5185,-0.5192,-0.7393,-1.0762,-1.2552,-1.4186,-1.5824,-1.7596,-1.8867,-1.962,-1.9581,-1.9205,0.0,0.0,-1.9242,-1.9619,-2.0335,-1.8949,-1.7167,-1.7065,-1.5069,-1.3188,-1.3061,-1.168,-1.0925,-1.2536,-1.153,-1.08,-1.2034,0.0,-1.0021,-1.0298,-1.0621,-1.1049,-1.1603,-1.0305,-0.9264,-0.9113,-0.5778,-0.3352,-0.3199,-0.1492,-0.1177,-0.3083,-0.294,-0.3534,-0.5562,-0.5409,-0.4933,-0.4295,-0.4027,0.0,0.0,0.0,0.0,0.0,0.0,0.0,0.0,0.0,0.0,0.0,0.0,0.0,0.0,0.0,0.0,0.0,0.0,0.0,0.0,0.0,0.0,0.0,0.0,0.0,0.0,2.6975,2.4456,2.1871,1.6497,1.1017,0.0,0.0,0.0,0.0,0.0,0.0,-1.8251,-2.2054,-2.445,-2.5511,-2.5009,-2.4945,-2.5597,-2.3535,-2.0438,-1.6764,-1.6881,-1.4802,-1.097,-1.097,-1.0576,-0.9844,-0.9901,-0.7889,-0.4593,-0.5102,-0.3913,-0.1769,-0.0495,-0.2082,-0.5023,-0.5128,-0.7211,-1.0323,-1.3755,-1.5002,-1.5584,-1.8287,-1.914,-1.8958,-1.853,0.0,0.0,0.0,0.0,-1.9294,-2.0289,-1.9787,-1.8612,-1.7361,-1.5949,-1.4583,-1.3316,-1.168,-1.0479,-1.062,-1.033,-0.9978,-0.9688,-0.9531,0.0,-0.9257,-1.0051,-1.0667,-1.1036,-1.1274,-1.0789,-0.9264,-0.8202,-0.6987,-0.5469,-0.4833,-0.478,-0.5287,-0.4981,-0.5125,-0.5565,-0.5185,-0.4669,-0.404,0.0,0.0,0.0,0.0,0.0,0.0,0.0,0.0,0.0,0.0,0.0,0.0,0.0,0.0,0.0,0.0,0.0,0.0,0.0,0.0,0.0,0.0,0.0,0.0,0.0,0.0,0.0,2.7659,2.3924,2.1101,1.6233,1.1518,0.0,0.0,0.0,0.0,0.0,0.0,0.0,0.0,0.0,-2.1091,-2.1063,-2.1645,-2.3044,-2.0735,-1.8515,-1.6203,-1.5731,-1.375,-1.0674,-1.0674,-1.0581,-1.0552,-1.0552,-0.8916,-0.6115,-0.6064,-0.4688,-0.2373,0.0,0.0,0.0,0.0,-0.7024,-0.9955,-1.294,-1.4259,-1.4996,-1.7504,0.0,0.0,0.0,0.0,0.0,0.0,0.0,-1.5903,-1.8427,-1.8675,-1.8072,-1.7127,-1.5588,-1.4204,-1.3188,-1.134,-1.0119,-1.1079,-1.0555,-1.0106,-1.0375,-0.9885,0.0,0.0,0.0,-1.0377,-1.0812,-1.1629,-1.1856,-1.0638,-0.9717,-0.8655,-0.7437,-0.6526,-0.634,-0.7304,-0.6913,-0.7112,-0.7877,-0.7252,-0.6462,0.0,0.0,0.0,0.0,0.0,0.0,0.0,0.0,0.0,0.0,0.0,0.0,0.0,0.0,0.0,0.0,0.0,0.0,0.0,0.0,0.0,0.0,0.0,0.0,0.0,0.0,0.0,0.0,0.0,2.5133,2.1624,0.0,0.0,0.0,0.0,0.0,0.0,0.0,0.0,0.0,0.0,0.0,0.0,0.0,-1.7596,-1.928,-1.7166,-1.58,-1.506,-1.4025,-1.2484,-1.0311,-1.0311,-1.0311,-1.0311,-1.0177,0.0,-0.7413,-0.7086,0.0,0.0,0.0,0.0,0.0,0.0,0.0,0.0,0.0,0.0,0.0,0.0,0.0,0.0,0.0,0.0,0.0,0.0,0.0,0.0,0.0,0.0,-1.611,-1.6228,-1.4563,-1.2761,-1.2289,-1.06,-0.9801,-1.1848,-1.1145,-1.0584,0.0,0.0,0.0,0.0,0.0,0.0,-1.0733,-1.1603,-1.2321,-1.2321,-1.0638,-0.9566,-0.9566,-0.7895,-0.758,-0.9374,-0.8806,-0.9147,-1.0759,-0.9696,0.0,0.0,0.0,0.0,0.0,0.0,0.0,0.0,0.0,0.0,0.0,0.0,0.0,0.0,0.0,0.0,0.0,0.0,0.0,0.0,0.0,0.0,0.0,0.0,0.0,0.0,0.0,0.0,0.0,0.0,0.0,0.0,0.0,0.0,0.0,0.0,0.0,0.0,0.0,0.0,0.0,0.0,0.0,0.0,0.0,0.0,0.0,0.0,0.0,0.0,-1.247,-1.1412,-0.9711,-0.9711,-0.9711,-0.9591,-0.849,-0.7741,-0.7325,-0.7098,0.0,0.0,0.0,0.0,0.0,0.0,0.0,0.0,0.0,0.0,0.0,0.0,0.0,0.0,0.0,0.0,0.0,0.0,0.0,0.0,0.0,0.0,-1.3968,-1.4725,-1.3536,-1.1414,-0.8603,0.0,0.0,0.0,0.0,0.0,0.0,0.0,0.0,0.0,0.0,0.0,-1.0423,-1.1478,-1.2321,-1.2321,-1.1862,-1.1712,-1.1712,-1.1404,-1.115,-1.1216,-1.069,-1.0296,0.0,0.0,0.0,0.0,0.0,0.0,0.0,0.0,0.0,0.0,0.0,0.0,0.0,0.0,0.0,0.0,0.0,0.0,0.0,0.0,0.0,0.0,0.0,0.0,0.0,0.0,0.0,0.0,0.0,0.0,0.0,0.0,0.0,0.0,0.0,0.0,0.0,0.0,0.0,0.0,0.0,0.0,0.0,0.0,0.0,0.0,0.0,0.0,0.0,0.0,0.0,0.0,0.0,0.0,0.0,0.0,0.0,0.0,-0.6235,-0.633,0.0,0.0,0.0,0.0,0.0,0.0,0.0,0.0,0.0,0.0,0.0,0.0,0.0,0.0,0.0,0.0,0.0,0.0,0.0,0.0,0.0,0.0,0.0,0.0,0.0,0.0,0.0,0.0,0.0,0.0,0.0,0.0,0.0,0.0,0.0,0.0,0.0,0.0,0.0,0.0,-1.0472,-1.1586,-1.2321,-1.2321,-1.2321,-1.2321,-1.2321,-1.2321,-1.1972,-1.1517,-1.095,0.0,0.0,0.0,0.0,0.0,0.0,0.0,0.0,0.0,0.0,0.0,0.0,0.0,0.0,0.0,0.0,0.0,0.0,0.0,0.0,0.0,0.0,0.0,0.0,0.0,0.0,0.0,0.0,0.0,0.0,0.0,0.0,0.0,0.0,0.0,0.0,0.0,0.0,0.0,0.0,0.0,0.0,0.0,0.0,0.0,0.0,0.0,0.0,0.0,0.0,0.0,0.0,0.0,0.0,0.0,0.0,0.0,0.0,0.0,-0.4269,-0.5119,0.0,0.0,0.0,0.0,0.0,0.0,0.0,0.0,0.0,0.0,0.0,0.0,0.0,0.0,0.0,0.0,0.0,0.0,0.0,0.0,0.0,0.0,0.0,0.0,0.0,0.0,0.0,0.0,0.0,0.0,0.0,0.0,0.0,0.0,0.0,0.0,0.0,0.0,0.0,0.0,-1.0479,-1.1593,-1.2321,-1.2321,-1.2321,-1.2321,-1.2321,-1.2321,-1.186,-1.1142,-1.0608,0.0,0.0,0.0,0.0,0.0,0.0,0.0,0.0,0.0,0.0,0.0,0.0,0.0,0.0,0.0,0.0,0.0,0.0,0.0,0.0,0.0,0.0,0.0,0.0,0.0,0.0,0.0,0.0,0.0,0.0,0.0,0.0,0.0,0.0,0.0,0.0,0.0,0.0,0.0,0.0,0.0,0.0,0.0,0.0,0.0,0.0,0.0,0.0,0.0,0.0,0.0,0.0,0.0,0.0,0.0,0.0,0.0,0.0,0.0,0.0,0.0,0.0,0.0,0.0,0.0,0.0,0.0,0.0,0.0,0.0,0.0,0.0,0.0,0.0,0.0,0.0,0.0,0.0,0.0,0.0,0.0,0.0,0.0,0.0,0.0,0.0,0.0,0.0,0.0,0.0,0.0,0.0,0.0,0.0,0.0,0.0,0.0,0.0,0.0,0.0,0.0,-1.0876,-1.1735,-1.2321,-1.2321,-1.2321,-1.2321,-1.2321,-1.2321,-1.184,-1.0705,0.0,0.0,0.0,0.0,0.0,0.0,0.0,0.0,0.0,0.0,0.0,0.0,0.0,0.0,0.0,0.0,0.0,0.0,0.0,0.0,0.0,0.0,0.0,0.0,0.0,0.0,0.0,0.0,0.0,0.0,0.0,0.0,0.0,0.0,0.0,0.0,0.0,0.0,0.0,0.0,0.0,0.0,0.0,0.0,0.0,0.0,0.0,0.0,0.0,0.0,0.0,0.0,0.0,0.0,0.0,0.0,0.0,0.0,0.0,0.0,0.0,0.0,0.0,0.0,0.0,0.0,0.0,0.0,0.0,0.0,0.0,0.0,0.0,0.0,0.0,0.0,0.0,0.0,0.0,0.0,0.0,0.0,0.0,0.0,0.0,0.0,0.0,0.0,0.0,0.0,0.0,0.0,0.0,0.0,0.0,0.0,0.0,0.0,0.0,0.0,0.0,0.0,-0.9313,-1.0861,-1.1972,-1.215,-1.2321,-1.2321,-1.2321,-1.2321,-1.182,-1.0899,0.0,0.0,0.0,0.0,0.0,0.0,0.0,0.0,0.0,0.0,0.0,0.0,0.0,0.0,0.0,0.0,0.0,0.0,0.0,0.0,0.0,0.0,0.0,0.0,0.0,0.0,0.0,0.0,0.0,0.0,0.0,0.0,0.0,0.0,0.0,0.0,0.0,0.0,0.0,0.0,0.0,0.0,0.0,0.0,0.0,0.0,0.0,0.0,0.0,0.0,0.0,0.0,0.0,0.0,0.0,0.0,0.0,0.0,0.0,0.0,0.0,0.0,0.0,0.0,0.0,0.0,0.0,0.0,0.0,0.0,0.0,0.0,0.0,0.0,0.0,0.0,0.0,0.0,0.0,0.0,0.0,0.0,0.0,0.0,0.0,0.0,0.0,0.0,0.0,0.0,0.0,0.0,0.0,0.0,0.0,0.0,0.0,0.0,0.0,0.0,0.0,0.0,-0.6842,-0.9074,-1.0942,-1.1066,-1.1705,-1.2321,-1.2321,-1.2321,-1.178,-1.0769,0.0,0.0,0.0,0.0,0.0,0.0,0.0,0.0,0.0,0.0,0.0,0.0,0.0,0.0,0.0,0.0,0.0,0.0,0.0,0.0,0.0,0.0,0.0,0.0,0.0,0.0,0.0,0.0,0.0,0.0,0.0,0.0,0.0,0.0,0.0,0.0,0.0,0.0,0.0,0.0,0.0,0.0,0.0,0.0,0.0,0.0,0.0,0.0,0.0,0.0,0.0,0.0,0.0,0.0,0.0,0.0,0.0,0.0,0.0,0.0,0.0,0.0,0.0,0.0,0.0,0.0,0.0,0.0,0.0,0.0,0.0,0.0,0.0,0.0,0.0,0.0,0.0,0.0,0.0,0.0,0.0,0.0,0.0,0.0,0.0,0.0,0.0,0.0,0.0,0.0,0.0,0.0,0.0,0.0,0.0,0.0,0.0,0.0,0.0,0.0,0.0,0.0,-0.3351,-0.6552,-0.8865,-0.8321,-1.0633,-1.2321,-1.2321,-1.2321,-1.1544,0.0,0.0,0.0,0.0,0.0,0.0,0.0,0.0,0.0,0.0,0.0,0.0,0.0,0.0,0.0,0.0,0.0,0.0,0.0,0.0,0.0,0.0,0.0,0.0,0.0,0.0,0.0,0.0,0.0,0.0,0.0,0.0,0.0,0.0,0.0,0.0,0.0,0.0,0.0,0.0,0.0,0.0,0.0,0.0,0.0,0.0,0.0,0.0,0.0,0.0,0.0,0.0,0.0,0.0,0.0,0.0,0.0,0.0,0.0,0.0,0.0,0.0,0.0,0.0,0.0,0.0,0.0,0.0,0.0,0.0,0.0,0.0,0.0,0.0,0.0,0.0,0.0,0.0,0.0,0.0,0.0,0.0,0.0,0.0,0.0,0.0,0.0,0.0,0.0,0.0,0.0,0.0,0.0,0.0,0.0,0.0,0.0,0.0,0.0,0.0,0.0,0.0,0.0,-0.3351,-0.6496,-0.8826,-0.8899,-1.094,-1.2321,-1.2321,-1.2321,-1.1773,-1.0755,0.0,0.0,0.0,0.0,0.0,0.0,0.0,0.0,0.0,0.0,0.0,0.0,0.0,0.0,0.0,0.0,0.0,0.0,0.0,0.0,0.0,0.0,0.0,0.0,0.0,0.0,0.0,0.0,0.0,0.0,0.0,0.0,0.0,0.0,0.0,0.0,0.0,0.0,0.0,0.0,0.0,0.0,0.0,0.0,0.0,0.0,0.0,0.0,0.0,0.0,0.0,0.0,0.0,0.0,0.0,0.0,0.0,0.0,0.0,0.0,0.0,0.0,0.0,0.0,0.0,0.0,0.0,0.0,0.0,0.0,0.0,0.0,0.0,0.0,0.0,0.0,0.0,0.0,0.0,0.0,0.0,0.0,0.0,0.0,0.0,0.0,0.0,0.0,0.0,0.0,0.0,0.0,0.0,0.0,0.0,0.0,0.0,0.0,0.0,0.0,0.0,0.0,0.0,-0.4715,-0.6927,-0.7839,-0.9873,-1.1404,-1.217,-1.222,-1.1843,-1.0892,0.0,0.0,0.0,0.0,0.0,0.0,0.0,0.0,0.0,0.0,0.0,0.0,0.0,0.0,0.0,0.0,0.0,0.0,0.0,0.0,0.0,0.0,0.0,0.0,0.0,0.0,0.0,0.0,0.0,0.0,0.0,0.0,0.0,0.0,0.0,0.0,0.0,0.0,0.0,0.0,0.0,0.0,0.0,0.0,0.0,0.0,0.0,0.0,0.0,0.0,0.0,0.0,0.0,0.0,0.0,0.0,0.0,0.0,0.0,0.0,0.0,0.0,0.0,0.0,0.0,0.0,0.0,0.0,0.0,0.0,0.0,0.0,0.0,0.0,0.0,0.0,0.0,0.0,0.0,0.0,0.0,0.0,0.0,0.0,0.0,0.0,0.0,0.0,0.0,0.0,0.0,0.0,0.0,0.0,0.0,0.0,0.0,0.0,0.0,0.0,0.0,0.0,0.0,-0.1915,-0.4024,-0.6039,-0.8046,-1.018,-1.2019,-1.2201,-1.1781,-1.0599,-1.0357,0.0,0.0,0.0,0.0,0.0,0.0,0.0,0.0,0.0,0.0,0.0,0.0,0.0,0.0,0.0,0.0,0.0,0.0,0.0,0.0,0.0,0.0,0.0,0.0,0.0,0.0,0.0,0.0,0.0,0.0,0.0,0.0,0.0,0.0,0.0,0.0,0.0,0.0,0.0,0.0,0.0,0.0,0.0,0.0,0.0,0.0,0.0,0.0,0.0,0.0,0.0,0.0,0.0,0.0,0.0,0.0,0.0,0.0,0.0,0.0,0.0,0.0,0.0,0.0,0.0,0.0,0.0,0.0,0.0,0.0,0.0,0.0,0.0,0.0,0.0,0.0,0.0,0.0,0.0,0.0,0.0,0.0,0.0,0.0,0.0,0.0,0.0,0.0,0.0,0.0,0.0,0.0,0.0,0.0,0.0,0.0,0.0,0.0,0.0,0.0,0.0,0.0,-0.3092,-0.5916,-0.7547,-1.0046,-1.1724,-1.217,-1.204,-1.1473,-1.0532,-0.9606,0.0,0.0,0.0,0.0,0.0,0.0,0.0,0.0,0.0,0.0,0.0,0.0,0.0,0.0,0.0,0.0,0.0,0.0,0.0,0.0,0.0,0.0,0.0,0.0,0.0,0.0,0.0,0.0,0.0,0.0,0.0,0.0,0.0,0.0,0.0,0.0,0.0,0.0,0.0,0.0,0.0,0.0,0.0,0.0,0.0,0.0,0.0,0.0,0.0,0.0,0.0,0.0,0.0,0.0,0.0,0.0,0.0,0.0,0.0,0.0,0.0,0.0,0.0,0.0,0.0,0.0,0.0,0.0,0.0,0.0,0.0,0.0,0.0,0.0,0.0,0.0,0.0,0.0,0.0,0.0,0.0,0.0,0.0,0.0,0.0,0.0,0.0,0.0,0.0,0.0,0.0,0.0,0.0,0.0,0.0,0.0,0.0,0.0,0.0,0.0,0.0,0.0,-0.1145,-0.4338,-0.6968,-0.8463,-1.0142,-1.1824,-1.184,-1.1541,-1.1214,-1.0488,0.0,0.0,0.0,0.0,0.0,0.0,0.0,0.0,0.0,0.0,0.0,0.0,0.0,0.0,0.0,0.0,0.0,0.0,0.0,0.0,0.0,0.0,0.0,0.0,0.0,0.0,0.0,0.0,0.0,0.0,0.0,0.0,0.0,0.0,0.0,0.0,0.0,0.0,0.0,0.0,0.0,0.0,0.0,0.0,0.0,0.0,0.0,0.0,0.0,0.0,0.0,0.0,0.0,0.0,0.0,0.0,0.0,0.0,0.0,0.0,0.0,0.0,0.0,0.0,0.0,0.0,0.0,0.0,0.0,0.0,0.0,0.0,0.0,0.0,0.0,0.0,0.0,0.0,0.0,0.0,0.0,0.0,0.0,0.0,0.0,0.0,0.0,0.0,0.0,0.0,0.0,0.0,0.0,0.0,0.0,0.0,0.0,0.0,0.0,0.0,0.0,0.0,0.0,-0.052,-0.4014,-0.5662,-0.7668,-1.1008,-1.1451,-1.184,-1.2212,0.0,0.0,0.0,0.0,0.0,0.0,0.0,0.0,0.0,0.0,0.0,0.0,0.0,0.0,0.0,0.0,0.0,0.0,0.0,0.0,0.0,0.0,0.0,0.0,0.0,0.0,0.0,0.0,0.0,0.0,0.0,0.0,0.0,0.0,0.0,0.0,0.0,0.0,0.0,0.0,0.0,0.0,0.0,0.0,0.0,0.0,0.0,0.0,0.0,0.0,0.0,0.0,0.0,0.0,0.0,0.0,0.0,0.0,0.0,0.0,0.0,0.0,0.0,0.0,0.0,0.0,0.0,0.0,0.0,0.0,0.0,0.0,0.0,0.0,0.0,0.0,0.0,0.0,0.0,0.0,0.0,0.0,0.0,0.0,0.0,0.0,0.0,0.0,0.0,0.0,0.0,0.0,0.0,0.0,0.0,0.0,0.0,0.0,0.0,0.0,0.0,0.0,0.0,0.0,0.4211,0.2859,-0.3645,-0.8276,-0.9093,-1.0582,-1.1819,-1.3018,0.0,0.0,0.0,0.0,0.0,0.0,0.0,0.0,0.0,0.0,0.0,0.0,0.0,0.0]}]]]